<?xml version="1.0" encoding="UTF-8" standalone="no" ?>
<gpx xmlns="http://www.topografix.com/GPX/1/1" xmlns:xsi="http://www.w3.org/2001/XMLSchema-instance" xsi:schemaLocation="http://www.topografix.com/GPX/1/1 http://www.topografix.com/GPX/1/1/gpx.xsd" version="1.1" creator="VisuGPX - https://www.visugpx.com">
  <metadata>
    <name>Sur la Razorbike - Le 12/01/2014</name>
    <desc><![CDATA[Sur la Razorbike - Le 12/01/2014]]></desc>
  </metadata>
  <trk>
    <name><![CDATA[Sur la Razorbike]]></name>
    <trkseg>
      <trkpt lat="43.5516" lon="7.01119">
        <ele>16.200000762939</ele>
        <time>2014-01-12T07:42:40.000Z</time>
      </trkpt>
      <trkpt lat="43.55158" lon="7.01123">
        <ele>16</ele>
        <time>2014-01-12T07:42:43.000Z</time>
      </trkpt>
      <trkpt lat="43.55154" lon="7.01127">
        <ele>15.800000190735</ele>
        <time>2014-01-12T07:42:45.000Z</time>
      </trkpt>
      <trkpt lat="43.55152" lon="7.01131">
        <ele>15.60000038147</ele>
        <time>2014-01-12T07:42:48.000Z</time>
      </trkpt>
      <trkpt lat="43.5515" lon="7.01129">
        <ele>16</ele>
        <time>2014-01-12T07:42:49.000Z</time>
      </trkpt>
      <trkpt lat="43.55145" lon="7.01125">
        <ele>16.60000038147</ele>
        <time>2014-01-12T07:42:50.000Z</time>
      </trkpt>
      <trkpt lat="43.55141" lon="7.01129">
        <ele>16.39999961853</ele>
        <time>2014-01-12T07:42:52.000Z</time>
      </trkpt>
      <trkpt lat="43.55129" lon="7.01143">
        <ele>15</ele>
        <time>2014-01-12T07:42:56.000Z</time>
      </trkpt>
      <trkpt lat="43.55125" lon="7.01155">
        <ele>13.60000038147</ele>
        <time>2014-01-12T07:43:00.000Z</time>
      </trkpt>
      <trkpt lat="43.55111" lon="7.01174">
        <ele>11.199999809265</ele>
        <time>2014-01-12T07:43:05.000Z</time>
      </trkpt>
      <trkpt lat="43.55092" lon="7.01191">
        <ele>9.1999998092651</ele>
        <time>2014-01-12T07:43:10.000Z</time>
      </trkpt>
      <trkpt lat="43.55075" lon="7.01192">
        <ele>9.1999998092651</ele>
        <time>2014-01-12T07:43:14.000Z</time>
      </trkpt>
      <trkpt lat="43.55046" lon="7.01197">
        <ele>9.8000001907349</ele>
        <time>2014-01-12T07:43:20.000Z</time>
      </trkpt>
      <trkpt lat="43.54994" lon="7.01214">
        <ele>8.6000003814697</ele>
        <time>2014-01-12T07:43:30.000Z</time>
      </trkpt>
      <trkpt lat="43.54955" lon="7.01224">
        <ele>7</ele>
        <time>2014-01-12T07:43:37.000Z</time>
      </trkpt>
      <trkpt lat="43.54906" lon="7.01237">
        <ele>4.8000001907349</ele>
        <time>2014-01-12T07:43:45.000Z</time>
      </trkpt>
      <trkpt lat="43.54856" lon="7.01242">
        <ele>4.4000000953674</ele>
        <time>2014-01-12T07:43:53.000Z</time>
      </trkpt>
      <trkpt lat="43.5485" lon="7.01242">
        <ele>4.4000000953674</ele>
        <time>2014-01-12T07:43:54.000Z</time>
      </trkpt>
      <trkpt lat="43.54838" lon="7.01231">
        <ele>5.4000000953674</ele>
        <time>2014-01-12T07:43:56.000Z</time>
      </trkpt>
      <trkpt lat="43.54831" lon="7.01204">
        <ele>7.1999998092651</ele>
        <time>2014-01-12T07:43:59.000Z</time>
      </trkpt>
      <trkpt lat="43.54832" lon="7.01197">
        <ele>7.8000001907349</ele>
        <time>2014-01-12T07:44:00.000Z</time>
      </trkpt>
      <trkpt lat="43.54829" lon="7.01152">
        <ele>10.39999961853</ele>
        <time>2014-01-12T07:44:05.000Z</time>
      </trkpt>
      <trkpt lat="43.54825" lon="7.01137">
        <ele>10.60000038147</ele>
        <time>2014-01-12T07:44:07.000Z</time>
      </trkpt>
      <trkpt lat="43.54823" lon="7.01114">
        <ele>11</ele>
        <time>2014-01-12T07:44:10.000Z</time>
      </trkpt>
      <trkpt lat="43.54817" lon="7.01065">
        <ele>10.60000038147</ele>
        <time>2014-01-12T07:44:16.000Z</time>
      </trkpt>
      <trkpt lat="43.54816" lon="7.01049">
        <ele>10.199999809265</ele>
        <time>2014-01-12T07:44:18.000Z</time>
      </trkpt>
      <trkpt lat="43.54815" lon="7.01023">
        <ele>9.6000003814697</ele>
        <time>2014-01-12T07:44:21.000Z</time>
      </trkpt>
      <trkpt lat="43.54815" lon="7.01015">
        <ele>9.6000003814697</ele>
        <time>2014-01-12T07:44:22.000Z</time>
      </trkpt>
      <trkpt lat="43.54824" lon="7.00993">
        <ele>10.39999961853</ele>
        <time>2014-01-12T07:44:25.000Z</time>
      </trkpt>
      <trkpt lat="43.54828" lon="7.00978">
        <ele>10.60000038147</ele>
        <time>2014-01-12T07:44:27.000Z</time>
      </trkpt>
      <trkpt lat="43.54839" lon="7.00941">
        <ele>10.60000038147</ele>
        <time>2014-01-12T07:44:32.000Z</time>
      </trkpt>
      <trkpt lat="43.54842" lon="7.00926">
        <ele>10.60000038147</ele>
        <time>2014-01-12T07:44:34.000Z</time>
      </trkpt>
      <trkpt lat="43.54856" lon="7.00856">
        <ele>10.60000038147</ele>
        <time>2014-01-12T07:44:43.000Z</time>
      </trkpt>
      <trkpt lat="43.54872" lon="7.00786">
        <ele>10</ele>
        <time>2014-01-12T07:44:52.000Z</time>
      </trkpt>
      <trkpt lat="43.54878" lon="7.00756">
        <ele>9</ele>
        <time>2014-01-12T07:44:56.000Z</time>
      </trkpt>
      <trkpt lat="43.5488" lon="7.00723">
        <ele>8</ele>
        <time>2014-01-12T07:45:00.000Z</time>
      </trkpt>
      <trkpt lat="43.54884" lon="7.00664">
        <ele>6.5999999046326</ele>
        <time>2014-01-12T07:45:07.000Z</time>
      </trkpt>
      <trkpt lat="43.54888" lon="7.00589">
        <ele>9.8000001907349</ele>
        <time>2014-01-12T07:45:16.000Z</time>
      </trkpt>
      <trkpt lat="43.5489" lon="7.00526">
        <ele>7.4000000953674</ele>
        <time>2014-01-12T07:45:23.000Z</time>
      </trkpt>
      <trkpt lat="43.54898" lon="7.00474">
        <ele>5.5999999046326</ele>
        <time>2014-01-12T07:45:29.000Z</time>
      </trkpt>
      <trkpt lat="43.54898" lon="7.00464">
        <ele>5.1999998092651</ele>
        <time>2014-01-12T07:45:30.000Z</time>
      </trkpt>
      <trkpt lat="43.54899" lon="7.00425">
        <ele>3.2000000476837</ele>
        <time>2014-01-12T07:45:34.000Z</time>
      </trkpt>
      <trkpt lat="43.54903" lon="7.00342">
        <ele>3.2000000476837</ele>
        <time>2014-01-12T07:45:43.000Z</time>
      </trkpt>
      <trkpt lat="43.54903" lon="7.00333">
        <ele>3.4000000953674</ele>
        <time>2014-01-12T07:45:44.000Z</time>
      </trkpt>
      <trkpt lat="43.54899" lon="7.00251">
        <ele>2.4000000953674</ele>
        <time>2014-01-12T07:45:53.000Z</time>
      </trkpt>
      <trkpt lat="43.54899" lon="7.00242">
        <ele>2.2000000476837</ele>
        <time>2014-01-12T07:45:54.000Z</time>
      </trkpt>
      <trkpt lat="43.54901" lon="7.00163">
        <ele>2.4000000953674</ele>
        <time>2014-01-12T07:46:03.000Z</time>
      </trkpt>
      <trkpt lat="43.54901" lon="7.00143">
        <ele>3</ele>
        <time>2014-01-12T07:46:05.000Z</time>
      </trkpt>
      <trkpt lat="43.54905" lon="7.00063">
        <ele>6</ele>
        <time>2014-01-12T07:46:14.000Z</time>
      </trkpt>
      <trkpt lat="43.54907" lon="7.00045">
        <ele>7</ele>
        <time>2014-01-12T07:46:16.000Z</time>
      </trkpt>
      <trkpt lat="43.54911" lon="6.99963">
        <ele>10</ele>
        <time>2014-01-12T07:46:25.000Z</time>
      </trkpt>
      <trkpt lat="43.54915" lon="6.99948">
        <ele>9</ele>
        <time>2014-01-12T07:46:27.000Z</time>
      </trkpt>
      <trkpt lat="43.54923" lon="6.99869">
        <ele>6.5999999046326</ele>
        <time>2014-01-12T07:46:36.000Z</time>
      </trkpt>
      <trkpt lat="43.54924" lon="6.9986">
        <ele>6.4000000953674</ele>
        <time>2014-01-12T07:46:37.000Z</time>
      </trkpt>
      <trkpt lat="43.54928" lon="6.99779">
        <ele>6</ele>
        <time>2014-01-12T07:46:46.000Z</time>
      </trkpt>
      <trkpt lat="43.54932" lon="6.99696">
        <ele>7</ele>
        <time>2014-01-12T07:46:55.000Z</time>
      </trkpt>
      <trkpt lat="43.54932" lon="6.99687">
        <ele>7</ele>
        <time>2014-01-12T07:46:56.000Z</time>
      </trkpt>
      <trkpt lat="43.54931" lon="6.99613">
        <ele>6</ele>
        <time>2014-01-12T07:47:05.000Z</time>
      </trkpt>
      <trkpt lat="43.54931" lon="6.99605">
        <ele>5.8000001907349</ele>
        <time>2014-01-12T07:47:06.000Z</time>
      </trkpt>
      <trkpt lat="43.54929" lon="6.99528">
        <ele>5.5999999046326</ele>
        <time>2014-01-12T07:47:15.000Z</time>
      </trkpt>
      <trkpt lat="43.54929" lon="6.99509">
        <ele>5.8000001907349</ele>
        <time>2014-01-12T07:47:17.000Z</time>
      </trkpt>
      <trkpt lat="43.54926" lon="6.99435">
        <ele>8</ele>
        <time>2014-01-12T07:47:25.000Z</time>
      </trkpt>
      <trkpt lat="43.54926" lon="6.99426">
        <ele>8.1999998092651</ele>
        <time>2014-01-12T07:47:26.000Z</time>
      </trkpt>
      <trkpt lat="43.54921" lon="6.99346">
        <ele>5.8000001907349</ele>
        <time>2014-01-12T07:47:35.000Z</time>
      </trkpt>
      <trkpt lat="43.5492" lon="6.99338">
        <ele>5.5999999046326</ele>
        <time>2014-01-12T07:47:36.000Z</time>
      </trkpt>
      <trkpt lat="43.54916" lon="6.99258">
        <ele>8.6000003814697</ele>
        <time>2014-01-12T07:47:45.000Z</time>
      </trkpt>
      <trkpt lat="43.54915" lon="6.99222">
        <ele>8</ele>
        <time>2014-01-12T07:47:49.000Z</time>
      </trkpt>
      <trkpt lat="43.5491" lon="6.99142">
        <ele>5.5999999046326</ele>
        <time>2014-01-12T07:47:58.000Z</time>
      </trkpt>
      <trkpt lat="43.54908" lon="6.99105">
        <ele>4.8000001907349</ele>
        <time>2014-01-12T07:48:02.000Z</time>
      </trkpt>
      <trkpt lat="43.54903" lon="6.99025">
        <ele>3</ele>
        <time>2014-01-12T07:48:11.000Z</time>
      </trkpt>
      <trkpt lat="43.54902" lon="6.99015">
        <ele>2.7999999523163</ele>
        <time>2014-01-12T07:48:12.000Z</time>
      </trkpt>
      <trkpt lat="43.54896" lon="6.98935">
        <ele>3.4000000953674</ele>
        <time>2014-01-12T07:48:21.000Z</time>
      </trkpt>
      <trkpt lat="43.54895" lon="6.98908">
        <ele>3.7999999523163</ele>
        <time>2014-01-12T07:48:24.000Z</time>
      </trkpt>
      <trkpt lat="43.54885" lon="6.98828">
        <ele>4.1999998092651</ele>
        <time>2014-01-12T07:48:33.000Z</time>
      </trkpt>
      <trkpt lat="43.54883" lon="6.9881">
        <ele>4.8000001907349</ele>
        <time>2014-01-12T07:48:35.000Z</time>
      </trkpt>
      <trkpt lat="43.54874" lon="6.9874">
        <ele>6.1999998092651</ele>
        <time>2014-01-12T07:48:43.000Z</time>
      </trkpt>
      <trkpt lat="43.54859" lon="6.9867">
        <ele>3.5999999046326</ele>
        <time>2014-01-12T07:48:51.000Z</time>
      </trkpt>
      <trkpt lat="43.54844" lon="6.98597">
        <ele>6.5999999046326</ele>
        <time>2014-01-12T07:48:59.000Z</time>
      </trkpt>
      <trkpt lat="43.54831" lon="6.98525">
        <ele>9.6000003814697</ele>
        <time>2014-01-12T07:49:07.000Z</time>
      </trkpt>
      <trkpt lat="43.54825" lon="6.98488">
        <ele>9.3999996185303</ele>
        <time>2014-01-12T07:49:11.000Z</time>
      </trkpt>
      <trkpt lat="43.54815" lon="6.98435">
        <ele>7.8000001907349</ele>
        <time>2014-01-12T07:49:17.000Z</time>
      </trkpt>
      <trkpt lat="43.54802" lon="6.98363">
        <ele>6.1999998092651</ele>
        <time>2014-01-12T07:49:25.000Z</time>
      </trkpt>
      <trkpt lat="43.54798" lon="6.98344">
        <ele>6</ele>
        <time>2014-01-12T07:49:27.000Z</time>
      </trkpt>
      <trkpt lat="43.54787" lon="6.98264">
        <ele>7.4000000953674</ele>
        <time>2014-01-12T07:49:36.000Z</time>
      </trkpt>
      <trkpt lat="43.54786" lon="6.98255">
        <ele>7.5999999046326</ele>
        <time>2014-01-12T07:49:37.000Z</time>
      </trkpt>
      <trkpt lat="43.54775" lon="6.98173">
        <ele>7</ele>
        <time>2014-01-12T07:49:46.000Z</time>
      </trkpt>
      <trkpt lat="43.54773" lon="6.98155">
        <ele>6.5999999046326</ele>
        <time>2014-01-12T07:49:48.000Z</time>
      </trkpt>
      <trkpt lat="43.54763" lon="6.98075">
        <ele>5.5999999046326</ele>
        <time>2014-01-12T07:49:57.000Z</time>
      </trkpt>
      <trkpt lat="43.5476" lon="6.98057">
        <ele>5.5999999046326</ele>
        <time>2014-01-12T07:49:59.000Z</time>
      </trkpt>
      <trkpt lat="43.54749" lon="6.97979">
        <ele>5.1999998092651</ele>
        <time>2014-01-12T07:50:08.000Z</time>
      </trkpt>
      <trkpt lat="43.54748" lon="6.9797">
        <ele>5.1999998092651</ele>
        <time>2014-01-12T07:50:09.000Z</time>
      </trkpt>
      <trkpt lat="43.54737" lon="6.97891">
        <ele>5</ele>
        <time>2014-01-12T07:50:18.000Z</time>
      </trkpt>
      <trkpt lat="43.54736" lon="6.97883">
        <ele>4.8000001907349</ele>
        <time>2014-01-12T07:50:19.000Z</time>
      </trkpt>
      <trkpt lat="43.54726" lon="6.97807">
        <ele>3.5999999046326</ele>
        <time>2014-01-12T07:50:28.000Z</time>
      </trkpt>
      <trkpt lat="43.54711" lon="6.9773">
        <ele>2.2000000476837</ele>
        <time>2014-01-12T07:50:37.000Z</time>
      </trkpt>
      <trkpt lat="43.54695" lon="6.97652">
        <ele>0.40000000596046</ele>
        <time>2014-01-12T07:50:46.000Z</time>
      </trkpt>
      <trkpt lat="43.54693" lon="6.97643">
        <ele>0.20000000298023</ele>
        <time>2014-01-12T07:50:47.000Z</time>
      </trkpt>
      <trkpt lat="43.54675" lon="6.97567">
        <ele>-0.40000000596046</ele>
        <time>2014-01-12T07:50:56.000Z</time>
      </trkpt>
      <trkpt lat="43.5467" lon="6.97542">
        <ele>-0.40000000596046</ele>
        <time>2014-01-12T07:50:59.000Z</time>
      </trkpt>
      <trkpt lat="43.5465" lon="6.97466">
        <ele>0.40000000596046</ele>
        <time>2014-01-12T07:51:08.000Z</time>
      </trkpt>
      <trkpt lat="43.54645" lon="6.97449">
        <ele>0.40000000596046</ele>
        <time>2014-01-12T07:51:10.000Z</time>
      </trkpt>
      <trkpt lat="43.54625" lon="6.97374">
        <ele>-0.20000000298023</ele>
        <time>2014-01-12T07:51:19.000Z</time>
      </trkpt>
      <trkpt lat="43.54623" lon="6.97365">
        <ele>-0.40000000596046</ele>
        <time>2014-01-12T07:51:20.000Z</time>
      </trkpt>
      <trkpt lat="43.54602" lon="6.97291">
        <ele>-1</ele>
        <time>2014-01-12T07:51:29.000Z</time>
      </trkpt>
      <trkpt lat="43.54598" lon="6.97275">
        <ele>-1</ele>
        <time>2014-01-12T07:51:31.000Z</time>
      </trkpt>
      <trkpt lat="43.54578" lon="6.97202">
        <ele>3</ele>
        <time>2014-01-12T07:51:40.000Z</time>
      </trkpt>
      <trkpt lat="43.54572" lon="6.97177">
        <ele>0.20000000298023</ele>
        <time>2014-01-12T07:51:43.000Z</time>
      </trkpt>
      <trkpt lat="43.54553" lon="6.97111">
        <ele>0.40000000596046</ele>
        <time>2014-01-12T07:51:51.000Z</time>
      </trkpt>
      <trkpt lat="43.54534" lon="6.97037">
        <ele>0.60000002384186</ele>
        <time>2014-01-12T07:52:00.000Z</time>
      </trkpt>
      <trkpt lat="43.5451" lon="6.96962">
        <ele>1</ele>
        <time>2014-01-12T07:52:09.000Z</time>
      </trkpt>
      <trkpt lat="43.54507" lon="6.96954">
        <ele>1</ele>
        <time>2014-01-12T07:52:10.000Z</time>
      </trkpt>
      <trkpt lat="43.54485" lon="6.96891">
        <ele>1.6000000238419</ele>
        <time>2014-01-12T07:52:18.000Z</time>
      </trkpt>
      <trkpt lat="43.54457" lon="6.96818">
        <ele>2.7999999523163</ele>
        <time>2014-01-12T07:52:27.000Z</time>
      </trkpt>
      <trkpt lat="43.54429" lon="6.96744">
        <ele>4</ele>
        <time>2014-01-12T07:52:36.000Z</time>
      </trkpt>
      <trkpt lat="43.54406" lon="6.96677">
        <ele>3.2000000476837</ele>
        <time>2014-01-12T07:52:44.000Z</time>
      </trkpt>
      <trkpt lat="43.54385" lon="6.96608">
        <ele>2.5999999046326</ele>
        <time>2014-01-12T07:52:52.000Z</time>
      </trkpt>
      <trkpt lat="43.54382" lon="6.96599">
        <ele>2.5999999046326</ele>
        <time>2014-01-12T07:52:53.000Z</time>
      </trkpt>
      <trkpt lat="43.54359" lon="6.96536">
        <ele>5</ele>
        <time>2014-01-12T07:53:01.000Z</time>
      </trkpt>
      <trkpt lat="43.54337" lon="6.96477">
        <ele>8.8000001907349</ele>
        <time>2014-01-12T07:53:09.000Z</time>
      </trkpt>
      <trkpt lat="43.54313" lon="6.96417">
        <ele>7.5999999046326</ele>
        <time>2014-01-12T07:53:17.000Z</time>
      </trkpt>
      <trkpt lat="43.54285" lon="6.96353">
        <ele>7</ele>
        <time>2014-01-12T07:53:26.000Z</time>
      </trkpt>
      <trkpt lat="43.54281" lon="6.96346">
        <ele>7.1999998092651</ele>
        <time>2014-01-12T07:53:27.000Z</time>
      </trkpt>
      <trkpt lat="43.54252" lon="6.96283">
        <ele>9.8000001907349</ele>
        <time>2014-01-12T07:53:36.000Z</time>
      </trkpt>
      <trkpt lat="43.54219" lon="6.96215">
        <ele>8.6000003814697</ele>
        <time>2014-01-12T07:53:46.000Z</time>
      </trkpt>
      <trkpt lat="43.54215" lon="6.96208">
        <ele>8.6000003814697</ele>
        <time>2014-01-12T07:53:47.000Z</time>
      </trkpt>
      <trkpt lat="43.54194" lon="6.96158">
        <ele>8</ele>
        <time>2014-01-12T07:53:54.000Z</time>
      </trkpt>
      <trkpt lat="43.54188" lon="6.96143">
        <ele>7.4000000953674</ele>
        <time>2014-01-12T07:53:56.000Z</time>
      </trkpt>
      <trkpt lat="43.54181" lon="6.96118">
        <ele>6.4000000953674</ele>
        <time>2014-01-12T07:53:59.000Z</time>
      </trkpt>
      <trkpt lat="43.54165" lon="6.96101">
        <ele>5.4000000953674</ele>
        <time>2014-01-12T07:54:02.000Z</time>
      </trkpt>
      <trkpt lat="43.54145" lon="6.96076">
        <ele>5.5999999046326</ele>
        <time>2014-01-12T07:54:06.000Z</time>
      </trkpt>
      <trkpt lat="43.54112" lon="6.96021">
        <ele>8.1999998092651</ele>
        <time>2014-01-12T07:54:14.000Z</time>
      </trkpt>
      <trkpt lat="43.54079" lon="6.95966">
        <ele>10.39999961853</ele>
        <time>2014-01-12T07:54:22.000Z</time>
      </trkpt>
      <trkpt lat="43.54041" lon="6.95906">
        <ele>10.800000190735</ele>
        <time>2014-01-12T07:54:31.000Z</time>
      </trkpt>
      <trkpt lat="43.54021" lon="6.95873">
        <ele>8.8000001907349</ele>
        <time>2014-01-12T07:54:36.000Z</time>
      </trkpt>
      <trkpt lat="43.53986" lon="6.95816">
        <ele>6.8000001907349</ele>
        <time>2014-01-12T07:54:45.000Z</time>
      </trkpt>
      <trkpt lat="43.5397" lon="6.95791">
        <ele>6.8000001907349</ele>
        <time>2014-01-12T07:54:49.000Z</time>
      </trkpt>
      <trkpt lat="43.53932" lon="6.9573">
        <ele>8.6000003814697</ele>
        <time>2014-01-12T07:54:59.000Z</time>
      </trkpt>
      <trkpt lat="43.53929" lon="6.95725">
        <ele>8.8000001907349</ele>
        <time>2014-01-12T07:55:00.000Z</time>
      </trkpt>
      <trkpt lat="43.53911" lon="6.95698">
        <ele>9</ele>
        <time>2014-01-12T07:55:05.000Z</time>
      </trkpt>
      <trkpt lat="43.5391" lon="6.95693">
        <ele>9</ele>
        <time>2014-01-12T07:55:06.000Z</time>
      </trkpt>
      <trkpt lat="43.53908" lon="6.95686">
        <ele>9</ele>
        <time>2014-01-12T07:55:08.000Z</time>
      </trkpt>
      <trkpt lat="43.53906" lon="6.95681">
        <ele>9</ele>
        <time>2014-01-12T07:55:10.000Z</time>
      </trkpt>
      <trkpt lat="43.53901" lon="6.95676">
        <ele>9.1999998092651</ele>
        <time>2014-01-12T07:55:12.000Z</time>
      </trkpt>
      <trkpt lat="43.53893" lon="6.95665">
        <ele>9.8000001907349</ele>
        <time>2014-01-12T07:55:16.000Z</time>
      </trkpt>
      <trkpt lat="43.53881" lon="6.95649">
        <ele>10.60000038147</ele>
        <time>2014-01-12T07:55:23.000Z</time>
      </trkpt>
      <trkpt lat="43.53878" lon="6.95642">
        <ele>10.800000190735</ele>
        <time>2014-01-12T07:55:29.000Z</time>
      </trkpt>
      <trkpt lat="43.53876" lon="6.95641">
        <ele>11</ele>
        <time>2014-01-12T07:55:37.000Z</time>
      </trkpt>
      <trkpt lat="43.5387" lon="6.95636">
        <ele>11.199999809265</ele>
        <time>2014-01-12T07:55:55.000Z</time>
      </trkpt>
      <trkpt lat="43.5387" lon="6.95637">
        <ele>11.39999961853</ele>
        <time>2014-01-12T07:57:28.000Z</time>
      </trkpt>
      <trkpt lat="43.53868" lon="6.95653">
        <ele>11.39999961853</ele>
        <time>2014-01-12T08:14:27.000Z</time>
      </trkpt>
      <trkpt lat="43.53866" lon="6.95647">
        <ele>11.60000038147</ele>
        <time>2014-01-12T08:14:31.000Z</time>
      </trkpt>
      <trkpt lat="43.53865" lon="6.95644">
        <ele>11.60000038147</ele>
        <time>2014-01-12T08:14:32.000Z</time>
      </trkpt>
      <trkpt lat="43.53852" lon="6.95623">
        <ele>12.39999961853</ele>
        <time>2014-01-12T08:14:40.000Z</time>
      </trkpt>
      <trkpt lat="43.53835" lon="6.95603">
        <ele>13.199999809265</ele>
        <time>2014-01-12T08:14:48.000Z</time>
      </trkpt>
      <trkpt lat="43.53823" lon="6.95583">
        <ele>13.39999961853</ele>
        <time>2014-01-12T08:14:54.000Z</time>
      </trkpt>
      <trkpt lat="43.53805" lon="6.95553">
        <ele>13</ele>
        <time>2014-01-12T08:15:02.000Z</time>
      </trkpt>
      <trkpt lat="43.53788" lon="6.95528">
        <ele>11.800000190735</ele>
        <time>2014-01-12T08:15:09.000Z</time>
      </trkpt>
      <trkpt lat="43.53764" lon="6.95493">
        <ele>9.1999998092651</ele>
        <time>2014-01-12T08:15:18.000Z</time>
      </trkpt>
      <trkpt lat="43.53745" lon="6.9547">
        <ele>8</ele>
        <time>2014-01-12T08:15:25.000Z</time>
      </trkpt>
      <trkpt lat="43.53721" lon="6.95445">
        <ele>6.5999999046326</ele>
        <time>2014-01-12T08:15:33.000Z</time>
      </trkpt>
      <trkpt lat="43.53703" lon="6.95415">
        <ele>5.1999998092651</ele>
        <time>2014-01-12T08:15:40.000Z</time>
      </trkpt>
      <trkpt lat="43.5368" lon="6.95391">
        <ele>4</ele>
        <time>2014-01-12T08:15:47.000Z</time>
      </trkpt>
      <trkpt lat="43.53654" lon="6.95363">
        <ele>3.4000000953674</ele>
        <time>2014-01-12T08:15:55.000Z</time>
      </trkpt>
      <trkpt lat="43.53622" lon="6.95326">
        <ele>2.5999999046326</ele>
        <time>2014-01-12T08:16:05.000Z</time>
      </trkpt>
      <trkpt lat="43.53594" lon="6.95291">
        <ele>3</ele>
        <time>2014-01-12T08:16:14.000Z</time>
      </trkpt>
      <trkpt lat="43.53573" lon="6.95266">
        <ele>3.7999999523163</ele>
        <time>2014-01-12T08:16:21.000Z</time>
      </trkpt>
      <trkpt lat="43.5354" lon="6.95225">
        <ele>4.4000000953674</ele>
        <time>2014-01-12T08:16:31.000Z</time>
      </trkpt>
      <trkpt lat="43.53506" lon="6.95185">
        <ele>3.5999999046326</ele>
        <time>2014-01-12T08:16:41.000Z</time>
      </trkpt>
      <trkpt lat="43.53483" lon="6.95158">
        <ele>2.5999999046326</ele>
        <time>2014-01-12T08:16:48.000Z</time>
      </trkpt>
      <trkpt lat="43.53447" lon="6.95119">
        <ele>2.4000000953674</ele>
        <time>2014-01-12T08:16:58.000Z</time>
      </trkpt>
      <trkpt lat="43.53444" lon="6.95116">
        <ele>2.4000000953674</ele>
        <time>2014-01-12T08:16:59.000Z</time>
      </trkpt>
      <trkpt lat="43.53425" lon="6.95096">
        <ele>2.5999999046326</ele>
        <time>2014-01-12T08:17:04.000Z</time>
      </trkpt>
      <trkpt lat="43.53391" lon="6.95061">
        <ele>3.5999999046326</ele>
        <time>2014-01-12T08:17:13.000Z</time>
      </trkpt>
      <trkpt lat="43.53361" lon="6.95033">
        <ele>3.5999999046326</ele>
        <time>2014-01-12T08:17:22.000Z</time>
      </trkpt>
      <trkpt lat="43.53343" lon="6.95016">
        <ele>3.2000000476837</ele>
        <time>2014-01-12T08:17:28.000Z</time>
      </trkpt>
      <trkpt lat="43.53315" lon="6.94988">
        <ele>3.4000000953674</ele>
        <time>2014-01-12T08:17:36.000Z</time>
      </trkpt>
      <trkpt lat="43.53289" lon="6.94963">
        <ele>4</ele>
        <time>2014-01-12T08:17:44.000Z</time>
      </trkpt>
      <trkpt lat="43.53258" lon="6.94936">
        <ele>4.5999999046326</ele>
        <time>2014-01-12T08:17:53.000Z</time>
      </trkpt>
      <trkpt lat="43.53225" lon="6.94908">
        <ele>4.5999999046326</ele>
        <time>2014-01-12T08:18:03.000Z</time>
      </trkpt>
      <trkpt lat="43.532" lon="6.94883">
        <ele>4.8000001907349</ele>
        <time>2014-01-12T08:18:11.000Z</time>
      </trkpt>
      <trkpt lat="43.53181" lon="6.94854">
        <ele>5</ele>
        <time>2014-01-12T08:18:18.000Z</time>
      </trkpt>
      <trkpt lat="43.53165" lon="6.9482">
        <ele>4.5999999046326</ele>
        <time>2014-01-12T08:18:26.000Z</time>
      </trkpt>
      <trkpt lat="43.53144" lon="6.94801">
        <ele>4</ele>
        <time>2014-01-12T08:18:33.000Z</time>
      </trkpt>
      <trkpt lat="43.53114" lon="6.94787">
        <ele>3.5999999046326</ele>
        <time>2014-01-12T08:18:41.000Z</time>
      </trkpt>
      <trkpt lat="43.53062" lon="6.94762">
        <ele>4.1999998092651</ele>
        <time>2014-01-12T08:18:55.000Z</time>
      </trkpt>
      <trkpt lat="43.53013" lon="6.94741">
        <ele>6.1999998092651</ele>
        <time>2014-01-12T08:19:07.000Z</time>
      </trkpt>
      <trkpt lat="43.52973" lon="6.94729">
        <ele>6.5999999046326</ele>
        <time>2014-01-12T08:19:16.000Z</time>
      </trkpt>
      <trkpt lat="43.52939" lon="6.94715">
        <ele>6.4000000953674</ele>
        <time>2014-01-12T08:19:24.000Z</time>
      </trkpt>
      <trkpt lat="43.52918" lon="6.947">
        <ele>6.4000000953674</ele>
        <time>2014-01-12T08:19:30.000Z</time>
      </trkpt>
      <trkpt lat="43.52896" lon="6.94684">
        <ele>6.1999998092651</ele>
        <time>2014-01-12T08:19:36.000Z</time>
      </trkpt>
      <trkpt lat="43.52875" lon="6.94671">
        <ele>6</ele>
        <time>2014-01-12T08:19:42.000Z</time>
      </trkpt>
      <trkpt lat="43.52841" lon="6.94649">
        <ele>5.5999999046326</ele>
        <time>2014-01-12T08:19:51.000Z</time>
      </trkpt>
      <trkpt lat="43.5282" lon="6.94635">
        <ele>4.8000001907349</ele>
        <time>2014-01-12T08:19:57.000Z</time>
      </trkpt>
      <trkpt lat="43.52782" lon="6.9461">
        <ele>3.5999999046326</ele>
        <time>2014-01-12T08:20:07.000Z</time>
      </trkpt>
      <trkpt lat="43.52765" lon="6.94594">
        <ele>3.2000000476837</ele>
        <time>2014-01-12T08:20:13.000Z</time>
      </trkpt>
      <trkpt lat="43.52751" lon="6.94583">
        <ele>3</ele>
        <time>2014-01-12T08:20:18.000Z</time>
      </trkpt>
      <trkpt lat="43.52717" lon="6.94559">
        <ele>3.2000000476837</ele>
        <time>2014-01-12T08:20:27.000Z</time>
      </trkpt>
      <trkpt lat="43.52682" lon="6.94533">
        <ele>3.5999999046326</ele>
        <time>2014-01-12T08:20:38.000Z</time>
      </trkpt>
      <trkpt lat="43.52654" lon="6.94509">
        <ele>3.7999999523163</ele>
        <time>2014-01-12T08:20:46.000Z</time>
      </trkpt>
      <trkpt lat="43.52627" lon="6.94486">
        <ele>3.7999999523163</ele>
        <time>2014-01-12T08:20:54.000Z</time>
      </trkpt>
      <trkpt lat="43.52587" lon="6.9445">
        <ele>4.8000001907349</ele>
        <time>2014-01-12T08:21:05.000Z</time>
      </trkpt>
      <trkpt lat="43.52553" lon="6.94417">
        <ele>5.5999999046326</ele>
        <time>2014-01-12T08:21:15.000Z</time>
      </trkpt>
      <trkpt lat="43.5255" lon="6.94414">
        <ele>5.5999999046326</ele>
        <time>2014-01-12T08:21:16.000Z</time>
      </trkpt>
      <trkpt lat="43.5253" lon="6.94393">
        <ele>5.5999999046326</ele>
        <time>2014-01-12T08:21:22.000Z</time>
      </trkpt>
      <trkpt lat="43.52516" lon="6.94382">
        <ele>5.8000001907349</ele>
        <time>2014-01-12T08:21:26.000Z</time>
      </trkpt>
      <trkpt lat="43.52509" lon="6.94375">
        <ele>6</ele>
        <time>2014-01-12T08:21:28.000Z</time>
      </trkpt>
      <trkpt lat="43.52492" lon="6.94354">
        <ele>6.1999998092651</ele>
        <time>2014-01-12T08:21:33.000Z</time>
      </trkpt>
      <trkpt lat="43.52489" lon="6.94352">
        <ele>6.1999998092651</ele>
        <time>2014-01-12T08:21:34.000Z</time>
      </trkpt>
      <trkpt lat="43.52482" lon="6.94346">
        <ele>6.1999998092651</ele>
        <time>2014-01-12T08:21:36.000Z</time>
      </trkpt>
      <trkpt lat="43.52476" lon="6.9434">
        <ele>6.1999998092651</ele>
        <time>2014-01-12T08:21:38.000Z</time>
      </trkpt>
      <trkpt lat="43.52449" lon="6.94313">
        <ele>6.1999998092651</ele>
        <time>2014-01-12T08:21:46.000Z</time>
      </trkpt>
      <trkpt lat="43.52443" lon="6.94304">
        <ele>6.4000000953674</ele>
        <time>2014-01-12T08:21:48.000Z</time>
      </trkpt>
      <trkpt lat="43.52431" lon="6.94284">
        <ele>7.1999998092651</ele>
        <time>2014-01-12T08:21:52.000Z</time>
      </trkpt>
      <trkpt lat="43.52428" lon="6.9428">
        <ele>7.4000000953674</ele>
        <time>2014-01-12T08:21:53.000Z</time>
      </trkpt>
      <trkpt lat="43.52412" lon="6.94251">
        <ele>9</ele>
        <time>2014-01-12T08:22:00.000Z</time>
      </trkpt>
      <trkpt lat="43.52395" lon="6.94224">
        <ele>10</ele>
        <time>2014-01-12T08:22:08.000Z</time>
      </trkpt>
      <trkpt lat="43.52383" lon="6.94199">
        <ele>11</ele>
        <time>2014-01-12T08:22:15.000Z</time>
      </trkpt>
      <trkpt lat="43.52363" lon="6.94167">
        <ele>12.60000038147</ele>
        <time>2014-01-12T08:22:25.000Z</time>
      </trkpt>
      <trkpt lat="43.52347" lon="6.94156">
        <ele>13.39999961853</ele>
        <time>2014-01-12T08:22:31.000Z</time>
      </trkpt>
      <trkpt lat="43.52323" lon="6.9415">
        <ele>13.39999961853</ele>
        <time>2014-01-12T08:22:40.000Z</time>
      </trkpt>
      <trkpt lat="43.52306" lon="6.9414">
        <ele>13.39999961853</ele>
        <time>2014-01-12T08:22:47.000Z</time>
      </trkpt>
      <trkpt lat="43.523" lon="6.94122">
        <ele>14.39999961853</ele>
        <time>2014-01-12T08:22:52.000Z</time>
      </trkpt>
      <trkpt lat="43.52294" lon="6.94094">
        <ele>16.200000762939</ele>
        <time>2014-01-12T08:22:58.000Z</time>
      </trkpt>
      <trkpt lat="43.52283" lon="6.94079">
        <ele>17.39999961853</ele>
        <time>2014-01-12T08:23:02.000Z</time>
      </trkpt>
      <trkpt lat="43.52264" lon="6.94065">
        <ele>19</ele>
        <time>2014-01-12T08:23:08.000Z</time>
      </trkpt>
      <trkpt lat="43.52237" lon="6.94048">
        <ele>19.799999237061</ele>
        <time>2014-01-12T08:23:16.000Z</time>
      </trkpt>
      <trkpt lat="43.52209" lon="6.94029">
        <ele>20</ele>
        <time>2014-01-12T08:23:24.000Z</time>
      </trkpt>
      <trkpt lat="43.52183" lon="6.94008">
        <ele>20.39999961853</ele>
        <time>2014-01-12T08:23:33.000Z</time>
      </trkpt>
      <trkpt lat="43.5217" lon="6.93994">
        <ele>21</ele>
        <time>2014-01-12T08:23:39.000Z</time>
      </trkpt>
      <trkpt lat="43.52162" lon="6.93978">
        <ele>23.60000038147</ele>
        <time>2014-01-12T08:23:44.000Z</time>
      </trkpt>
      <trkpt lat="43.52148" lon="6.9397">
        <ele>27.60000038147</ele>
        <time>2014-01-12T08:23:49.000Z</time>
      </trkpt>
      <trkpt lat="43.52134" lon="6.93977">
        <ele>29.39999961853</ele>
        <time>2014-01-12T08:23:54.000Z</time>
      </trkpt>
      <trkpt lat="43.52128" lon="6.93996">
        <ele>28.39999961853</ele>
        <time>2014-01-12T08:23:59.000Z</time>
      </trkpt>
      <trkpt lat="43.52118" lon="6.94017">
        <ele>26.60000038147</ele>
        <time>2014-01-12T08:24:05.000Z</time>
      </trkpt>
      <trkpt lat="43.52098" lon="6.94039">
        <ele>25.200000762939</ele>
        <time>2014-01-12T08:24:14.000Z</time>
      </trkpt>
      <trkpt lat="43.52076" lon="6.94052">
        <ele>24.200000762939</ele>
        <time>2014-01-12T08:24:22.000Z</time>
      </trkpt>
      <trkpt lat="43.52052" lon="6.94051">
        <ele>25</ele>
        <time>2014-01-12T08:24:30.000Z</time>
      </trkpt>
      <trkpt lat="43.52019" lon="6.9404">
        <ele>28.39999961853</ele>
        <time>2014-01-12T08:24:41.000Z</time>
      </trkpt>
      <trkpt lat="43.51991" lon="6.94033">
        <ele>30</ele>
        <time>2014-01-12T08:24:50.000Z</time>
      </trkpt>
      <trkpt lat="43.51966" lon="6.94019">
        <ele>31.60000038147</ele>
        <time>2014-01-12T08:24:59.000Z</time>
      </trkpt>
      <trkpt lat="43.51935" lon="6.94002">
        <ele>34.400001525879</ele>
        <time>2014-01-12T08:25:08.000Z</time>
      </trkpt>
      <trkpt lat="43.51912" lon="6.93991">
        <ele>34.799999237061</ele>
        <time>2014-01-12T08:25:14.000Z</time>
      </trkpt>
      <trkpt lat="43.51891" lon="6.93986">
        <ele>30.200000762939</ele>
        <time>2014-01-12T08:25:20.000Z</time>
      </trkpt>
      <trkpt lat="43.51866" lon="6.93972">
        <ele>27</ele>
        <time>2014-01-12T08:25:26.000Z</time>
      </trkpt>
      <trkpt lat="43.5185" lon="6.93941">
        <ele>29.39999961853</ele>
        <time>2014-01-12T08:25:30.000Z</time>
      </trkpt>
      <trkpt lat="43.51846" lon="6.93932">
        <ele>30.39999961853</ele>
        <time>2014-01-12T08:25:31.000Z</time>
      </trkpt>
      <trkpt lat="43.51838" lon="6.93915">
        <ele>31.60000038147</ele>
        <time>2014-01-12T08:25:33.000Z</time>
      </trkpt>
      <trkpt lat="43.51824" lon="6.93894">
        <ele>30</ele>
        <time>2014-01-12T08:25:36.000Z</time>
      </trkpt>
      <trkpt lat="43.51806" lon="6.93861">
        <ele>26.799999237061</ele>
        <time>2014-01-12T08:25:40.000Z</time>
      </trkpt>
      <trkpt lat="43.51803" lon="6.93852">
        <ele>26.39999961853</ele>
        <time>2014-01-12T08:25:41.000Z</time>
      </trkpt>
      <trkpt lat="43.51794" lon="6.938">
        <ele>25.39999961853</ele>
        <time>2014-01-12T08:25:46.000Z</time>
      </trkpt>
      <trkpt lat="43.51789" lon="6.93751">
        <ele>25.799999237061</ele>
        <time>2014-01-12T08:25:51.000Z</time>
      </trkpt>
      <trkpt lat="43.51787" lon="6.93741">
        <ele>25</ele>
        <time>2014-01-12T08:25:52.000Z</time>
      </trkpt>
      <trkpt lat="43.51776" lon="6.93699">
        <ele>21.200000762939</ele>
        <time>2014-01-12T08:25:56.000Z</time>
      </trkpt>
      <trkpt lat="43.51779" lon="6.93654">
        <ele>23.200000762939</ele>
        <time>2014-01-12T08:26:00.000Z</time>
      </trkpt>
      <trkpt lat="43.51783" lon="6.9358">
        <ele>25.799999237061</ele>
        <time>2014-01-12T08:26:07.000Z</time>
      </trkpt>
      <trkpt lat="43.51773" lon="6.93547">
        <ele>23</ele>
        <time>2014-01-12T08:26:11.000Z</time>
      </trkpt>
      <trkpt lat="43.51759" lon="6.93536">
        <ele>18.200000762939</ele>
        <time>2014-01-12T08:26:14.000Z</time>
      </trkpt>
      <trkpt lat="43.51739" lon="6.93536">
        <ele>19</ele>
        <time>2014-01-12T08:26:18.000Z</time>
      </trkpt>
      <trkpt lat="43.51723" lon="6.93548">
        <ele>23.60000038147</ele>
        <time>2014-01-12T08:26:22.000Z</time>
      </trkpt>
      <trkpt lat="43.51712" lon="6.93565">
        <ele>25.60000038147</ele>
        <time>2014-01-12T08:26:26.000Z</time>
      </trkpt>
      <trkpt lat="43.51707" lon="6.93574">
        <ele>26</ele>
        <time>2014-01-12T08:26:28.000Z</time>
      </trkpt>
      <trkpt lat="43.51689" lon="6.93615">
        <ele>26.60000038147</ele>
        <time>2014-01-12T08:26:37.000Z</time>
      </trkpt>
      <trkpt lat="43.51675" lon="6.93644">
        <ele>25.799999237061</ele>
        <time>2014-01-12T08:26:45.000Z</time>
      </trkpt>
      <trkpt lat="43.51668" lon="6.93674">
        <ele>22.799999237061</ele>
        <time>2014-01-12T08:26:52.000Z</time>
      </trkpt>
      <trkpt lat="43.51656" lon="6.93707">
        <ele>21.60000038147</ele>
        <time>2014-01-12T08:27:00.000Z</time>
      </trkpt>
      <trkpt lat="43.51638" lon="6.93733">
        <ele>20.799999237061</ele>
        <time>2014-01-12T08:27:08.000Z</time>
      </trkpt>
      <trkpt lat="43.51622" lon="6.93765">
        <ele>17.60000038147</ele>
        <time>2014-01-12T08:27:17.000Z</time>
      </trkpt>
      <trkpt lat="43.51607" lon="6.93783">
        <ele>16.39999961853</ele>
        <time>2014-01-12T08:27:22.000Z</time>
      </trkpt>
      <trkpt lat="43.51588" lon="6.93782">
        <ele>18.60000038147</ele>
        <time>2014-01-12T08:27:26.000Z</time>
      </trkpt>
      <trkpt lat="43.51566" lon="6.93768">
        <ele>19.799999237061</ele>
        <time>2014-01-12T08:27:31.000Z</time>
      </trkpt>
      <trkpt lat="43.51532" lon="6.93747">
        <ele>19.39999961853</ele>
        <time>2014-01-12T08:27:38.000Z</time>
      </trkpt>
      <trkpt lat="43.51515" lon="6.93732">
        <ele>20.200000762939</ele>
        <time>2014-01-12T08:27:41.000Z</time>
      </trkpt>
      <trkpt lat="43.5151" lon="6.93725">
        <ele>20.799999237061</ele>
        <time>2014-01-12T08:27:42.000Z</time>
      </trkpt>
      <trkpt lat="43.515" lon="6.93711">
        <ele>21.39999961853</ele>
        <time>2014-01-12T08:27:44.000Z</time>
      </trkpt>
      <trkpt lat="43.51485" lon="6.93705">
        <ele>22</ele>
        <time>2014-01-12T08:27:46.000Z</time>
      </trkpt>
      <trkpt lat="43.51471" lon="6.93703">
        <ele>21.60000038147</ele>
        <time>2014-01-12T08:27:48.000Z</time>
      </trkpt>
      <trkpt lat="43.5145" lon="6.93702">
        <ele>21</ele>
        <time>2014-01-12T08:27:51.000Z</time>
      </trkpt>
      <trkpt lat="43.51409" lon="6.937">
        <ele>20.200000762939</ele>
        <time>2014-01-12T08:27:58.000Z</time>
      </trkpt>
      <trkpt lat="43.51377" lon="6.93713">
        <ele>19.60000038147</ele>
        <time>2014-01-12T08:28:05.000Z</time>
      </trkpt>
      <trkpt lat="43.51369" lon="6.93717">
        <ele>19.200000762939</ele>
        <time>2014-01-12T08:28:07.000Z</time>
      </trkpt>
      <trkpt lat="43.51355" lon="6.93722">
        <ele>18.60000038147</ele>
        <time>2014-01-12T08:28:11.000Z</time>
      </trkpt>
      <trkpt lat="43.51347" lon="6.93726">
        <ele>18</ele>
        <time>2014-01-12T08:28:13.000Z</time>
      </trkpt>
      <trkpt lat="43.5133" lon="6.93724">
        <ele>18.799999237061</ele>
        <time>2014-01-12T08:28:17.000Z</time>
      </trkpt>
      <trkpt lat="43.51326" lon="6.93724">
        <ele>19</ele>
        <time>2014-01-12T08:28:18.000Z</time>
      </trkpt>
      <trkpt lat="43.51317" lon="6.93722">
        <ele>19.39999961853</ele>
        <time>2014-01-12T08:28:20.000Z</time>
      </trkpt>
      <trkpt lat="43.51301" lon="6.93717">
        <ele>20.799999237061</ele>
        <time>2014-01-12T08:28:24.000Z</time>
      </trkpt>
      <trkpt lat="43.51265" lon="6.93706">
        <ele>24</ele>
        <time>2014-01-12T08:28:33.000Z</time>
      </trkpt>
      <trkpt lat="43.51248" lon="6.93704">
        <ele>24.60000038147</ele>
        <time>2014-01-12T08:28:37.000Z</time>
      </trkpt>
      <trkpt lat="43.5124" lon="6.93706">
        <ele>24.60000038147</ele>
        <time>2014-01-12T08:28:39.000Z</time>
      </trkpt>
      <trkpt lat="43.51225" lon="6.93721">
        <ele>21.200000762939</ele>
        <time>2014-01-12T08:28:44.000Z</time>
      </trkpt>
      <trkpt lat="43.51222" lon="6.93726">
        <ele>20</ele>
        <time>2014-01-12T08:28:45.000Z</time>
      </trkpt>
      <trkpt lat="43.51208" lon="6.93743">
        <ele>16.39999961853</ele>
        <time>2014-01-12T08:28:49.000Z</time>
      </trkpt>
      <trkpt lat="43.51192" lon="6.93746">
        <ele>16</ele>
        <time>2014-01-12T08:28:52.000Z</time>
      </trkpt>
      <trkpt lat="43.51186" lon="6.93745">
        <ele>16.39999961853</ele>
        <time>2014-01-12T08:28:53.000Z</time>
      </trkpt>
      <trkpt lat="43.51152" lon="6.93746">
        <ele>16</ele>
        <time>2014-01-12T08:28:59.000Z</time>
      </trkpt>
      <trkpt lat="43.51134" lon="6.93741">
        <ele>15.60000038147</ele>
        <time>2014-01-12T08:29:02.000Z</time>
      </trkpt>
      <trkpt lat="43.51122" lon="6.93737">
        <ele>15.39999961853</ele>
        <time>2014-01-12T08:29:04.000Z</time>
      </trkpt>
      <trkpt lat="43.51093" lon="6.93717">
        <ele>16.39999961853</ele>
        <time>2014-01-12T08:29:09.000Z</time>
      </trkpt>
      <trkpt lat="43.51088" lon="6.93712">
        <ele>17</ele>
        <time>2014-01-12T08:29:10.000Z</time>
      </trkpt>
      <trkpt lat="43.51065" lon="6.93687">
        <ele>20.200000762939</ele>
        <time>2014-01-12T08:29:15.000Z</time>
      </trkpt>
      <trkpt lat="43.51048" lon="6.93685">
        <ele>20</ele>
        <time>2014-01-12T08:29:18.000Z</time>
      </trkpt>
      <trkpt lat="43.51032" lon="6.93689">
        <ele>18.799999237061</ele>
        <time>2014-01-12T08:29:21.000Z</time>
      </trkpt>
      <trkpt lat="43.51017" lon="6.93696">
        <ele>17</ele>
        <time>2014-01-12T08:29:24.000Z</time>
      </trkpt>
      <trkpt lat="43.50976" lon="6.93719">
        <ele>13</ele>
        <time>2014-01-12T08:29:32.000Z</time>
      </trkpt>
      <trkpt lat="43.50965" lon="6.93725">
        <ele>12.60000038147</ele>
        <time>2014-01-12T08:29:34.000Z</time>
      </trkpt>
      <trkpt lat="43.50947" lon="6.93727">
        <ele>13.800000190735</ele>
        <time>2014-01-12T08:29:37.000Z</time>
      </trkpt>
      <trkpt lat="43.50941" lon="6.93726">
        <ele>14.39999961853</ele>
        <time>2014-01-12T08:29:38.000Z</time>
      </trkpt>
      <trkpt lat="43.50924" lon="6.93728">
        <ele>15.60000038147</ele>
        <time>2014-01-12T08:29:41.000Z</time>
      </trkpt>
      <trkpt lat="43.50919" lon="6.9373">
        <ele>15.39999961853</ele>
        <time>2014-01-12T08:29:42.000Z</time>
      </trkpt>
      <trkpt lat="43.5088" lon="6.93754">
        <ele>12.39999961853</ele>
        <time>2014-01-12T08:29:50.000Z</time>
      </trkpt>
      <trkpt lat="43.50838" lon="6.93782">
        <ele>12.60000038147</ele>
        <time>2014-01-12T08:29:59.000Z</time>
      </trkpt>
      <trkpt lat="43.50826" lon="6.93793">
        <ele>13.60000038147</ele>
        <time>2014-01-12T08:30:02.000Z</time>
      </trkpt>
      <trkpt lat="43.50821" lon="6.93803">
        <ele>14</ele>
        <time>2014-01-12T08:30:04.000Z</time>
      </trkpt>
      <trkpt lat="43.50815" lon="6.93827">
        <ele>14.199999809265</ele>
        <time>2014-01-12T08:30:08.000Z</time>
      </trkpt>
      <trkpt lat="43.50814" lon="6.93833">
        <ele>14</ele>
        <time>2014-01-12T08:30:09.000Z</time>
      </trkpt>
      <trkpt lat="43.50805" lon="6.93871">
        <ele>15.199999809265</ele>
        <time>2014-01-12T08:30:16.000Z</time>
      </trkpt>
      <trkpt lat="43.50792" lon="6.93911">
        <ele>17.200000762939</ele>
        <time>2014-01-12T08:30:24.000Z</time>
      </trkpt>
      <trkpt lat="43.5079" lon="6.93916">
        <ele>17.39999961853</ele>
        <time>2014-01-12T08:30:25.000Z</time>
      </trkpt>
      <trkpt lat="43.50782" lon="6.93956">
        <ele>15.60000038147</ele>
        <time>2014-01-12T08:30:32.000Z</time>
      </trkpt>
      <trkpt lat="43.50776" lon="6.94014">
        <ele>12</ele>
        <time>2014-01-12T08:30:40.000Z</time>
      </trkpt>
      <trkpt lat="43.5077" lon="6.94064">
        <ele>11.199999809265</ele>
        <time>2014-01-12T08:30:46.000Z</time>
      </trkpt>
      <trkpt lat="43.50763" lon="6.94117">
        <ele>8.6000003814697</ele>
        <time>2014-01-12T08:30:52.000Z</time>
      </trkpt>
      <trkpt lat="43.50759" lon="6.94154">
        <ele>6.1999998092651</ele>
        <time>2014-01-12T08:30:56.000Z</time>
      </trkpt>
      <trkpt lat="43.50756" lon="6.94161">
        <ele>5.5999999046326</ele>
        <time>2014-01-12T08:30:57.000Z</time>
      </trkpt>
      <trkpt lat="43.50741" lon="6.94181">
        <ele>4.8000001907349</ele>
        <time>2014-01-12T08:31:00.000Z</time>
      </trkpt>
      <trkpt lat="43.50727" lon="6.94177">
        <ele>6.1999998092651</ele>
        <time>2014-01-12T08:31:03.000Z</time>
      </trkpt>
      <trkpt lat="43.50719" lon="6.94165">
        <ele>7</ele>
        <time>2014-01-12T08:31:05.000Z</time>
      </trkpt>
      <trkpt lat="43.50715" lon="6.94159">
        <ele>7.4000000953674</ele>
        <time>2014-01-12T08:31:06.000Z</time>
      </trkpt>
      <trkpt lat="43.50703" lon="6.94135">
        <ele>8.3999996185303</ele>
        <time>2014-01-12T08:31:11.000Z</time>
      </trkpt>
      <trkpt lat="43.507" lon="6.94131">
        <ele>8.6000003814697</ele>
        <time>2014-01-12T08:31:12.000Z</time>
      </trkpt>
      <trkpt lat="43.50691" lon="6.94117">
        <ele>8.8000001907349</ele>
        <time>2014-01-12T08:31:15.000Z</time>
      </trkpt>
      <trkpt lat="43.50683" lon="6.94103">
        <ele>8.6000003814697</ele>
        <time>2014-01-12T08:31:18.000Z</time>
      </trkpt>
      <trkpt lat="43.50666" lon="6.94074">
        <ele>8.3999996185303</ele>
        <time>2014-01-12T08:31:25.000Z</time>
      </trkpt>
      <trkpt lat="43.50651" lon="6.94048">
        <ele>11</ele>
        <time>2014-01-12T08:31:32.000Z</time>
      </trkpt>
      <trkpt lat="43.50637" lon="6.94028">
        <ele>11.800000190735</ele>
        <time>2014-01-12T08:31:38.000Z</time>
      </trkpt>
      <trkpt lat="43.50628" lon="6.94017">
        <ele>11.800000190735</ele>
        <time>2014-01-12T08:31:44.000Z</time>
      </trkpt>
      <trkpt lat="43.50621" lon="6.93998">
        <ele>10.60000038147</ele>
        <time>2014-01-12T08:31:49.000Z</time>
      </trkpt>
      <trkpt lat="43.50618" lon="6.9399">
        <ele>11</ele>
        <time>2014-01-12T08:31:51.000Z</time>
      </trkpt>
      <trkpt lat="43.50611" lon="6.93986">
        <ele>11.199999809265</ele>
        <time>2014-01-12T08:31:53.000Z</time>
      </trkpt>
      <trkpt lat="43.50595" lon="6.93976">
        <ele>11.199999809265</ele>
        <time>2014-01-12T08:31:58.000Z</time>
      </trkpt>
      <trkpt lat="43.50578" lon="6.93952">
        <ele>12</ele>
        <time>2014-01-12T08:32:05.000Z</time>
      </trkpt>
      <trkpt lat="43.50556" lon="6.93923">
        <ele>13.60000038147</ele>
        <time>2014-01-12T08:32:14.000Z</time>
      </trkpt>
      <trkpt lat="43.50536" lon="6.93908">
        <ele>15.199999809265</ele>
        <time>2014-01-12T08:32:21.000Z</time>
      </trkpt>
      <trkpt lat="43.50513" lon="6.93891">
        <ele>17.39999961853</ele>
        <time>2014-01-12T08:32:28.000Z</time>
      </trkpt>
      <trkpt lat="43.50485" lon="6.93871">
        <ele>20.799999237061</ele>
        <time>2014-01-12T08:32:36.000Z</time>
      </trkpt>
      <trkpt lat="43.50464" lon="6.93858">
        <ele>23.799999237061</ele>
        <time>2014-01-12T08:32:43.000Z</time>
      </trkpt>
      <trkpt lat="43.50445" lon="6.93842">
        <ele>25.200000762939</ele>
        <time>2014-01-12T08:32:50.000Z</time>
      </trkpt>
      <trkpt lat="43.50438" lon="6.93833">
        <ele>25</ele>
        <time>2014-01-12T08:32:54.000Z</time>
      </trkpt>
      <trkpt lat="43.50438" lon="6.93834">
        <ele>25</ele>
        <time>2014-01-12T08:32:55.000Z</time>
      </trkpt>
      <trkpt lat="43.50436" lon="6.9383">
        <ele>25.39999961853</ele>
        <time>2014-01-12T08:32:57.000Z</time>
      </trkpt>
      <trkpt lat="43.50435" lon="6.93829">
        <ele>25.60000038147</ele>
        <time>2014-01-12T08:32:58.000Z</time>
      </trkpt>
      <trkpt lat="43.50423" lon="6.93819">
        <ele>27</ele>
        <time>2014-01-12T08:33:30.000Z</time>
      </trkpt>
      <trkpt lat="43.50415" lon="6.93803">
        <ele>28.39999961853</ele>
        <time>2014-01-12T08:33:35.000Z</time>
      </trkpt>
      <trkpt lat="43.50408" lon="6.93786">
        <ele>30.200000762939</ele>
        <time>2014-01-12T08:33:41.000Z</time>
      </trkpt>
      <trkpt lat="43.50409" lon="6.93778">
        <ele>29.799999237061</ele>
        <time>2014-01-12T08:33:44.000Z</time>
      </trkpt>
      <trkpt lat="43.50403" lon="6.93769">
        <ele>30.799999237061</ele>
        <time>2014-01-12T08:33:48.000Z</time>
      </trkpt>
      <trkpt lat="43.50396" lon="6.93762">
        <ele>31.799999237061</ele>
        <time>2014-01-12T08:33:55.000Z</time>
      </trkpt>
      <trkpt lat="43.50393" lon="6.93761">
        <ele>32.200000762939</ele>
        <time>2014-01-12T08:34:50.000Z</time>
      </trkpt>
      <trkpt lat="43.50394" lon="6.93761">
        <ele>32.200000762939</ele>
        <time>2014-01-12T08:34:51.000Z</time>
      </trkpt>
      <trkpt lat="43.504" lon="6.93769">
        <ele>31.39999961853</ele>
        <time>2014-01-12T08:34:56.000Z</time>
      </trkpt>
      <trkpt lat="43.50403" lon="6.93785">
        <ele>31.200000762939</ele>
        <time>2014-01-12T08:35:00.000Z</time>
      </trkpt>
      <trkpt lat="43.50409" lon="6.93794">
        <ele>30</ele>
        <time>2014-01-12T08:35:03.000Z</time>
      </trkpt>
      <trkpt lat="43.50412" lon="6.93798">
        <ele>29</ele>
        <time>2014-01-12T08:35:04.000Z</time>
      </trkpt>
      <trkpt lat="43.50423" lon="6.93814">
        <ele>27.200000762939</ele>
        <time>2014-01-12T08:35:08.000Z</time>
      </trkpt>
      <trkpt lat="43.50442" lon="6.93838">
        <ele>25.200000762939</ele>
        <time>2014-01-12T08:35:14.000Z</time>
      </trkpt>
      <trkpt lat="43.5045" lon="6.93845">
        <ele>24.799999237061</ele>
        <time>2014-01-12T08:35:16.000Z</time>
      </trkpt>
      <trkpt lat="43.50473" lon="6.93861">
        <ele>22.60000038147</ele>
        <time>2014-01-12T08:35:20.000Z</time>
      </trkpt>
      <trkpt lat="43.50504" lon="6.93882">
        <ele>17.799999237061</ele>
        <time>2014-01-12T08:35:26.000Z</time>
      </trkpt>
      <trkpt lat="43.5052" lon="6.93892">
        <ele>17.200000762939</ele>
        <time>2014-01-12T08:35:30.000Z</time>
      </trkpt>
      <trkpt lat="43.50549" lon="6.93912">
        <ele>14</ele>
        <time>2014-01-12T08:35:37.000Z</time>
      </trkpt>
      <trkpt lat="43.50554" lon="6.93916">
        <ele>13.199999809265</ele>
        <time>2014-01-12T08:35:38.000Z</time>
      </trkpt>
      <trkpt lat="43.50568" lon="6.93937">
        <ele>12.800000190735</ele>
        <time>2014-01-12T08:35:42.000Z</time>
      </trkpt>
      <trkpt lat="43.50588" lon="6.93964">
        <ele>11.199999809265</ele>
        <time>2014-01-12T08:35:47.000Z</time>
      </trkpt>
      <trkpt lat="43.50593" lon="6.93969">
        <ele>11.39999961853</ele>
        <time>2014-01-12T08:35:48.000Z</time>
      </trkpt>
      <trkpt lat="43.506" lon="6.93979">
        <ele>11.199999809265</ele>
        <time>2014-01-12T08:35:50.000Z</time>
      </trkpt>
      <trkpt lat="43.50602" lon="6.93994">
        <ele>11</ele>
        <time>2014-01-12T08:35:52.000Z</time>
      </trkpt>
      <trkpt lat="43.50614" lon="6.94004">
        <ele>11</ele>
        <time>2014-01-12T08:35:55.000Z</time>
      </trkpt>
      <trkpt lat="43.50618" lon="6.94006">
        <ele>11.199999809265</ele>
        <time>2014-01-12T08:35:56.000Z</time>
      </trkpt>
      <trkpt lat="43.50621" lon="6.9401">
        <ele>11.39999961853</ele>
        <time>2014-01-12T08:35:57.000Z</time>
      </trkpt>
      <trkpt lat="43.50625" lon="6.94017">
        <ele>11.800000190735</ele>
        <time>2014-01-12T08:35:59.000Z</time>
      </trkpt>
      <trkpt lat="43.50627" lon="6.94019">
        <ele>12</ele>
        <time>2014-01-12T08:36:00.000Z</time>
      </trkpt>
      <trkpt lat="43.5063" lon="6.94023">
        <ele>12.199999809265</ele>
        <time>2014-01-12T08:36:03.000Z</time>
      </trkpt>
      <trkpt lat="43.50631" lon="6.94026">
        <ele>12.199999809265</ele>
        <time>2014-01-12T08:36:05.000Z</time>
      </trkpt>
      <trkpt lat="43.50632" lon="6.94027">
        <ele>12.199999809265</ele>
        <time>2014-01-12T08:36:08.000Z</time>
      </trkpt>
      <trkpt lat="43.50632" lon="6.94026">
        <ele>12.199999809265</ele>
        <time>2014-01-12T08:36:17.000Z</time>
      </trkpt>
      <trkpt lat="43.50633" lon="6.94031">
        <ele>12.39999961853</ele>
        <time>2014-01-12T08:36:29.000Z</time>
      </trkpt>
      <trkpt lat="43.5063" lon="6.94028">
        <ele>12.39999961853</ele>
        <time>2014-01-12T08:37:17.000Z</time>
      </trkpt>
      <trkpt lat="43.50633" lon="6.94025">
        <ele>12</ele>
        <time>2014-01-12T08:38:58.000Z</time>
      </trkpt>
      <trkpt lat="43.50627" lon="6.94016">
        <ele>11.800000190735</ele>
        <time>2014-01-12T08:39:04.000Z</time>
      </trkpt>
      <trkpt lat="43.5062" lon="6.93998">
        <ele>10.60000038147</ele>
        <time>2014-01-12T08:39:10.000Z</time>
      </trkpt>
      <trkpt lat="43.50613" lon="6.93986">
        <ele>11.199999809265</ele>
        <time>2014-01-12T08:39:15.000Z</time>
      </trkpt>
      <trkpt lat="43.50601" lon="6.93981">
        <ele>11.199999809265</ele>
        <time>2014-01-12T08:39:21.000Z</time>
      </trkpt>
      <trkpt lat="43.50588" lon="6.93971">
        <ele>11.199999809265</ele>
        <time>2014-01-12T08:39:29.000Z</time>
      </trkpt>
      <trkpt lat="43.50581" lon="6.93958">
        <ele>11.39999961853</ele>
        <time>2014-01-12T08:39:35.000Z</time>
      </trkpt>
      <trkpt lat="43.50571" lon="6.93947">
        <ele>13</ele>
        <time>2014-01-12T08:39:40.000Z</time>
      </trkpt>
      <trkpt lat="43.50557" lon="6.93927">
        <ele>13.60000038147</ele>
        <time>2014-01-12T08:39:46.000Z</time>
      </trkpt>
      <trkpt lat="43.50545" lon="6.93915">
        <ele>14</ele>
        <time>2014-01-12T08:39:51.000Z</time>
      </trkpt>
      <trkpt lat="43.50524" lon="6.93899">
        <ele>16.60000038147</ele>
        <time>2014-01-12T08:39:58.000Z</time>
      </trkpt>
      <trkpt lat="43.50502" lon="6.93879">
        <ele>18</ele>
        <time>2014-01-12T08:40:05.000Z</time>
      </trkpt>
      <trkpt lat="43.5048" lon="6.93862">
        <ele>21.60000038147</ele>
        <time>2014-01-12T08:40:11.000Z</time>
      </trkpt>
      <trkpt lat="43.50473" lon="6.93857">
        <ele>22.60000038147</ele>
        <time>2014-01-12T08:40:13.000Z</time>
      </trkpt>
      <trkpt lat="43.50463" lon="6.9385">
        <ele>23.60000038147</ele>
        <time>2014-01-12T08:40:16.000Z</time>
      </trkpt>
      <trkpt lat="43.50437" lon="6.93829">
        <ele>25.39999961853</ele>
        <time>2014-01-12T08:40:24.000Z</time>
      </trkpt>
      <trkpt lat="43.50423" lon="6.93808">
        <ele>27.39999961853</ele>
        <time>2014-01-12T08:40:30.000Z</time>
      </trkpt>
      <trkpt lat="43.50412" lon="6.9379">
        <ele>29.200000762939</ele>
        <time>2014-01-12T08:40:37.000Z</time>
      </trkpt>
      <trkpt lat="43.50409" lon="6.93786">
        <ele>29.799999237061</ele>
        <time>2014-01-12T08:40:39.000Z</time>
      </trkpt>
      <trkpt lat="43.50411" lon="6.93781">
        <ele>29.60000038147</ele>
        <time>2014-01-12T08:40:41.000Z</time>
      </trkpt>
      <trkpt lat="43.50405" lon="6.93771">
        <ele>30.60000038147</ele>
        <time>2014-01-12T08:40:46.000Z</time>
      </trkpt>
      <trkpt lat="43.50392" lon="6.93756">
        <ele>32</ele>
        <time>2014-01-12T08:40:55.000Z</time>
      </trkpt>
      <trkpt lat="43.5038" lon="6.93746">
        <ele>33.599998474121</ele>
        <time>2014-01-12T08:41:02.000Z</time>
      </trkpt>
      <trkpt lat="43.5037" lon="6.9374">
        <ele>35.200000762939</ele>
        <time>2014-01-12T08:41:08.000Z</time>
      </trkpt>
      <trkpt lat="43.50362" lon="6.93739">
        <ele>35.799999237061</ele>
        <time>2014-01-12T08:41:14.000Z</time>
      </trkpt>
      <trkpt lat="43.50362" lon="6.93739">
        <ele>35.799999237061</ele>
        <time>2014-01-12T08:41:15.000Z</time>
      </trkpt>
      <trkpt lat="43.50358" lon="6.93737">
        <ele>36.200000762939</ele>
        <time>2014-01-12T08:41:20.000Z</time>
      </trkpt>
      <trkpt lat="43.50359" lon="6.93737">
        <ele>36.200000762939</ele>
        <time>2014-01-12T08:41:23.000Z</time>
      </trkpt>
      <trkpt lat="43.5036" lon="6.93738">
        <ele>36.200000762939</ele>
        <time>2014-01-12T08:41:24.000Z</time>
      </trkpt>
      <trkpt lat="43.50361" lon="6.93741">
        <ele>35.799999237061</ele>
        <time>2014-01-12T08:41:28.000Z</time>
      </trkpt>
      <trkpt lat="43.50358" lon="6.93741">
        <ele>36</ele>
        <time>2014-01-12T08:41:32.000Z</time>
      </trkpt>
      <trkpt lat="43.50357" lon="6.93732">
        <ele>36.799999237061</ele>
        <time>2014-01-12T08:46:54.000Z</time>
      </trkpt>
      <trkpt lat="43.50356" lon="6.93732">
        <ele>36.799999237061</ele>
        <time>2014-01-12T08:51:18.000Z</time>
      </trkpt>
      <trkpt lat="43.50353" lon="6.93729">
        <ele>37.200000762939</ele>
        <time>2014-01-12T08:51:20.000Z</time>
      </trkpt>
      <trkpt lat="43.50346" lon="6.93734">
        <ele>37.200000762939</ele>
        <time>2014-01-12T08:51:25.000Z</time>
      </trkpt>
      <trkpt lat="43.50337" lon="6.93736">
        <ele>37.799999237061</ele>
        <time>2014-01-12T08:51:30.000Z</time>
      </trkpt>
      <trkpt lat="43.50332" lon="6.93733">
        <ele>38.200000762939</ele>
        <time>2014-01-12T08:51:33.000Z</time>
      </trkpt>
      <trkpt lat="43.50328" lon="6.9373">
        <ele>38.599998474121</ele>
        <time>2014-01-12T08:51:35.000Z</time>
      </trkpt>
      <trkpt lat="43.5032" lon="6.93723">
        <ele>39.599998474121</ele>
        <time>2014-01-12T08:51:41.000Z</time>
      </trkpt>
      <trkpt lat="43.50313" lon="6.93714">
        <ele>40.400001525879</ele>
        <time>2014-01-12T08:51:46.000Z</time>
      </trkpt>
      <trkpt lat="43.50307" lon="6.93711">
        <ele>41</ele>
        <time>2014-01-12T08:51:50.000Z</time>
      </trkpt>
      <trkpt lat="43.50305" lon="6.93709">
        <ele>41.400001525879</ele>
        <time>2014-01-12T08:51:52.000Z</time>
      </trkpt>
      <trkpt lat="43.50294" lon="6.93703">
        <ele>42.799999237061</ele>
        <time>2014-01-12T08:52:00.000Z</time>
      </trkpt>
      <trkpt lat="43.5028" lon="6.93707">
        <ele>44.400001525879</ele>
        <time>2014-01-12T08:52:06.000Z</time>
      </trkpt>
      <trkpt lat="43.50261" lon="6.93716">
        <ele>46.400001525879</ele>
        <time>2014-01-12T08:52:10.000Z</time>
      </trkpt>
      <trkpt lat="43.50238" lon="6.93726">
        <ele>47.799999237061</ele>
        <time>2014-01-12T08:52:15.000Z</time>
      </trkpt>
      <trkpt lat="43.50224" lon="6.93736">
        <ele>47.799999237061</ele>
        <time>2014-01-12T08:52:21.000Z</time>
      </trkpt>
      <trkpt lat="43.50213" lon="6.93741">
        <ele>47.799999237061</ele>
        <time>2014-01-12T08:52:28.000Z</time>
      </trkpt>
      <trkpt lat="43.50208" lon="6.93744">
        <ele>47.799999237061</ele>
        <time>2014-01-12T08:52:31.000Z</time>
      </trkpt>
      <trkpt lat="43.50204" lon="6.93746">
        <ele>47.799999237061</ele>
        <time>2014-01-12T08:52:33.000Z</time>
      </trkpt>
      <trkpt lat="43.50195" lon="6.93746">
        <ele>47.799999237061</ele>
        <time>2014-01-12T08:52:37.000Z</time>
      </trkpt>
      <trkpt lat="43.50189" lon="6.93746">
        <ele>48</ele>
        <time>2014-01-12T08:52:39.000Z</time>
      </trkpt>
      <trkpt lat="43.50184" lon="6.93748">
        <ele>47.799999237061</ele>
        <time>2014-01-12T08:52:42.000Z</time>
      </trkpt>
      <trkpt lat="43.50183" lon="6.93749">
        <ele>47.799999237061</ele>
        <time>2014-01-12T08:52:43.000Z</time>
      </trkpt>
      <trkpt lat="43.50174" lon="6.93757">
        <ele>50.400001525879</ele>
        <time>2014-01-12T08:52:49.000Z</time>
      </trkpt>
      <trkpt lat="43.50164" lon="6.93757">
        <ele>50.599998474121</ele>
        <time>2014-01-12T08:52:55.000Z</time>
      </trkpt>
      <trkpt lat="43.50161" lon="6.93755">
        <ele>49.599998474121</ele>
        <time>2014-01-12T08:52:56.000Z</time>
      </trkpt>
      <trkpt lat="43.50152" lon="6.93751">
        <ele>48.400001525879</ele>
        <time>2014-01-12T08:53:00.000Z</time>
      </trkpt>
      <trkpt lat="43.50139" lon="6.93745">
        <ele>48.200000762939</ele>
        <time>2014-01-12T08:53:06.000Z</time>
      </trkpt>
      <trkpt lat="43.5013" lon="6.93737">
        <ele>48.400001525879</ele>
        <time>2014-01-12T08:53:10.000Z</time>
      </trkpt>
      <trkpt lat="43.50128" lon="6.93736">
        <ele>48.400001525879</ele>
        <time>2014-01-12T08:53:11.000Z</time>
      </trkpt>
      <trkpt lat="43.50119" lon="6.93733">
        <ele>48.200000762939</ele>
        <time>2014-01-12T08:53:17.000Z</time>
      </trkpt>
      <trkpt lat="43.50109" lon="6.93728">
        <ele>48</ele>
        <time>2014-01-12T08:53:24.000Z</time>
      </trkpt>
      <trkpt lat="43.50107" lon="6.93728">
        <ele>47.799999237061</ele>
        <time>2014-01-12T08:53:25.000Z</time>
      </trkpt>
      <trkpt lat="43.50096" lon="6.93723">
        <ele>47.400001525879</ele>
        <time>2014-01-12T08:53:30.000Z</time>
      </trkpt>
      <trkpt lat="43.50079" lon="6.93714">
        <ele>46.799999237061</ele>
        <time>2014-01-12T08:53:36.000Z</time>
      </trkpt>
      <trkpt lat="43.50068" lon="6.93717">
        <ele>47.200000762939</ele>
        <time>2014-01-12T08:53:42.000Z</time>
      </trkpt>
      <trkpt lat="43.50048" lon="6.93716">
        <ele>47.400001525879</ele>
        <time>2014-01-12T08:53:51.000Z</time>
      </trkpt>
      <trkpt lat="43.50035" lon="6.93718">
        <ele>48</ele>
        <time>2014-01-12T08:53:58.000Z</time>
      </trkpt>
      <trkpt lat="43.5002" lon="6.93713">
        <ele>47.599998474121</ele>
        <time>2014-01-12T08:54:06.000Z</time>
      </trkpt>
      <trkpt lat="43.50005" lon="6.93705">
        <ele>46.400001525879</ele>
        <time>2014-01-12T08:54:14.000Z</time>
      </trkpt>
      <trkpt lat="43.49989" lon="6.93695">
        <ele>45.599998474121</ele>
        <time>2014-01-12T08:54:23.000Z</time>
      </trkpt>
      <trkpt lat="43.49979" lon="6.93686">
        <ele>45</ele>
        <time>2014-01-12T08:54:31.000Z</time>
      </trkpt>
      <trkpt lat="43.49967" lon="6.93683">
        <ele>45.400001525879</ele>
        <time>2014-01-12T08:54:39.000Z</time>
      </trkpt>
      <trkpt lat="43.49953" lon="6.93677">
        <ele>45.400001525879</ele>
        <time>2014-01-12T08:54:48.000Z</time>
      </trkpt>
      <trkpt lat="43.49943" lon="6.93673">
        <ele>45.200000762939</ele>
        <time>2014-01-12T08:54:55.000Z</time>
      </trkpt>
      <trkpt lat="43.49929" lon="6.93666">
        <ele>45</ele>
        <time>2014-01-12T08:55:04.000Z</time>
      </trkpt>
      <trkpt lat="43.4992" lon="6.93664">
        <ele>45.799999237061</ele>
        <time>2014-01-12T08:55:10.000Z</time>
      </trkpt>
      <trkpt lat="43.49908" lon="6.93669">
        <ele>47.599998474121</ele>
        <time>2014-01-12T08:55:18.000Z</time>
      </trkpt>
      <trkpt lat="43.49898" lon="6.93675">
        <ele>50.400001525879</ele>
        <time>2014-01-12T08:55:24.000Z</time>
      </trkpt>
      <trkpt lat="43.49885" lon="6.93676">
        <ele>52.200000762939</ele>
        <time>2014-01-12T08:55:31.000Z</time>
      </trkpt>
      <trkpt lat="43.49879" lon="6.93666">
        <ele>50.400001525879</ele>
        <time>2014-01-12T08:55:36.000Z</time>
      </trkpt>
      <trkpt lat="43.49875" lon="6.93662">
        <ele>50.799999237061</ele>
        <time>2014-01-12T08:55:39.000Z</time>
      </trkpt>
      <trkpt lat="43.4987" lon="6.93662">
        <ele>51.400001525879</ele>
        <time>2014-01-12T08:55:42.000Z</time>
      </trkpt>
      <trkpt lat="43.49866" lon="6.93662">
        <ele>51.799999237061</ele>
        <time>2014-01-12T08:55:44.000Z</time>
      </trkpt>
      <trkpt lat="43.49856" lon="6.93663">
        <ele>53</ele>
        <time>2014-01-12T08:55:51.000Z</time>
      </trkpt>
      <trkpt lat="43.49843" lon="6.9366">
        <ele>54.200000762939</ele>
        <time>2014-01-12T08:56:00.000Z</time>
      </trkpt>
      <trkpt lat="43.49833" lon="6.93653">
        <ele>54.599998474121</ele>
        <time>2014-01-12T08:56:08.000Z</time>
      </trkpt>
      <trkpt lat="43.49822" lon="6.93645">
        <ele>56.400001525879</ele>
        <time>2014-01-12T08:56:17.000Z</time>
      </trkpt>
      <trkpt lat="43.49811" lon="6.93636">
        <ele>57.599998474121</ele>
        <time>2014-01-12T08:56:25.000Z</time>
      </trkpt>
      <trkpt lat="43.498" lon="6.93632">
        <ele>59.599998474121</ele>
        <time>2014-01-12T08:56:32.000Z</time>
      </trkpt>
      <trkpt lat="43.49785" lon="6.93629">
        <ele>62.400001525879</ele>
        <time>2014-01-12T08:56:41.000Z</time>
      </trkpt>
      <trkpt lat="43.49776" lon="6.93618">
        <ele>62.200000762939</ele>
        <time>2014-01-12T08:56:48.000Z</time>
      </trkpt>
      <trkpt lat="43.49766" lon="6.93607">
        <ele>61.599998474121</ele>
        <time>2014-01-12T08:56:55.000Z</time>
      </trkpt>
      <trkpt lat="43.49757" lon="6.93591">
        <ele>59.599998474121</ele>
        <time>2014-01-12T08:57:03.000Z</time>
      </trkpt>
      <trkpt lat="43.49743" lon="6.93573">
        <ele>59.799999237061</ele>
        <time>2014-01-12T08:57:12.000Z</time>
      </trkpt>
      <trkpt lat="43.49729" lon="6.93568">
        <ele>61</ele>
        <time>2014-01-12T08:57:19.000Z</time>
      </trkpt>
      <trkpt lat="43.4971" lon="6.93567">
        <ele>62.799999237061</ele>
        <time>2014-01-12T08:57:28.000Z</time>
      </trkpt>
      <trkpt lat="43.49698" lon="6.93574">
        <ele>63.599998474121</ele>
        <time>2014-01-12T08:57:34.000Z</time>
      </trkpt>
      <trkpt lat="43.49686" lon="6.93588">
        <ele>65.199996948242</ele>
        <time>2014-01-12T08:57:42.000Z</time>
      </trkpt>
      <trkpt lat="43.49675" lon="6.93605">
        <ele>68.400001525879</ele>
        <time>2014-01-12T08:57:50.000Z</time>
      </trkpt>
      <trkpt lat="43.49665" lon="6.93625">
        <ele>71.800003051758</ele>
        <time>2014-01-12T08:57:58.000Z</time>
      </trkpt>
      <trkpt lat="43.4965" lon="6.93648">
        <ele>75.599998474121</ele>
        <time>2014-01-12T08:58:07.000Z</time>
      </trkpt>
      <trkpt lat="43.49639" lon="6.9366">
        <ele>76.800003051758</ele>
        <time>2014-01-12T08:58:13.000Z</time>
      </trkpt>
      <trkpt lat="43.4962" lon="6.93669">
        <ele>77.400001525879</ele>
        <time>2014-01-12T08:58:21.000Z</time>
      </trkpt>
      <trkpt lat="43.49616" lon="6.93664">
        <ele>77.199996948242</ele>
        <time>2014-01-12T08:58:23.000Z</time>
      </trkpt>
      <trkpt lat="43.49616" lon="6.93662">
        <ele>77.199996948242</ele>
        <time>2014-01-12T08:58:24.000Z</time>
      </trkpt>
      <trkpt lat="43.49619" lon="6.93654">
        <ele>77.400001525879</ele>
        <time>2014-01-12T08:58:28.000Z</time>
      </trkpt>
      <trkpt lat="43.4962" lon="6.93651">
        <ele>77.400001525879</ele>
        <time>2014-01-12T08:58:29.000Z</time>
      </trkpt>
      <trkpt lat="43.49627" lon="6.9363">
        <ele>77.199996948242</ele>
        <time>2014-01-12T08:58:36.000Z</time>
      </trkpt>
      <trkpt lat="43.49632" lon="6.93612">
        <ele>76.400001525879</ele>
        <time>2014-01-12T08:58:42.000Z</time>
      </trkpt>
      <trkpt lat="43.49636" lon="6.93595">
        <ele>75.199996948242</ele>
        <time>2014-01-12T08:58:50.000Z</time>
      </trkpt>
      <trkpt lat="43.49641" lon="6.93574">
        <ele>74.400001525879</ele>
        <time>2014-01-12T08:58:59.000Z</time>
      </trkpt>
      <trkpt lat="43.49649" lon="6.9355">
        <ele>73.800003051758</ele>
        <time>2014-01-12T08:59:09.000Z</time>
      </trkpt>
      <trkpt lat="43.49656" lon="6.93528">
        <ele>72.400001525879</ele>
        <time>2014-01-12T08:59:18.000Z</time>
      </trkpt>
      <trkpt lat="43.49665" lon="6.93501">
        <ele>69.800003051758</ele>
        <time>2014-01-12T08:59:29.000Z</time>
      </trkpt>
      <trkpt lat="43.49664" lon="6.93483">
        <ele>70.199996948242</ele>
        <time>2014-01-12T08:59:36.000Z</time>
      </trkpt>
      <trkpt lat="43.49658" lon="6.93459">
        <ele>72.400001525879</ele>
        <time>2014-01-12T08:59:45.000Z</time>
      </trkpt>
      <trkpt lat="43.49651" lon="6.93438">
        <ele>75.199996948242</ele>
        <time>2014-01-12T08:59:53.000Z</time>
      </trkpt>
      <trkpt lat="43.49644" lon="6.93423">
        <ele>77.599998474121</ele>
        <time>2014-01-12T09:00:00.000Z</time>
      </trkpt>
      <trkpt lat="43.49632" lon="6.93402">
        <ele>82</ele>
        <time>2014-01-12T09:00:10.000Z</time>
      </trkpt>
      <trkpt lat="43.49622" lon="6.93391">
        <ele>86</ele>
        <time>2014-01-12T09:00:17.000Z</time>
      </trkpt>
      <trkpt lat="43.49607" lon="6.93383">
        <ele>91</ele>
        <time>2014-01-12T09:00:25.000Z</time>
      </trkpt>
      <trkpt lat="43.49596" lon="6.93376">
        <ele>94.800003051758</ele>
        <time>2014-01-12T09:00:32.000Z</time>
      </trkpt>
      <trkpt lat="43.49583" lon="6.93373">
        <ele>99.400001525879</ele>
        <time>2014-01-12T09:00:40.000Z</time>
      </trkpt>
      <trkpt lat="43.49572" lon="6.93361">
        <ele>102.59999847412</ele>
        <time>2014-01-12T09:00:47.000Z</time>
      </trkpt>
      <trkpt lat="43.49573" lon="6.9335">
        <ele>101.40000152588</ele>
        <time>2014-01-12T09:00:51.000Z</time>
      </trkpt>
      <trkpt lat="43.4958" lon="6.93341">
        <ele>97.800003051758</ele>
        <time>2014-01-12T09:00:58.000Z</time>
      </trkpt>
      <trkpt lat="43.49588" lon="6.93337">
        <ele>94.599998474121</ele>
        <time>2014-01-12T09:01:05.000Z</time>
      </trkpt>
      <trkpt lat="43.49602" lon="6.9333">
        <ele>90.199996948242</ele>
        <time>2014-01-12T09:01:13.000Z</time>
      </trkpt>
      <trkpt lat="43.49616" lon="6.93315">
        <ele>86.800003051758</ele>
        <time>2014-01-12T09:01:22.000Z</time>
      </trkpt>
      <trkpt lat="43.49622" lon="6.93295">
        <ele>86.800003051758</ele>
        <time>2014-01-12T09:01:30.000Z</time>
      </trkpt>
      <trkpt lat="43.49622" lon="6.93276">
        <ele>88.400001525879</ele>
        <time>2014-01-12T09:01:37.000Z</time>
      </trkpt>
      <trkpt lat="43.49615" lon="6.93253">
        <ele>92.599998474121</ele>
        <time>2014-01-12T09:01:46.000Z</time>
      </trkpt>
      <trkpt lat="43.49604" lon="6.93242">
        <ele>96.599998474121</ele>
        <time>2014-01-12T09:01:53.000Z</time>
      </trkpt>
      <trkpt lat="43.49591" lon="6.93227">
        <ele>101.59999847412</ele>
        <time>2014-01-12T09:02:01.000Z</time>
      </trkpt>
      <trkpt lat="43.49577" lon="6.93208">
        <ele>107.59999847412</ele>
        <time>2014-01-12T09:02:08.000Z</time>
      </trkpt>
      <trkpt lat="43.49579" lon="6.93192">
        <ele>107.59999847412</ele>
        <time>2014-01-12T09:02:12.000Z</time>
      </trkpt>
      <trkpt lat="43.49581" lon="6.9319">
        <ele>107</ele>
        <time>2014-01-12T09:02:13.000Z</time>
      </trkpt>
      <trkpt lat="43.49592" lon="6.93179">
        <ele>103.59999847412</ele>
        <time>2014-01-12T09:02:19.000Z</time>
      </trkpt>
      <trkpt lat="43.49612" lon="6.93159">
        <ele>98.800003051758</ele>
        <time>2014-01-12T09:02:30.000Z</time>
      </trkpt>
      <trkpt lat="43.49621" lon="6.93142">
        <ele>98</ele>
        <time>2014-01-12T09:02:37.000Z</time>
      </trkpt>
      <trkpt lat="43.49627" lon="6.93124">
        <ele>98.400001525879</ele>
        <time>2014-01-12T09:02:44.000Z</time>
      </trkpt>
      <trkpt lat="43.49631" lon="6.93103">
        <ele>100.19999694824</ele>
        <time>2014-01-12T09:02:52.000Z</time>
      </trkpt>
      <trkpt lat="43.49631" lon="6.93083">
        <ele>102.40000152588</ele>
        <time>2014-01-12T09:02:59.000Z</time>
      </trkpt>
      <trkpt lat="43.49628" lon="6.93062">
        <ele>103.19999694824</ele>
        <time>2014-01-12T09:03:06.000Z</time>
      </trkpt>
      <trkpt lat="43.49618" lon="6.93051">
        <ele>105.80000305176</ele>
        <time>2014-01-12T09:03:12.000Z</time>
      </trkpt>
      <trkpt lat="43.49603" lon="6.9304">
        <ele>110</ele>
        <time>2014-01-12T09:03:21.000Z</time>
      </trkpt>
      <trkpt lat="43.49591" lon="6.93025">
        <ele>112.59999847412</ele>
        <time>2014-01-12T09:03:29.000Z</time>
      </trkpt>
      <trkpt lat="43.49588" lon="6.93006">
        <ele>112.19999694824</ele>
        <time>2014-01-12T09:03:35.000Z</time>
      </trkpt>
      <trkpt lat="43.49593" lon="6.92993">
        <ele>110.19999694824</ele>
        <time>2014-01-12T09:03:40.000Z</time>
      </trkpt>
      <trkpt lat="43.49592" lon="6.92988">
        <ele>110.19999694824</ele>
        <time>2014-01-12T09:03:42.000Z</time>
      </trkpt>
      <trkpt lat="43.49589" lon="6.92981">
        <ele>110.40000152588</ele>
        <time>2014-01-12T09:03:45.000Z</time>
      </trkpt>
      <trkpt lat="43.49588" lon="6.92978">
        <ele>110.40000152588</ele>
        <time>2014-01-12T09:03:46.000Z</time>
      </trkpt>
      <trkpt lat="43.49577" lon="6.92954">
        <ele>111.80000305176</ele>
        <time>2014-01-12T09:03:55.000Z</time>
      </trkpt>
      <trkpt lat="43.49568" lon="6.92931">
        <ele>113.19999694824</ele>
        <time>2014-01-12T09:04:04.000Z</time>
      </trkpt>
      <trkpt lat="43.49559" lon="6.92911">
        <ele>115</ele>
        <time>2014-01-12T09:04:13.000Z</time>
      </trkpt>
      <trkpt lat="43.4955" lon="6.92897">
        <ele>116.80000305176</ele>
        <time>2014-01-12T09:04:20.000Z</time>
      </trkpt>
      <trkpt lat="43.49539" lon="6.92881">
        <ele>118.59999847412</ele>
        <time>2014-01-12T09:04:28.000Z</time>
      </trkpt>
      <trkpt lat="43.49525" lon="6.92862">
        <ele>120.19999694824</ele>
        <time>2014-01-12T09:04:37.000Z</time>
      </trkpt>
      <trkpt lat="43.4951" lon="6.92845">
        <ele>122.19999694824</ele>
        <time>2014-01-12T09:04:46.000Z</time>
      </trkpt>
      <trkpt lat="43.49501" lon="6.92829">
        <ele>122.59999847412</ele>
        <time>2014-01-12T09:04:53.000Z</time>
      </trkpt>
      <trkpt lat="43.49496" lon="6.92807">
        <ele>121.80000305176</ele>
        <time>2014-01-12T09:05:02.000Z</time>
      </trkpt>
      <trkpt lat="43.49489" lon="6.92793">
        <ele>120.59999847412</ele>
        <time>2014-01-12T09:05:09.000Z</time>
      </trkpt>
      <trkpt lat="43.49487" lon="6.92786">
        <ele>120</ele>
        <time>2014-01-12T09:05:14.000Z</time>
      </trkpt>
      <trkpt lat="43.49486" lon="6.92786">
        <ele>119.80000305176</ele>
        <time>2014-01-12T09:05:15.000Z</time>
      </trkpt>
      <trkpt lat="43.49486" lon="6.92785">
        <ele>119.80000305176</ele>
        <time>2014-01-12T09:05:19.000Z</time>
      </trkpt>
      <trkpt lat="43.49485" lon="6.92787">
        <ele>119.80000305176</ele>
        <time>2014-01-12T09:05:32.000Z</time>
      </trkpt>
      <trkpt lat="43.49484" lon="6.92792">
        <ele>120</ele>
        <time>2014-01-12T09:05:38.000Z</time>
      </trkpt>
      <trkpt lat="43.4948" lon="6.92802">
        <ele>120.40000152588</ele>
        <time>2014-01-12T09:05:45.000Z</time>
      </trkpt>
      <trkpt lat="43.49474" lon="6.92812">
        <ele>120.59999847412</ele>
        <time>2014-01-12T09:05:52.000Z</time>
      </trkpt>
      <trkpt lat="43.49466" lon="6.92824">
        <ele>121.19999694824</ele>
        <time>2014-01-12T09:05:59.000Z</time>
      </trkpt>
      <trkpt lat="43.49459" lon="6.92837">
        <ele>122.59999847412</ele>
        <time>2014-01-12T09:06:07.000Z</time>
      </trkpt>
      <trkpt lat="43.49452" lon="6.92842">
        <ele>123.19999694824</ele>
        <time>2014-01-12T09:06:12.000Z</time>
      </trkpt>
      <trkpt lat="43.49441" lon="6.92841">
        <ele>122.80000305176</ele>
        <time>2014-01-12T09:06:19.000Z</time>
      </trkpt>
      <trkpt lat="43.49427" lon="6.92845">
        <ele>123</ele>
        <time>2014-01-12T09:06:28.000Z</time>
      </trkpt>
      <trkpt lat="43.49415" lon="6.92852">
        <ele>123.40000152588</ele>
        <time>2014-01-12T09:06:35.000Z</time>
      </trkpt>
      <trkpt lat="43.49407" lon="6.92865">
        <ele>122.80000305176</ele>
        <time>2014-01-12T09:06:43.000Z</time>
      </trkpt>
      <trkpt lat="43.49403" lon="6.92885">
        <ele>124.59999847412</ele>
        <time>2014-01-12T09:06:51.000Z</time>
      </trkpt>
      <trkpt lat="43.49404" lon="6.92905">
        <ele>127.80000305176</ele>
        <time>2014-01-12T09:07:00.000Z</time>
      </trkpt>
      <trkpt lat="43.4941" lon="6.92924">
        <ele>132.60000610352</ele>
        <time>2014-01-12T09:07:08.000Z</time>
      </trkpt>
      <trkpt lat="43.49411" lon="6.92942">
        <ele>135.19999694824</ele>
        <time>2014-01-12T09:07:15.000Z</time>
      </trkpt>
      <trkpt lat="43.49406" lon="6.92958">
        <ele>135.60000610352</ele>
        <time>2014-01-12T09:07:23.000Z</time>
      </trkpt>
      <trkpt lat="43.49402" lon="6.92976">
        <ele>136.60000610352</ele>
        <time>2014-01-12T09:07:31.000Z</time>
      </trkpt>
      <trkpt lat="43.49404" lon="6.92995">
        <ele>140.19999694824</ele>
        <time>2014-01-12T09:07:40.000Z</time>
      </trkpt>
      <trkpt lat="43.49404" lon="6.9301">
        <ele>142.19999694824</ele>
        <time>2014-01-12T09:07:47.000Z</time>
      </trkpt>
      <trkpt lat="43.49402" lon="6.93033">
        <ele>145</ele>
        <time>2014-01-12T09:07:57.000Z</time>
      </trkpt>
      <trkpt lat="43.49399" lon="6.9305">
        <ele>146.39999389648</ele>
        <time>2014-01-12T09:08:05.000Z</time>
      </trkpt>
      <trkpt lat="43.49396" lon="6.93066">
        <ele>148</ele>
        <time>2014-01-12T09:08:12.000Z</time>
      </trkpt>
      <trkpt lat="43.49388" lon="6.9308">
        <ele>148</ele>
        <time>2014-01-12T09:08:20.000Z</time>
      </trkpt>
      <trkpt lat="43.49381" lon="6.93093">
        <ele>147.39999389648</ele>
        <time>2014-01-12T09:08:27.000Z</time>
      </trkpt>
      <trkpt lat="43.49374" lon="6.93106">
        <ele>147.19999694824</ele>
        <time>2014-01-12T09:08:34.000Z</time>
      </trkpt>
      <trkpt lat="43.49366" lon="6.93124">
        <ele>147.60000610352</ele>
        <time>2014-01-12T09:08:42.000Z</time>
      </trkpt>
      <trkpt lat="43.4936" lon="6.93143">
        <ele>148.80000305176</ele>
        <time>2014-01-12T09:08:49.000Z</time>
      </trkpt>
      <trkpt lat="43.49358" lon="6.93161">
        <ele>151.19999694824</ele>
        <time>2014-01-12T09:08:56.000Z</time>
      </trkpt>
      <trkpt lat="43.49361" lon="6.93179">
        <ele>154</ele>
        <time>2014-01-12T09:09:03.000Z</time>
      </trkpt>
      <trkpt lat="43.49369" lon="6.93197">
        <ele>157.19999694824</ele>
        <time>2014-01-12T09:09:10.000Z</time>
      </trkpt>
      <trkpt lat="43.49373" lon="6.93198">
        <ele>157.80000305176</ele>
        <time>2014-01-12T09:09:12.000Z</time>
      </trkpt>
      <trkpt lat="43.49375" lon="6.93194">
        <ele>157.80000305176</ele>
        <time>2014-01-12T09:09:14.000Z</time>
      </trkpt>
      <trkpt lat="43.49372" lon="6.93186">
        <ele>156.60000610352</ele>
        <time>2014-01-12T09:09:18.000Z</time>
      </trkpt>
      <trkpt lat="43.49371" lon="6.93184">
        <ele>156.39999389648</ele>
        <time>2014-01-12T09:09:19.000Z</time>
      </trkpt>
      <trkpt lat="43.49371" lon="6.93171">
        <ele>155</ele>
        <time>2014-01-12T09:09:25.000Z</time>
      </trkpt>
      <trkpt lat="43.49377" lon="6.93156">
        <ele>154.60000610352</ele>
        <time>2014-01-12T09:09:32.000Z</time>
      </trkpt>
      <trkpt lat="43.49388" lon="6.93143">
        <ele>155.39999389648</ele>
        <time>2014-01-12T09:09:40.000Z</time>
      </trkpt>
      <trkpt lat="43.49402" lon="6.93136">
        <ele>158</ele>
        <time>2014-01-12T09:09:49.000Z</time>
      </trkpt>
      <trkpt lat="43.49418" lon="6.93127">
        <ele>160.39999389648</ele>
        <time>2014-01-12T09:09:57.000Z</time>
      </trkpt>
      <trkpt lat="43.49432" lon="6.93121">
        <ele>157.60000610352</ele>
        <time>2014-01-12T09:10:03.000Z</time>
      </trkpt>
      <trkpt lat="43.49438" lon="6.93123">
        <ele>156.60000610352</ele>
        <time>2014-01-12T09:10:08.000Z</time>
      </trkpt>
      <trkpt lat="43.49439" lon="6.93132">
        <ele>156.80000305176</ele>
        <time>2014-01-12T09:10:15.000Z</time>
      </trkpt>
      <trkpt lat="43.4944" lon="6.93136">
        <ele>157</ele>
        <time>2014-01-12T09:10:20.000Z</time>
      </trkpt>
      <trkpt lat="43.49439" lon="6.93141">
        <ele>157.39999389648</ele>
        <time>2014-01-12T09:10:31.000Z</time>
      </trkpt>
      <trkpt lat="43.49439" lon="6.93142">
        <ele>157.39999389648</ele>
        <time>2014-01-12T09:10:32.000Z</time>
      </trkpt>
      <trkpt lat="43.49439" lon="6.93153">
        <ele>158</ele>
        <time>2014-01-12T09:10:39.000Z</time>
      </trkpt>
      <trkpt lat="43.49434" lon="6.93175">
        <ele>159.80000305176</ele>
        <time>2014-01-12T09:10:44.000Z</time>
      </trkpt>
      <trkpt lat="43.49418" lon="6.93205">
        <ele>163.60000610352</ele>
        <time>2014-01-12T09:10:51.000Z</time>
      </trkpt>
      <trkpt lat="43.49408" lon="6.93225">
        <ele>163.19999694824</ele>
        <time>2014-01-12T09:10:56.000Z</time>
      </trkpt>
      <trkpt lat="43.49403" lon="6.93243">
        <ele>163.19999694824</ele>
        <time>2014-01-12T09:11:02.000Z</time>
      </trkpt>
      <trkpt lat="43.49399" lon="6.93259">
        <ele>163.60000610352</ele>
        <time>2014-01-12T09:11:08.000Z</time>
      </trkpt>
      <trkpt lat="43.49398" lon="6.93268">
        <ele>164</ele>
        <time>2014-01-12T09:11:12.000Z</time>
      </trkpt>
      <trkpt lat="43.49396" lon="6.9327">
        <ele>164</ele>
        <time>2014-01-12T09:11:13.000Z</time>
      </trkpt>
      <trkpt lat="43.4939" lon="6.93281">
        <ele>164.60000610352</ele>
        <time>2014-01-12T09:11:17.000Z</time>
      </trkpt>
      <trkpt lat="43.49381" lon="6.93292">
        <ele>165.60000610352</ele>
        <time>2014-01-12T09:11:23.000Z</time>
      </trkpt>
      <trkpt lat="43.49379" lon="6.93297">
        <ele>166</ele>
        <time>2014-01-12T09:11:28.000Z</time>
      </trkpt>
      <trkpt lat="43.49374" lon="6.93302">
        <ele>166.60000610352</ele>
        <time>2014-01-12T09:11:32.000Z</time>
      </trkpt>
      <trkpt lat="43.49371" lon="6.93303">
        <ele>166.80000305176</ele>
        <time>2014-01-12T09:11:33.000Z</time>
      </trkpt>
      <trkpt lat="43.49357" lon="6.93305">
        <ele>168</ele>
        <time>2014-01-12T09:11:38.000Z</time>
      </trkpt>
      <trkpt lat="43.49348" lon="6.93314">
        <ele>169.80000305176</ele>
        <time>2014-01-12T09:11:43.000Z</time>
      </trkpt>
      <trkpt lat="43.49343" lon="6.9333">
        <ele>172.39999389648</ele>
        <time>2014-01-12T09:11:50.000Z</time>
      </trkpt>
      <trkpt lat="43.49346" lon="6.93347">
        <ele>173.19999694824</ele>
        <time>2014-01-12T09:11:56.000Z</time>
      </trkpt>
      <trkpt lat="43.49355" lon="6.9336">
        <ele>173</ele>
        <time>2014-01-12T09:12:03.000Z</time>
      </trkpt>
      <trkpt lat="43.49356" lon="6.93373">
        <ele>173.60000610352</ele>
        <time>2014-01-12T09:12:10.000Z</time>
      </trkpt>
      <trkpt lat="43.49352" lon="6.93386">
        <ele>175</ele>
        <time>2014-01-12T09:12:17.000Z</time>
      </trkpt>
      <trkpt lat="43.49347" lon="6.93408">
        <ele>177.19999694824</ele>
        <time>2014-01-12T09:12:26.000Z</time>
      </trkpt>
      <trkpt lat="43.49344" lon="6.93439">
        <ele>177.80000305176</ele>
        <time>2014-01-12T09:12:34.000Z</time>
      </trkpt>
      <trkpt lat="43.49342" lon="6.93453">
        <ele>177.80000305176</ele>
        <time>2014-01-12T09:12:40.000Z</time>
      </trkpt>
      <trkpt lat="43.49341" lon="6.93454">
        <ele>177.80000305176</ele>
        <time>2014-01-12T09:12:41.000Z</time>
      </trkpt>
      <trkpt lat="43.49342" lon="6.93454">
        <ele>177.80000305176</ele>
        <time>2014-01-12T09:12:45.000Z</time>
      </trkpt>
      <trkpt lat="43.49339" lon="6.93462">
        <ele>178</ele>
        <time>2014-01-12T09:16:42.000Z</time>
      </trkpt>
      <trkpt lat="43.49334" lon="6.93481">
        <ele>178.39999389648</ele>
        <time>2014-01-12T09:16:47.000Z</time>
      </trkpt>
      <trkpt lat="43.49334" lon="6.93503">
        <ele>177.60000610352</ele>
        <time>2014-01-12T09:16:51.000Z</time>
      </trkpt>
      <trkpt lat="43.49344" lon="6.93537">
        <ele>174</ele>
        <time>2014-01-12T09:16:55.000Z</time>
      </trkpt>
      <trkpt lat="43.49348" lon="6.93568">
        <ele>171.19999694824</ele>
        <time>2014-01-12T09:16:58.000Z</time>
      </trkpt>
      <trkpt lat="43.49347" lon="6.93579">
        <ele>170.80000305176</ele>
        <time>2014-01-12T09:16:59.000Z</time>
      </trkpt>
      <trkpt lat="43.49339" lon="6.93608">
        <ele>173.19999694824</ele>
        <time>2014-01-12T09:17:02.000Z</time>
      </trkpt>
      <trkpt lat="43.49327" lon="6.93644">
        <ele>173.80000305176</ele>
        <time>2014-01-12T09:17:07.000Z</time>
      </trkpt>
      <trkpt lat="43.49324" lon="6.93656">
        <ele>173.60000610352</ele>
        <time>2014-01-12T09:17:09.000Z</time>
      </trkpt>
      <trkpt lat="43.49321" lon="6.93673">
        <ele>173.39999389648</ele>
        <time>2014-01-12T09:17:12.000Z</time>
      </trkpt>
      <trkpt lat="43.49316" lon="6.93703">
        <ele>172.80000305176</ele>
        <time>2014-01-12T09:17:18.000Z</time>
      </trkpt>
      <trkpt lat="43.49316" lon="6.93708">
        <ele>172.60000610352</ele>
        <time>2014-01-12T09:17:19.000Z</time>
      </trkpt>
      <trkpt lat="43.49311" lon="6.93729">
        <ele>172.19999694824</ele>
        <time>2014-01-12T09:17:24.000Z</time>
      </trkpt>
      <trkpt lat="43.4931" lon="6.93761">
        <ele>172.39999389648</ele>
        <time>2014-01-12T09:17:31.000Z</time>
      </trkpt>
      <trkpt lat="43.49308" lon="6.93797">
        <ele>173</ele>
        <time>2014-01-12T09:17:38.000Z</time>
      </trkpt>
      <trkpt lat="43.49304" lon="6.9383">
        <ele>173</ele>
        <time>2014-01-12T09:17:45.000Z</time>
      </trkpt>
      <trkpt lat="43.49304" lon="6.93857">
        <ele>173.60000610352</ele>
        <time>2014-01-12T09:17:51.000Z</time>
      </trkpt>
      <trkpt lat="43.49306" lon="6.93877">
        <ele>174</ele>
        <time>2014-01-12T09:17:57.000Z</time>
      </trkpt>
      <trkpt lat="43.49311" lon="6.93901">
        <ele>174.80000305176</ele>
        <time>2014-01-12T09:18:04.000Z</time>
      </trkpt>
      <trkpt lat="43.49316" lon="6.93924">
        <ele>175.39999389648</ele>
        <time>2014-01-12T09:18:10.000Z</time>
      </trkpt>
      <trkpt lat="43.49322" lon="6.93963">
        <ele>175.80000305176</ele>
        <time>2014-01-12T09:18:17.000Z</time>
      </trkpt>
      <trkpt lat="43.49329" lon="6.94006">
        <ele>175.19999694824</ele>
        <time>2014-01-12T09:18:22.000Z</time>
      </trkpt>
      <trkpt lat="43.49331" lon="6.94024">
        <ele>174.60000610352</ele>
        <time>2014-01-12T09:18:24.000Z</time>
      </trkpt>
      <trkpt lat="43.49332" lon="6.9405">
        <ele>174</ele>
        <time>2014-01-12T09:18:27.000Z</time>
      </trkpt>
      <trkpt lat="43.49336" lon="6.9411">
        <ele>170.60000610352</ele>
        <time>2014-01-12T09:18:33.000Z</time>
      </trkpt>
      <trkpt lat="43.49343" lon="6.94172">
        <ele>166.39999389648</ele>
        <time>2014-01-12T09:18:39.000Z</time>
      </trkpt>
      <trkpt lat="43.49344" lon="6.94194">
        <ele>163.60000610352</ele>
        <time>2014-01-12T09:18:41.000Z</time>
      </trkpt>
      <trkpt lat="43.49344" lon="6.94217">
        <ele>161.39999389648</ele>
        <time>2014-01-12T09:18:43.000Z</time>
      </trkpt>
      <trkpt lat="43.49344" lon="6.94236">
        <ele>159.19999694824</ele>
        <time>2014-01-12T09:18:45.000Z</time>
      </trkpt>
      <trkpt lat="43.49348" lon="6.9425">
        <ele>157.60000610352</ele>
        <time>2014-01-12T09:18:47.000Z</time>
      </trkpt>
      <trkpt lat="43.49362" lon="6.94257">
        <ele>156</ele>
        <time>2014-01-12T09:18:50.000Z</time>
      </trkpt>
      <trkpt lat="43.49375" lon="6.94254">
        <ele>156.19999694824</ele>
        <time>2014-01-12T09:18:52.000Z</time>
      </trkpt>
      <trkpt lat="43.49388" lon="6.94252">
        <ele>156.39999389648</ele>
        <time>2014-01-12T09:18:54.000Z</time>
      </trkpt>
      <trkpt lat="43.49425" lon="6.94252">
        <ele>155.80000305176</ele>
        <time>2014-01-12T09:19:00.000Z</time>
      </trkpt>
      <trkpt lat="43.49437" lon="6.94252">
        <ele>156</ele>
        <time>2014-01-12T09:19:04.000Z</time>
      </trkpt>
      <trkpt lat="43.49439" lon="6.94252">
        <ele>156</ele>
        <time>2014-01-12T09:19:05.000Z</time>
      </trkpt>
      <trkpt lat="43.4945" lon="6.9425">
        <ele>156.39999389648</ele>
        <time>2014-01-12T09:19:10.000Z</time>
      </trkpt>
      <trkpt lat="43.49465" lon="6.94248">
        <ele>156.39999389648</ele>
        <time>2014-01-12T09:19:16.000Z</time>
      </trkpt>
      <trkpt lat="43.49484" lon="6.94248">
        <ele>156.60000610352</ele>
        <time>2014-01-12T09:19:24.000Z</time>
      </trkpt>
      <trkpt lat="43.49499" lon="6.94246">
        <ele>156.39999389648</ele>
        <time>2014-01-12T09:19:30.000Z</time>
      </trkpt>
      <trkpt lat="43.49517" lon="6.94243">
        <ele>157</ele>
        <time>2014-01-12T09:19:36.000Z</time>
      </trkpt>
      <trkpt lat="43.49541" lon="6.94242">
        <ele>157.80000305176</ele>
        <time>2014-01-12T09:19:42.000Z</time>
      </trkpt>
      <trkpt lat="43.49543" lon="6.94246">
        <ele>158.60000610352</ele>
        <time>2014-01-12T09:19:43.000Z</time>
      </trkpt>
      <trkpt lat="43.49547" lon="6.94256">
        <ele>158.60000610352</ele>
        <time>2014-01-12T09:19:45.000Z</time>
      </trkpt>
      <trkpt lat="43.4956" lon="6.94265">
        <ele>158.60000610352</ele>
        <time>2014-01-12T09:19:49.000Z</time>
      </trkpt>
      <trkpt lat="43.49568" lon="6.94257">
        <ele>159.80000305176</ele>
        <time>2014-01-12T09:19:53.000Z</time>
      </trkpt>
      <trkpt lat="43.49579" lon="6.94251">
        <ele>160.80000305176</ele>
        <time>2014-01-12T09:19:59.000Z</time>
      </trkpt>
      <trkpt lat="43.49593" lon="6.94247">
        <ele>162.19999694824</ele>
        <time>2014-01-12T09:20:07.000Z</time>
      </trkpt>
      <trkpt lat="43.49607" lon="6.9424">
        <ele>164</ele>
        <time>2014-01-12T09:20:15.000Z</time>
      </trkpt>
      <trkpt lat="43.49622" lon="6.94231">
        <ele>165.60000610352</ele>
        <time>2014-01-12T09:20:24.000Z</time>
      </trkpt>
      <trkpt lat="43.49637" lon="6.9422">
        <ele>167.19999694824</ele>
        <time>2014-01-12T09:20:33.000Z</time>
      </trkpt>
      <trkpt lat="43.49652" lon="6.94209">
        <ele>169</ele>
        <time>2014-01-12T09:20:42.000Z</time>
      </trkpt>
      <trkpt lat="43.49667" lon="6.94194">
        <ele>170.80000305176</ele>
        <time>2014-01-12T09:20:52.000Z</time>
      </trkpt>
      <trkpt lat="43.49677" lon="6.9418">
        <ele>171</ele>
        <time>2014-01-12T09:21:00.000Z</time>
      </trkpt>
      <trkpt lat="43.49684" lon="6.94169">
        <ele>171</ele>
        <time>2014-01-12T09:21:07.000Z</time>
      </trkpt>
      <trkpt lat="43.49695" lon="6.94158">
        <ele>170.80000305176</ele>
        <time>2014-01-12T09:21:15.000Z</time>
      </trkpt>
      <trkpt lat="43.49709" lon="6.94157">
        <ele>172.39999389648</ele>
        <time>2014-01-12T09:21:22.000Z</time>
      </trkpt>
      <trkpt lat="43.49726" lon="6.94156">
        <ele>174.60000610352</ele>
        <time>2014-01-12T09:21:31.000Z</time>
      </trkpt>
      <trkpt lat="43.49737" lon="6.94154">
        <ele>175.60000610352</ele>
        <time>2014-01-12T09:21:38.000Z</time>
      </trkpt>
      <trkpt lat="43.49747" lon="6.94155">
        <ele>177.39999389648</ele>
        <time>2014-01-12T09:21:44.000Z</time>
      </trkpt>
      <trkpt lat="43.4976" lon="6.94157">
        <ele>179.39999389648</ele>
        <time>2014-01-12T09:21:51.000Z</time>
      </trkpt>
      <trkpt lat="43.49775" lon="6.94158">
        <ele>181.19999694824</ele>
        <time>2014-01-12T09:21:58.000Z</time>
      </trkpt>
      <trkpt lat="43.49789" lon="6.94155">
        <ele>182</ele>
        <time>2014-01-12T09:22:06.000Z</time>
      </trkpt>
      <trkpt lat="43.49802" lon="6.9415">
        <ele>182</ele>
        <time>2014-01-12T09:22:13.000Z</time>
      </trkpt>
      <trkpt lat="43.49818" lon="6.94141">
        <ele>181.19999694824</ele>
        <time>2014-01-12T09:22:22.000Z</time>
      </trkpt>
      <trkpt lat="43.49833" lon="6.94136">
        <ele>181.60000610352</ele>
        <time>2014-01-12T09:22:30.000Z</time>
      </trkpt>
      <trkpt lat="43.49835" lon="6.94137">
        <ele>181.80000305176</ele>
        <time>2014-01-12T09:22:31.000Z</time>
      </trkpt>
      <trkpt lat="43.49835" lon="6.94144">
        <ele>183.80000305176</ele>
        <time>2014-01-12T09:22:34.000Z</time>
      </trkpt>
      <trkpt lat="43.49832" lon="6.94147">
        <ele>184.39999389648</ele>
        <time>2014-01-12T09:22:36.000Z</time>
      </trkpt>
      <trkpt lat="43.49828" lon="6.94151">
        <ele>185.19999694824</ele>
        <time>2014-01-12T09:22:40.000Z</time>
      </trkpt>
      <trkpt lat="43.49819" lon="6.94159">
        <ele>186.39999389648</ele>
        <time>2014-01-12T09:22:48.000Z</time>
      </trkpt>
      <trkpt lat="43.49809" lon="6.94172">
        <ele>188.19999694824</ele>
        <time>2014-01-12T09:22:56.000Z</time>
      </trkpt>
      <trkpt lat="43.498" lon="6.94188">
        <ele>189.60000610352</ele>
        <time>2014-01-12T09:23:04.000Z</time>
      </trkpt>
      <trkpt lat="43.49791" lon="6.94201">
        <ele>190.80000305176</ele>
        <time>2014-01-12T09:23:11.000Z</time>
      </trkpt>
      <trkpt lat="43.49789" lon="6.94204">
        <ele>191</ele>
        <time>2014-01-12T09:23:13.000Z</time>
      </trkpt>
      <trkpt lat="43.49786" lon="6.9421">
        <ele>191.80000305176</ele>
        <time>2014-01-12T09:23:16.000Z</time>
      </trkpt>
      <trkpt lat="43.49784" lon="6.94214">
        <ele>192</ele>
        <time>2014-01-12T09:23:18.000Z</time>
      </trkpt>
      <trkpt lat="43.49777" lon="6.94224">
        <ele>192.80000305176</ele>
        <time>2014-01-12T09:23:24.000Z</time>
      </trkpt>
      <trkpt lat="43.49769" lon="6.94237">
        <ele>194</ele>
        <time>2014-01-12T09:23:31.000Z</time>
      </trkpt>
      <trkpt lat="43.49769" lon="6.94239">
        <ele>194.39999389648</ele>
        <time>2014-01-12T09:23:32.000Z</time>
      </trkpt>
      <trkpt lat="43.49766" lon="6.94247">
        <ele>195.39999389648</ele>
        <time>2014-01-12T09:23:36.000Z</time>
      </trkpt>
      <trkpt lat="43.49763" lon="6.94263">
        <ele>195.19999694824</ele>
        <time>2014-01-12T09:23:43.000Z</time>
      </trkpt>
      <trkpt lat="43.49761" lon="6.94281">
        <ele>194.39999389648</ele>
        <time>2014-01-12T09:23:51.000Z</time>
      </trkpt>
      <trkpt lat="43.49763" lon="6.94301">
        <ele>194.39999389648</ele>
        <time>2014-01-12T09:23:57.000Z</time>
      </trkpt>
      <trkpt lat="43.49774" lon="6.94327">
        <ele>196.80000305176</ele>
        <time>2014-01-12T09:24:03.000Z</time>
      </trkpt>
      <trkpt lat="43.49782" lon="6.94345">
        <ele>198.39999389648</ele>
        <time>2014-01-12T09:24:09.000Z</time>
      </trkpt>
      <trkpt lat="43.49789" lon="6.94368">
        <ele>199.39999389648</ele>
        <time>2014-01-12T09:24:16.000Z</time>
      </trkpt>
      <trkpt lat="43.49791" lon="6.94397">
        <ele>199</ele>
        <time>2014-01-12T09:24:22.000Z</time>
      </trkpt>
      <trkpt lat="43.49793" lon="6.94433">
        <ele>197.80000305176</ele>
        <time>2014-01-12T09:24:27.000Z</time>
      </trkpt>
      <trkpt lat="43.49799" lon="6.94463">
        <ele>198.19999694824</ele>
        <time>2014-01-12T09:24:33.000Z</time>
      </trkpt>
      <trkpt lat="43.49806" lon="6.94492">
        <ele>199.60000610352</ele>
        <time>2014-01-12T09:24:40.000Z</time>
      </trkpt>
      <trkpt lat="43.49814" lon="6.94517">
        <ele>199.60000610352</ele>
        <time>2014-01-12T09:24:47.000Z</time>
      </trkpt>
      <trkpt lat="43.49828" lon="6.9455">
        <ele>199.60000610352</ele>
        <time>2014-01-12T09:24:56.000Z</time>
      </trkpt>
      <trkpt lat="43.49843" lon="6.9458">
        <ele>200.19999694824</ele>
        <time>2014-01-12T09:25:04.000Z</time>
      </trkpt>
      <trkpt lat="43.49856" lon="6.94605">
        <ele>200.19999694824</ele>
        <time>2014-01-12T09:25:11.000Z</time>
      </trkpt>
      <trkpt lat="43.49872" lon="6.94634">
        <ele>200.39999389648</ele>
        <time>2014-01-12T09:25:19.000Z</time>
      </trkpt>
      <trkpt lat="43.49891" lon="6.94661">
        <ele>202</ele>
        <time>2014-01-12T09:25:27.000Z</time>
      </trkpt>
      <trkpt lat="43.4991" lon="6.94689">
        <ele>203.60000610352</ele>
        <time>2014-01-12T09:25:35.000Z</time>
      </trkpt>
      <trkpt lat="43.4993" lon="6.94711">
        <ele>203.39999389648</ele>
        <time>2014-01-12T09:25:42.000Z</time>
      </trkpt>
      <trkpt lat="43.49964" lon="6.9474">
        <ele>203.60000610352</ele>
        <time>2014-01-12T09:25:53.000Z</time>
      </trkpt>
      <trkpt lat="43.49993" lon="6.94759">
        <ele>206</ele>
        <time>2014-01-12T09:26:02.000Z</time>
      </trkpt>
      <trkpt lat="43.50014" lon="6.9477">
        <ele>204.39999389648</ele>
        <time>2014-01-12T09:26:09.000Z</time>
      </trkpt>
      <trkpt lat="43.50033" lon="6.94783">
        <ele>201.80000305176</ele>
        <time>2014-01-12T09:26:15.000Z</time>
      </trkpt>
      <trkpt lat="43.50051" lon="6.94792">
        <ele>201.39999389648</ele>
        <time>2014-01-12T09:26:22.000Z</time>
      </trkpt>
      <trkpt lat="43.50059" lon="6.94791">
        <ele>201.60000610352</ele>
        <time>2014-01-12T09:26:27.000Z</time>
      </trkpt>
      <trkpt lat="43.5006" lon="6.9479">
        <ele>201.80000305176</ele>
        <time>2014-01-12T09:26:33.000Z</time>
      </trkpt>
      <trkpt lat="43.50059" lon="6.94794">
        <ele>201.60000610352</ele>
        <time>2014-01-12T09:26:58.000Z</time>
      </trkpt>
      <trkpt lat="43.50059" lon="6.94797">
        <ele>201.39999389648</ele>
        <time>2014-01-12T09:29:17.000Z</time>
      </trkpt>
      <trkpt lat="43.50057" lon="6.94791">
        <ele>201.60000610352</ele>
        <time>2014-01-12T09:29:23.000Z</time>
      </trkpt>
      <trkpt lat="43.50055" lon="6.94785">
        <ele>201.80000305176</ele>
        <time>2014-01-12T09:29:29.000Z</time>
      </trkpt>
      <trkpt lat="43.50051" lon="6.94776">
        <ele>202.60000610352</ele>
        <time>2014-01-12T09:29:38.000Z</time>
      </trkpt>
      <trkpt lat="43.50047" lon="6.94769">
        <ele>203.19999694824</ele>
        <time>2014-01-12T09:29:47.000Z</time>
      </trkpt>
      <trkpt lat="43.50045" lon="6.94763">
        <ele>203.80000305176</ele>
        <time>2014-01-12T09:29:54.000Z</time>
      </trkpt>
      <trkpt lat="43.50043" lon="6.94758">
        <ele>204.39999389648</ele>
        <time>2014-01-12T09:29:59.000Z</time>
      </trkpt>
      <trkpt lat="43.50043" lon="6.94754">
        <ele>205</ele>
        <time>2014-01-12T09:30:04.000Z</time>
      </trkpt>
      <trkpt lat="43.50042" lon="6.94751">
        <ele>205.39999389648</ele>
        <time>2014-01-12T09:30:08.000Z</time>
      </trkpt>
      <trkpt lat="43.50041" lon="6.94749">
        <ele>205.60000610352</ele>
        <time>2014-01-12T09:30:10.000Z</time>
      </trkpt>
      <trkpt lat="43.50038" lon="6.94742">
        <ele>207</ele>
        <time>2014-01-12T09:30:18.000Z</time>
      </trkpt>
      <trkpt lat="43.50038" lon="6.94742">
        <ele>207</ele>
        <time>2014-01-12T09:30:19.000Z</time>
      </trkpt>
      <trkpt lat="43.50037" lon="6.94738">
        <ele>207.80000305176</ele>
        <time>2014-01-12T09:30:28.000Z</time>
      </trkpt>
      <trkpt lat="43.50035" lon="6.94737">
        <ele>208.39999389648</ele>
        <time>2014-01-12T09:30:35.000Z</time>
      </trkpt>
      <trkpt lat="43.50034" lon="6.94733">
        <ele>209.19999694824</ele>
        <time>2014-01-12T09:30:40.000Z</time>
      </trkpt>
      <trkpt lat="43.50033" lon="6.94729">
        <ele>210</ele>
        <time>2014-01-12T09:30:47.000Z</time>
      </trkpt>
      <trkpt lat="43.50031" lon="6.94728">
        <ele>210.60000610352</ele>
        <time>2014-01-12T09:30:53.000Z</time>
      </trkpt>
      <trkpt lat="43.50028" lon="6.94725">
        <ele>211.39999389648</ele>
        <time>2014-01-12T09:31:01.000Z</time>
      </trkpt>
      <trkpt lat="43.50028" lon="6.94723">
        <ele>211.80000305176</ele>
        <time>2014-01-12T09:31:02.000Z</time>
      </trkpt>
      <trkpt lat="43.50028" lon="6.94719">
        <ele>212.39999389648</ele>
        <time>2014-01-12T09:31:09.000Z</time>
      </trkpt>
      <trkpt lat="43.50027" lon="6.94716">
        <ele>213.19999694824</ele>
        <time>2014-01-12T09:31:15.000Z</time>
      </trkpt>
      <trkpt lat="43.50026" lon="6.94711">
        <ele>214.39999389648</ele>
        <time>2014-01-12T09:31:23.000Z</time>
      </trkpt>
      <trkpt lat="43.50024" lon="6.94707">
        <ele>215.39999389648</ele>
        <time>2014-01-12T09:31:28.000Z</time>
      </trkpt>
      <trkpt lat="43.50021" lon="6.94705">
        <ele>216.39999389648</ele>
        <time>2014-01-12T09:31:33.000Z</time>
      </trkpt>
      <trkpt lat="43.50021" lon="6.94702">
        <ele>217</ele>
        <time>2014-01-12T09:31:38.000Z</time>
      </trkpt>
      <trkpt lat="43.50018" lon="6.947">
        <ele>218</ele>
        <time>2014-01-12T09:31:45.000Z</time>
      </trkpt>
      <trkpt lat="43.50017" lon="6.94694">
        <ele>219.60000610352</ele>
        <time>2014-01-12T09:31:52.000Z</time>
      </trkpt>
      <trkpt lat="43.50015" lon="6.94689">
        <ele>221</ele>
        <time>2014-01-12T09:32:00.000Z</time>
      </trkpt>
      <trkpt lat="43.50015" lon="6.94685">
        <ele>222</ele>
        <time>2014-01-12T09:32:06.000Z</time>
      </trkpt>
      <trkpt lat="43.50012" lon="6.94679">
        <ele>223.80000305176</ele>
        <time>2014-01-12T09:32:16.000Z</time>
      </trkpt>
      <trkpt lat="43.50008" lon="6.94671">
        <ele>226.60000610352</ele>
        <time>2014-01-12T09:32:25.000Z</time>
      </trkpt>
      <trkpt lat="43.50008" lon="6.9467">
        <ele>227</ele>
        <time>2014-01-12T09:32:26.000Z</time>
      </trkpt>
      <trkpt lat="43.50007" lon="6.94666">
        <ele>228.19999694824</ele>
        <time>2014-01-12T09:32:31.000Z</time>
      </trkpt>
      <trkpt lat="43.50005" lon="6.9466">
        <ele>229.60000610352</ele>
        <time>2014-01-12T09:32:38.000Z</time>
      </trkpt>
      <trkpt lat="43.50002" lon="6.94656">
        <ele>231</ele>
        <time>2014-01-12T09:32:45.000Z</time>
      </trkpt>
      <trkpt lat="43.49999" lon="6.94652">
        <ele>232</ele>
        <time>2014-01-12T09:32:52.000Z</time>
      </trkpt>
      <trkpt lat="43.49995" lon="6.94645">
        <ele>232.39999389648</ele>
        <time>2014-01-12T09:32:59.000Z</time>
      </trkpt>
      <trkpt lat="43.49994" lon="6.94633">
        <ele>234.19999694824</ele>
        <time>2014-01-12T09:33:08.000Z</time>
      </trkpt>
      <trkpt lat="43.49991" lon="6.94629">
        <ele>234.60000610352</ele>
        <time>2014-01-12T09:33:14.000Z</time>
      </trkpt>
      <trkpt lat="43.49989" lon="6.94626">
        <ele>234.80000305176</ele>
        <time>2014-01-12T09:33:22.000Z</time>
      </trkpt>
      <trkpt lat="43.49989" lon="6.94618">
        <ele>236</ele>
        <time>2014-01-12T09:33:34.000Z</time>
      </trkpt>
      <trkpt lat="43.49986" lon="6.94613">
        <ele>236.60000610352</ele>
        <time>2014-01-12T09:33:40.000Z</time>
      </trkpt>
      <trkpt lat="43.49986" lon="6.94613">
        <ele>236.60000610352</ele>
        <time>2014-01-12T09:33:41.000Z</time>
      </trkpt>
      <trkpt lat="43.49983" lon="6.94604">
        <ele>237.80000305176</ele>
        <time>2014-01-12T09:33:47.000Z</time>
      </trkpt>
      <trkpt lat="43.49979" lon="6.94598">
        <ele>238.60000610352</ele>
        <time>2014-01-12T09:33:50.000Z</time>
      </trkpt>
      <trkpt lat="43.49977" lon="6.94599">
        <ele>238.19999694824</ele>
        <time>2014-01-12T09:33:52.000Z</time>
      </trkpt>
      <trkpt lat="43.49974" lon="6.94598">
        <ele>238</ele>
        <time>2014-01-12T09:33:55.000Z</time>
      </trkpt>
      <trkpt lat="43.49974" lon="6.94597">
        <ele>238.19999694824</ele>
        <time>2014-01-12T09:33:56.000Z</time>
      </trkpt>
      <trkpt lat="43.49973" lon="6.94596">
        <ele>238.39999389648</ele>
        <time>2014-01-12T09:33:57.000Z</time>
      </trkpt>
      <trkpt lat="43.49969" lon="6.94589">
        <ele>239.19999694824</ele>
        <time>2014-01-12T09:34:03.000Z</time>
      </trkpt>
      <trkpt lat="43.49969" lon="6.94588">
        <ele>239.39999389648</ele>
        <time>2014-01-12T09:34:04.000Z</time>
      </trkpt>
      <trkpt lat="43.49967" lon="6.94583">
        <ele>240.19999694824</ele>
        <time>2014-01-12T09:34:08.000Z</time>
      </trkpt>
      <trkpt lat="43.49964" lon="6.9458">
        <ele>239.80000305176</ele>
        <time>2014-01-12T09:34:13.000Z</time>
      </trkpt>
      <trkpt lat="43.4996" lon="6.94573">
        <ele>239.60000610352</ele>
        <time>2014-01-12T09:34:18.000Z</time>
      </trkpt>
      <trkpt lat="43.49955" lon="6.9457">
        <ele>239.19999694824</ele>
        <time>2014-01-12T09:34:23.000Z</time>
      </trkpt>
      <trkpt lat="43.49954" lon="6.9457">
        <ele>239.19999694824</ele>
        <time>2014-01-12T09:34:24.000Z</time>
      </trkpt>
      <trkpt lat="43.49953" lon="6.94566">
        <ele>239.19999694824</ele>
        <time>2014-01-12T09:34:32.000Z</time>
      </trkpt>
      <trkpt lat="43.49943" lon="6.94552">
        <ele>239.19999694824</ele>
        <time>2014-01-12T09:40:43.000Z</time>
      </trkpt>
      <trkpt lat="43.49942" lon="6.9455">
        <ele>239.19999694824</ele>
        <time>2014-01-12T09:40:44.000Z</time>
      </trkpt>
      <trkpt lat="43.49946" lon="6.94543">
        <ele>239.39999389648</ele>
        <time>2014-01-12T09:40:47.000Z</time>
      </trkpt>
      <trkpt lat="43.49944" lon="6.94527">
        <ele>240</ele>
        <time>2014-01-12T09:40:51.000Z</time>
      </trkpt>
      <trkpt lat="43.49937" lon="6.94525">
        <ele>240.39999389648</ele>
        <time>2014-01-12T09:40:54.000Z</time>
      </trkpt>
      <trkpt lat="43.49931" lon="6.9452">
        <ele>241</ele>
        <time>2014-01-12T09:40:57.000Z</time>
      </trkpt>
      <trkpt lat="43.49928" lon="6.94519">
        <ele>241.39999389648</ele>
        <time>2014-01-12T09:40:58.000Z</time>
      </trkpt>
      <trkpt lat="43.49918" lon="6.94513">
        <ele>242.60000610352</ele>
        <time>2014-01-12T09:41:02.000Z</time>
      </trkpt>
      <trkpt lat="43.49915" lon="6.94507">
        <ele>242.60000610352</ele>
        <time>2014-01-12T09:41:06.000Z</time>
      </trkpt>
      <trkpt lat="43.49914" lon="6.94506">
        <ele>242.39999389648</ele>
        <time>2014-01-12T09:41:07.000Z</time>
      </trkpt>
      <trkpt lat="43.49912" lon="6.94504">
        <ele>241.80000305176</ele>
        <time>2014-01-12T09:41:18.000Z</time>
      </trkpt>
      <trkpt lat="43.49908" lon="6.94499">
        <ele>240.80000305176</ele>
        <time>2014-01-12T09:41:38.000Z</time>
      </trkpt>
      <trkpt lat="43.49902" lon="6.94492">
        <ele>238</ele>
        <time>2014-01-12T09:41:43.000Z</time>
      </trkpt>
      <trkpt lat="43.49902" lon="6.94489">
        <ele>237.60000610352</ele>
        <time>2014-01-12T09:41:48.000Z</time>
      </trkpt>
      <trkpt lat="43.49904" lon="6.94485">
        <ele>238</ele>
        <time>2014-01-12T09:41:50.000Z</time>
      </trkpt>
      <trkpt lat="43.49903" lon="6.94482">
        <ele>237.39999389648</ele>
        <time>2014-01-12T09:41:52.000Z</time>
      </trkpt>
      <trkpt lat="43.49901" lon="6.94477">
        <ele>236.39999389648</ele>
        <time>2014-01-12T09:42:11.000Z</time>
      </trkpt>
      <trkpt lat="43.499" lon="6.94473">
        <ele>235.80000305176</ele>
        <time>2014-01-12T09:42:13.000Z</time>
      </trkpt>
      <trkpt lat="43.499" lon="6.9446">
        <ele>234.80000305176</ele>
        <time>2014-01-12T09:42:16.000Z</time>
      </trkpt>
      <trkpt lat="43.499" lon="6.94455">
        <ele>234.39999389648</ele>
        <time>2014-01-12T09:42:19.000Z</time>
      </trkpt>
      <trkpt lat="43.49899" lon="6.94449">
        <ele>233.80000305176</ele>
        <time>2014-01-12T09:42:48.000Z</time>
      </trkpt>
      <trkpt lat="43.49898" lon="6.94446">
        <ele>233.19999694824</ele>
        <time>2014-01-12T09:42:54.000Z</time>
      </trkpt>
      <trkpt lat="43.49895" lon="6.94444">
        <ele>232.39999389648</ele>
        <time>2014-01-12T09:42:59.000Z</time>
      </trkpt>
      <trkpt lat="43.49893" lon="6.94445">
        <ele>231.80000305176</ele>
        <time>2014-01-12T09:43:02.000Z</time>
      </trkpt>
      <trkpt lat="43.49893" lon="6.94449">
        <ele>232</ele>
        <time>2014-01-12T09:43:05.000Z</time>
      </trkpt>
      <trkpt lat="43.49892" lon="6.94452">
        <ele>232</ele>
        <time>2014-01-12T09:43:10.000Z</time>
      </trkpt>
      <trkpt lat="43.49892" lon="6.94452">
        <ele>232</ele>
        <time>2014-01-12T09:43:11.000Z</time>
      </trkpt>
      <trkpt lat="43.49893" lon="6.94455">
        <ele>232.39999389648</ele>
        <time>2014-01-12T09:43:32.000Z</time>
      </trkpt>
      <trkpt lat="43.49888" lon="6.94449">
        <ele>230.80000305176</ele>
        <time>2014-01-12T09:43:36.000Z</time>
      </trkpt>
      <trkpt lat="43.49886" lon="6.94445">
        <ele>230</ele>
        <time>2014-01-12T09:43:38.000Z</time>
      </trkpt>
      <trkpt lat="43.49882" lon="6.94442">
        <ele>229</ele>
        <time>2014-01-12T09:43:40.000Z</time>
      </trkpt>
      <trkpt lat="43.49882" lon="6.94442">
        <ele>228.80000305176</ele>
        <time>2014-01-12T09:43:42.000Z</time>
      </trkpt>
      <trkpt lat="43.49881" lon="6.94442">
        <ele>228.60000610352</ele>
        <time>2014-01-12T09:43:44.000Z</time>
      </trkpt>
      <trkpt lat="43.49879" lon="6.94441">
        <ele>228</ele>
        <time>2014-01-12T09:43:49.000Z</time>
      </trkpt>
      <trkpt lat="43.49875" lon="6.94437">
        <ele>227</ele>
        <time>2014-01-12T09:43:52.000Z</time>
      </trkpt>
      <trkpt lat="43.49874" lon="6.94427">
        <ele>226.60000610352</ele>
        <time>2014-01-12T09:43:56.000Z</time>
      </trkpt>
      <trkpt lat="43.49875" lon="6.94421">
        <ele>226.60000610352</ele>
        <time>2014-01-12T09:43:59.000Z</time>
      </trkpt>
      <trkpt lat="43.49876" lon="6.94418">
        <ele>226.80000305176</ele>
        <time>2014-01-12T09:44:00.000Z</time>
      </trkpt>
      <trkpt lat="43.49879" lon="6.94415">
        <ele>227</ele>
        <time>2014-01-12T09:44:02.000Z</time>
      </trkpt>
      <trkpt lat="43.4988" lon="6.94412">
        <ele>227</ele>
        <time>2014-01-12T09:44:06.000Z</time>
      </trkpt>
      <trkpt lat="43.49882" lon="6.94399">
        <ele>226.19999694824</ele>
        <time>2014-01-12T09:44:10.000Z</time>
      </trkpt>
      <trkpt lat="43.49883" lon="6.94393">
        <ele>225.80000305176</ele>
        <time>2014-01-12T09:44:11.000Z</time>
      </trkpt>
      <trkpt lat="43.49883" lon="6.9437">
        <ele>223.19999694824</ele>
        <time>2014-01-12T09:44:15.000Z</time>
      </trkpt>
      <trkpt lat="43.49878" lon="6.94361">
        <ele>221.60000610352</ele>
        <time>2014-01-12T09:44:18.000Z</time>
      </trkpt>
      <trkpt lat="43.49879" lon="6.94341">
        <ele>219.80000305176</ele>
        <time>2014-01-12T09:44:22.000Z</time>
      </trkpt>
      <trkpt lat="43.49878" lon="6.94331">
        <ele>218.39999389648</ele>
        <time>2014-01-12T09:44:26.000Z</time>
      </trkpt>
      <trkpt lat="43.49878" lon="6.94333">
        <ele>218.80000305176</ele>
        <time>2014-01-12T09:44:30.000Z</time>
      </trkpt>
      <trkpt lat="43.4988" lon="6.9433">
        <ele>218.39999389648</ele>
        <time>2014-01-12T09:44:50.000Z</time>
      </trkpt>
      <trkpt lat="43.49878" lon="6.94325">
        <ele>217.39999389648</ele>
        <time>2014-01-12T09:44:52.000Z</time>
      </trkpt>
      <trkpt lat="43.49873" lon="6.94317">
        <ele>215.60000610352</ele>
        <time>2014-01-12T09:44:55.000Z</time>
      </trkpt>
      <trkpt lat="43.49872" lon="6.94316">
        <ele>215.19999694824</ele>
        <time>2014-01-12T09:44:56.000Z</time>
      </trkpt>
      <trkpt lat="43.49869" lon="6.94317">
        <ele>215.19999694824</ele>
        <time>2014-01-12T09:44:57.000Z</time>
      </trkpt>
      <trkpt lat="43.49863" lon="6.94316">
        <ele>214.39999389648</ele>
        <time>2014-01-12T09:44:59.000Z</time>
      </trkpt>
      <trkpt lat="43.49849" lon="6.94315">
        <ele>213</ele>
        <time>2014-01-12T09:45:03.000Z</time>
      </trkpt>
      <trkpt lat="43.49848" lon="6.94312">
        <ele>212.39999389648</ele>
        <time>2014-01-12T09:45:04.000Z</time>
      </trkpt>
      <trkpt lat="43.49839" lon="6.94307">
        <ele>211</ele>
        <time>2014-01-12T09:45:07.000Z</time>
      </trkpt>
      <trkpt lat="43.49837" lon="6.94306">
        <ele>210.60000610352</ele>
        <time>2014-01-12T09:45:09.000Z</time>
      </trkpt>
      <trkpt lat="43.49837" lon="6.94303">
        <ele>210.19999694824</ele>
        <time>2014-01-12T09:45:10.000Z</time>
      </trkpt>
      <trkpt lat="43.49841" lon="6.94294">
        <ele>209.19999694824</ele>
        <time>2014-01-12T09:45:13.000Z</time>
      </trkpt>
      <trkpt lat="43.49842" lon="6.9429">
        <ele>208.80000305176</ele>
        <time>2014-01-12T09:45:14.000Z</time>
      </trkpt>
      <trkpt lat="43.49837" lon="6.94286">
        <ele>208</ele>
        <time>2014-01-12T09:45:17.000Z</time>
      </trkpt>
      <trkpt lat="43.49827" lon="6.94289">
        <ele>207</ele>
        <time>2014-01-12T09:45:21.000Z</time>
      </trkpt>
      <trkpt lat="43.49825" lon="6.94288">
        <ele>206.39999389648</ele>
        <time>2014-01-12T09:45:22.000Z</time>
      </trkpt>
      <trkpt lat="43.49816" lon="6.94291">
        <ele>205</ele>
        <time>2014-01-12T09:45:25.000Z</time>
      </trkpt>
      <trkpt lat="43.49804" lon="6.94287">
        <ele>202.39999389648</ele>
        <time>2014-01-12T09:45:29.000Z</time>
      </trkpt>
      <trkpt lat="43.49792" lon="6.94289">
        <ele>200.19999694824</ele>
        <time>2014-01-12T09:45:32.000Z</time>
      </trkpt>
      <trkpt lat="43.49778" lon="6.94285">
        <ele>197.39999389648</ele>
        <time>2014-01-12T09:45:35.000Z</time>
      </trkpt>
      <trkpt lat="43.49772" lon="6.94282">
        <ele>196.39999389648</ele>
        <time>2014-01-12T09:45:36.000Z</time>
      </trkpt>
      <trkpt lat="43.49767" lon="6.94279">
        <ele>195.39999389648</ele>
        <time>2014-01-12T09:45:37.000Z</time>
      </trkpt>
      <trkpt lat="43.49758" lon="6.94271">
        <ele>194.19999694824</ele>
        <time>2014-01-12T09:45:39.000Z</time>
      </trkpt>
      <trkpt lat="43.49756" lon="6.94266">
        <ele>194.19999694824</ele>
        <time>2014-01-12T09:45:40.000Z</time>
      </trkpt>
      <trkpt lat="43.49755" lon="6.94252">
        <ele>194.39999389648</ele>
        <time>2014-01-12T09:45:43.000Z</time>
      </trkpt>
      <trkpt lat="43.49751" lon="6.94247">
        <ele>193.60000610352</ele>
        <time>2014-01-12T09:45:46.000Z</time>
      </trkpt>
      <trkpt lat="43.49748" lon="6.9424">
        <ele>191.80000305176</ele>
        <time>2014-01-12T09:45:48.000Z</time>
      </trkpt>
      <trkpt lat="43.49741" lon="6.94231">
        <ele>189.39999389648</ele>
        <time>2014-01-12T09:45:50.000Z</time>
      </trkpt>
      <trkpt lat="43.49728" lon="6.94221">
        <ele>185.19999694824</ele>
        <time>2014-01-12T09:45:54.000Z</time>
      </trkpt>
      <trkpt lat="43.4973" lon="6.94227">
        <ele>186.60000610352</ele>
        <time>2014-01-12T09:45:56.000Z</time>
      </trkpt>
      <trkpt lat="43.49738" lon="6.9423">
        <ele>188.39999389648</ele>
        <time>2014-01-12T09:46:00.000Z</time>
      </trkpt>
      <trkpt lat="43.49739" lon="6.94231">
        <ele>188.80000305176</ele>
        <time>2014-01-12T09:46:01.000Z</time>
      </trkpt>
      <trkpt lat="43.49742" lon="6.94232">
        <ele>189.39999389648</ele>
        <time>2014-01-12T09:46:04.000Z</time>
      </trkpt>
      <trkpt lat="43.49742" lon="6.9423">
        <ele>189.19999694824</ele>
        <time>2014-01-12T09:46:06.000Z</time>
      </trkpt>
      <trkpt lat="43.49744" lon="6.94227">
        <ele>189.19999694824</ele>
        <time>2014-01-12T09:46:10.000Z</time>
      </trkpt>
      <trkpt lat="43.49746" lon="6.94226">
        <ele>189.60000610352</ele>
        <time>2014-01-12T09:46:11.000Z</time>
      </trkpt>
      <trkpt lat="43.49755" lon="6.94222">
        <ele>190.19999694824</ele>
        <time>2014-01-12T09:46:17.000Z</time>
      </trkpt>
      <trkpt lat="43.49757" lon="6.94222">
        <ele>190.39999389648</ele>
        <time>2014-01-12T09:46:18.000Z</time>
      </trkpt>
      <trkpt lat="43.49756" lon="6.94226">
        <ele>191</ele>
        <time>2014-01-12T09:46:21.000Z</time>
      </trkpt>
      <trkpt lat="43.49755" lon="6.94227">
        <ele>191</ele>
        <time>2014-01-12T09:46:22.000Z</time>
      </trkpt>
      <trkpt lat="43.49755" lon="6.94229">
        <ele>191.39999389648</ele>
        <time>2014-01-12T09:46:23.000Z</time>
      </trkpt>
      <trkpt lat="43.49759" lon="6.94235">
        <ele>192.80000305176</ele>
        <time>2014-01-12T09:46:25.000Z</time>
      </trkpt>
      <trkpt lat="43.49763" lon="6.94241">
        <ele>194</ele>
        <time>2014-01-12T09:46:27.000Z</time>
      </trkpt>
      <trkpt lat="43.49769" lon="6.94249">
        <ele>195.80000305176</ele>
        <time>2014-01-12T09:46:30.000Z</time>
      </trkpt>
      <trkpt lat="43.49771" lon="6.94256">
        <ele>196.19999694824</ele>
        <time>2014-01-12T09:46:33.000Z</time>
      </trkpt>
      <trkpt lat="43.4977" lon="6.94258">
        <ele>196</ele>
        <time>2014-01-12T09:46:34.000Z</time>
      </trkpt>
      <trkpt lat="43.49764" lon="6.94258">
        <ele>195.39999389648</ele>
        <time>2014-01-12T09:46:39.000Z</time>
      </trkpt>
      <trkpt lat="43.49757" lon="6.94247">
        <ele>194.19999694824</ele>
        <time>2014-01-12T09:46:42.000Z</time>
      </trkpt>
      <trkpt lat="43.49741" lon="6.94227">
        <ele>188.60000610352</ele>
        <time>2014-01-12T09:46:46.000Z</time>
      </trkpt>
      <trkpt lat="43.49731" lon="6.94219">
        <ele>185.39999389648</ele>
        <time>2014-01-12T09:46:49.000Z</time>
      </trkpt>
      <trkpt lat="43.49721" lon="6.94211">
        <ele>182.60000610352</ele>
        <time>2014-01-12T09:46:53.000Z</time>
      </trkpt>
      <trkpt lat="43.49719" lon="6.94212">
        <ele>182</ele>
        <time>2014-01-12T09:46:57.000Z</time>
      </trkpt>
      <trkpt lat="43.49719" lon="6.94215">
        <ele>182.60000610352</ele>
        <time>2014-01-12T09:47:05.000Z</time>
      </trkpt>
      <trkpt lat="43.49714" lon="6.94217">
        <ele>182</ele>
        <time>2014-01-12T09:47:27.000Z</time>
      </trkpt>
      <trkpt lat="43.49699" lon="6.94221">
        <ele>179.60000610352</ele>
        <time>2014-01-12T09:47:31.000Z</time>
      </trkpt>
      <trkpt lat="43.49685" lon="6.94222">
        <ele>177</ele>
        <time>2014-01-12T09:47:35.000Z</time>
      </trkpt>
      <trkpt lat="43.49676" lon="6.94231">
        <ele>176</ele>
        <time>2014-01-12T09:47:40.000Z</time>
      </trkpt>
      <trkpt lat="43.49674" lon="6.94234">
        <ele>176</ele>
        <time>2014-01-12T09:47:41.000Z</time>
      </trkpt>
      <trkpt lat="43.49669" lon="6.94244">
        <ele>176</ele>
        <time>2014-01-12T09:47:44.000Z</time>
      </trkpt>
      <trkpt lat="43.49657" lon="6.94242">
        <ele>173.39999389648</ele>
        <time>2014-01-12T09:47:47.000Z</time>
      </trkpt>
      <trkpt lat="43.49642" lon="6.94242">
        <ele>170.60000610352</ele>
        <time>2014-01-12T09:47:50.000Z</time>
      </trkpt>
      <trkpt lat="43.49626" lon="6.94251">
        <ele>168.60000610352</ele>
        <time>2014-01-12T09:47:53.000Z</time>
      </trkpt>
      <trkpt lat="43.49622" lon="6.94254">
        <ele>167.60000610352</ele>
        <time>2014-01-12T09:47:54.000Z</time>
      </trkpt>
      <trkpt lat="43.49619" lon="6.94255">
        <ele>166.80000305176</ele>
        <time>2014-01-12T09:47:55.000Z</time>
      </trkpt>
      <trkpt lat="43.4961" lon="6.94264">
        <ele>164.39999389648</ele>
        <time>2014-01-12T09:47:58.000Z</time>
      </trkpt>
      <trkpt lat="43.49603" lon="6.94275">
        <ele>162.19999694824</ele>
        <time>2014-01-12T09:48:01.000Z</time>
      </trkpt>
      <trkpt lat="43.496" lon="6.94278">
        <ele>161.60000610352</ele>
        <time>2014-01-12T09:48:02.000Z</time>
      </trkpt>
      <trkpt lat="43.49588" lon="6.94278">
        <ele>159.80000305176</ele>
        <time>2014-01-12T09:48:06.000Z</time>
      </trkpt>
      <trkpt lat="43.49578" lon="6.94279">
        <ele>158.60000610352</ele>
        <time>2014-01-12T09:48:09.000Z</time>
      </trkpt>
      <trkpt lat="43.49574" lon="6.94278">
        <ele>158.39999389648</ele>
        <time>2014-01-12T09:48:10.000Z</time>
      </trkpt>
      <trkpt lat="43.49568" lon="6.94269">
        <ele>158.80000305176</ele>
        <time>2014-01-12T09:48:13.000Z</time>
      </trkpt>
      <trkpt lat="43.49561" lon="6.94266">
        <ele>158.60000610352</ele>
        <time>2014-01-12T09:48:15.000Z</time>
      </trkpt>
      <trkpt lat="43.49557" lon="6.94267">
        <ele>158.39999389648</ele>
        <time>2014-01-12T09:48:16.000Z</time>
      </trkpt>
      <trkpt lat="43.49546" lon="6.94256">
        <ele>158.60000610352</ele>
        <time>2014-01-12T09:48:20.000Z</time>
      </trkpt>
      <trkpt lat="43.49536" lon="6.94246">
        <ele>158.19999694824</ele>
        <time>2014-01-12T09:48:25.000Z</time>
      </trkpt>
      <trkpt lat="43.4953" lon="6.94248">
        <ele>158.19999694824</ele>
        <time>2014-01-12T09:48:27.000Z</time>
      </trkpt>
      <trkpt lat="43.49521" lon="6.94249">
        <ele>158</ele>
        <time>2014-01-12T09:48:31.000Z</time>
      </trkpt>
      <trkpt lat="43.49508" lon="6.94252">
        <ele>157.19999694824</ele>
        <time>2014-01-12T09:48:38.000Z</time>
      </trkpt>
      <trkpt lat="43.49489" lon="6.94253">
        <ele>156.60000610352</ele>
        <time>2014-01-12T09:48:48.000Z</time>
      </trkpt>
      <trkpt lat="43.49473" lon="6.94251">
        <ele>156.60000610352</ele>
        <time>2014-01-12T09:48:56.000Z</time>
      </trkpt>
      <trkpt lat="43.49458" lon="6.94252">
        <ele>156.19999694824</ele>
        <time>2014-01-12T09:49:02.000Z</time>
      </trkpt>
      <trkpt lat="43.49446" lon="6.94248">
        <ele>156.19999694824</ele>
        <time>2014-01-12T09:49:07.000Z</time>
      </trkpt>
      <trkpt lat="43.49445" lon="6.94245">
        <ele>156</ele>
        <time>2014-01-12T09:49:08.000Z</time>
      </trkpt>
      <trkpt lat="43.49438" lon="6.94241">
        <ele>155.60000610352</ele>
        <time>2014-01-12T09:49:12.000Z</time>
      </trkpt>
      <trkpt lat="43.49438" lon="6.9424">
        <ele>155.39999389648</ele>
        <time>2014-01-12T09:49:13.000Z</time>
      </trkpt>
      <trkpt lat="43.49432" lon="6.94238">
        <ele>155.19999694824</ele>
        <time>2014-01-12T09:49:17.000Z</time>
      </trkpt>
      <trkpt lat="43.4943" lon="6.94241">
        <ele>155.39999389648</ele>
        <time>2014-01-12T09:49:20.000Z</time>
      </trkpt>
      <trkpt lat="43.49429" lon="6.9424">
        <ele>155.39999389648</ele>
        <time>2014-01-12T09:49:21.000Z</time>
      </trkpt>
      <trkpt lat="43.49426" lon="6.94239">
        <ele>155.19999694824</ele>
        <time>2014-01-12T09:49:26.000Z</time>
      </trkpt>
      <trkpt lat="43.49425" lon="6.94239">
        <ele>155.19999694824</ele>
        <time>2014-01-12T09:49:28.000Z</time>
      </trkpt>
      <trkpt lat="43.49423" lon="6.94239">
        <ele>155.19999694824</ele>
        <time>2014-01-12T09:49:29.000Z</time>
      </trkpt>
      <trkpt lat="43.49419" lon="6.94241">
        <ele>155.39999389648</ele>
        <time>2014-01-12T09:49:32.000Z</time>
      </trkpt>
      <trkpt lat="43.49417" lon="6.94243">
        <ele>155.60000610352</ele>
        <time>2014-01-12T09:49:33.000Z</time>
      </trkpt>
      <trkpt lat="43.49412" lon="6.9425">
        <ele>156.19999694824</ele>
        <time>2014-01-12T09:49:37.000Z</time>
      </trkpt>
      <trkpt lat="43.49409" lon="6.94252">
        <ele>155.80000305176</ele>
        <time>2014-01-12T09:49:43.000Z</time>
      </trkpt>
      <trkpt lat="43.49406" lon="6.94258">
        <ele>155</ele>
        <time>2014-01-12T09:51:05.000Z</time>
      </trkpt>
      <trkpt lat="43.49395" lon="6.94271">
        <ele>152.80000305176</ele>
        <time>2014-01-12T09:51:11.000Z</time>
      </trkpt>
      <trkpt lat="43.49384" lon="6.94279">
        <ele>151.60000610352</ele>
        <time>2014-01-12T09:51:15.000Z</time>
      </trkpt>
      <trkpt lat="43.49372" lon="6.94289">
        <ele>150</ele>
        <time>2014-01-12T09:51:19.000Z</time>
      </trkpt>
      <trkpt lat="43.49367" lon="6.943">
        <ele>148</ele>
        <time>2014-01-12T09:51:23.000Z</time>
      </trkpt>
      <trkpt lat="43.49366" lon="6.94307">
        <ele>146.80000305176</ele>
        <time>2014-01-12T09:51:26.000Z</time>
      </trkpt>
      <trkpt lat="43.49367" lon="6.9431">
        <ele>146.19999694824</ele>
        <time>2014-01-12T09:51:28.000Z</time>
      </trkpt>
      <trkpt lat="43.49363" lon="6.94324">
        <ele>143.80000305176</ele>
        <time>2014-01-12T09:51:32.000Z</time>
      </trkpt>
      <trkpt lat="43.49362" lon="6.9433">
        <ele>142.60000610352</ele>
        <time>2014-01-12T09:51:35.000Z</time>
      </trkpt>
      <trkpt lat="43.49363" lon="6.94332">
        <ele>142.19999694824</ele>
        <time>2014-01-12T09:51:36.000Z</time>
      </trkpt>
      <trkpt lat="43.49359" lon="6.94341">
        <ele>139.39999389648</ele>
        <time>2014-01-12T09:51:39.000Z</time>
      </trkpt>
      <trkpt lat="43.49353" lon="6.94353">
        <ele>135.60000610352</ele>
        <time>2014-01-12T09:51:43.000Z</time>
      </trkpt>
      <trkpt lat="43.49346" lon="6.94372">
        <ele>129.39999389648</ele>
        <time>2014-01-12T09:51:49.000Z</time>
      </trkpt>
      <trkpt lat="43.49344" lon="6.94376">
        <ele>128.19999694824</ele>
        <time>2014-01-12T09:51:53.000Z</time>
      </trkpt>
      <trkpt lat="43.49339" lon="6.94384">
        <ele>126</ele>
        <time>2014-01-12T09:52:09.000Z</time>
      </trkpt>
      <trkpt lat="43.49339" lon="6.94392">
        <ele>123.19999694824</ele>
        <time>2014-01-12T09:52:14.000Z</time>
      </trkpt>
      <trkpt lat="43.49339" lon="6.94395">
        <ele>122.59999847412</ele>
        <time>2014-01-12T09:52:16.000Z</time>
      </trkpt>
      <trkpt lat="43.49339" lon="6.94395">
        <ele>122.40000152588</ele>
        <time>2014-01-12T09:52:18.000Z</time>
      </trkpt>
      <trkpt lat="43.4934" lon="6.94389">
        <ele>124.40000152588</ele>
        <time>2014-01-12T09:52:33.000Z</time>
      </trkpt>
      <trkpt lat="43.49337" lon="6.9439">
        <ele>124</ele>
        <time>2014-01-12T09:52:36.000Z</time>
      </trkpt>
      <trkpt lat="43.49335" lon="6.94393">
        <ele>123.19999694824</ele>
        <time>2014-01-12T09:52:38.000Z</time>
      </trkpt>
      <trkpt lat="43.49335" lon="6.94395">
        <ele>122.59999847412</ele>
        <time>2014-01-12T09:52:41.000Z</time>
      </trkpt>
      <trkpt lat="43.49328" lon="6.94398">
        <ele>120.59999847412</ele>
        <time>2014-01-12T09:52:52.000Z</time>
      </trkpt>
      <trkpt lat="43.49317" lon="6.94398">
        <ele>118.19999694824</ele>
        <time>2014-01-12T09:52:56.000Z</time>
      </trkpt>
      <trkpt lat="43.49298" lon="6.94402">
        <ele>112.80000305176</ele>
        <time>2014-01-12T09:53:02.000Z</time>
      </trkpt>
      <trkpt lat="43.49287" lon="6.94401">
        <ele>110.80000305176</ele>
        <time>2014-01-12T09:53:06.000Z</time>
      </trkpt>
      <trkpt lat="43.49285" lon="6.94403">
        <ele>109.80000305176</ele>
        <time>2014-01-12T09:53:07.000Z</time>
      </trkpt>
      <trkpt lat="43.49285" lon="6.94407">
        <ele>108.80000305176</ele>
        <time>2014-01-12T09:53:09.000Z</time>
      </trkpt>
      <trkpt lat="43.49283" lon="6.94412">
        <ele>107.40000152588</ele>
        <time>2014-01-12T09:53:11.000Z</time>
      </trkpt>
      <trkpt lat="43.4928" lon="6.94411">
        <ele>107</ele>
        <time>2014-01-12T09:53:13.000Z</time>
      </trkpt>
      <trkpt lat="43.49273" lon="6.94405">
        <ele>107</ele>
        <time>2014-01-12T09:53:17.000Z</time>
      </trkpt>
      <trkpt lat="43.49273" lon="6.94404">
        <ele>107</ele>
        <time>2014-01-12T09:53:19.000Z</time>
      </trkpt>
      <trkpt lat="43.49265" lon="6.94395">
        <ele>107.19999694824</ele>
        <time>2014-01-12T09:56:07.000Z</time>
      </trkpt>
      <trkpt lat="43.49265" lon="6.94394">
        <ele>107.19999694824</ele>
        <time>2014-01-12T09:56:08.000Z</time>
      </trkpt>
      <trkpt lat="43.49264" lon="6.94393">
        <ele>107.19999694824</ele>
        <time>2014-01-12T09:56:13.000Z</time>
      </trkpt>
      <trkpt lat="43.49261" lon="6.94391">
        <ele>107</ele>
        <time>2014-01-12T09:56:15.000Z</time>
      </trkpt>
      <trkpt lat="43.49256" lon="6.94385">
        <ele>106.80000305176</ele>
        <time>2014-01-12T09:56:18.000Z</time>
      </trkpt>
      <trkpt lat="43.49245" lon="6.94382">
        <ele>104.19999694824</ele>
        <time>2014-01-12T09:56:23.000Z</time>
      </trkpt>
      <trkpt lat="43.49233" lon="6.94381">
        <ele>99.800003051758</ele>
        <time>2014-01-12T09:56:28.000Z</time>
      </trkpt>
      <trkpt lat="43.49229" lon="6.94379">
        <ele>98.800003051758</ele>
        <time>2014-01-12T09:56:31.000Z</time>
      </trkpt>
      <trkpt lat="43.49229" lon="6.94378">
        <ele>99</ele>
        <time>2014-01-12T09:56:32.000Z</time>
      </trkpt>
      <trkpt lat="43.4923" lon="6.94377">
        <ele>99.599998474121</ele>
        <time>2014-01-12T09:56:38.000Z</time>
      </trkpt>
      <trkpt lat="43.4923" lon="6.94379">
        <ele>99.199996948242</ele>
        <time>2014-01-12T09:56:47.000Z</time>
      </trkpt>
      <trkpt lat="43.49229" lon="6.9437">
        <ele>100.59999847412</ele>
        <time>2014-01-12T09:57:41.000Z</time>
      </trkpt>
      <trkpt lat="43.49229" lon="6.94365">
        <ele>101</ele>
        <time>2014-01-12T09:57:43.000Z</time>
      </trkpt>
      <trkpt lat="43.49227" lon="6.94357">
        <ele>102</ele>
        <time>2014-01-12T09:57:47.000Z</time>
      </trkpt>
      <trkpt lat="43.49227" lon="6.94345">
        <ele>104</ele>
        <time>2014-01-12T09:57:54.000Z</time>
      </trkpt>
      <trkpt lat="43.49223" lon="6.94338">
        <ele>103.80000305176</ele>
        <time>2014-01-12T09:57:57.000Z</time>
      </trkpt>
      <trkpt lat="43.49219" lon="6.94335">
        <ele>102.80000305176</ele>
        <time>2014-01-12T09:57:59.000Z</time>
      </trkpt>
      <trkpt lat="43.49214" lon="6.94332">
        <ele>101.80000305176</ele>
        <time>2014-01-12T09:58:01.000Z</time>
      </trkpt>
      <trkpt lat="43.49204" lon="6.94323">
        <ele>100.80000305176</ele>
        <time>2014-01-12T09:58:05.000Z</time>
      </trkpt>
      <trkpt lat="43.49185" lon="6.94303">
        <ele>99.599998474121</ele>
        <time>2014-01-12T09:58:11.000Z</time>
      </trkpt>
      <trkpt lat="43.49172" lon="6.94284">
        <ele>101</ele>
        <time>2014-01-12T09:58:16.000Z</time>
      </trkpt>
      <trkpt lat="43.49164" lon="6.94272">
        <ele>102.40000152588</ele>
        <time>2014-01-12T09:58:20.000Z</time>
      </trkpt>
      <trkpt lat="43.4915" lon="6.94264">
        <ele>102.40000152588</ele>
        <time>2014-01-12T09:58:25.000Z</time>
      </trkpt>
      <trkpt lat="43.49127" lon="6.94256">
        <ele>101</ele>
        <time>2014-01-12T09:58:32.000Z</time>
      </trkpt>
      <trkpt lat="43.49103" lon="6.94248">
        <ele>99.599998474121</ele>
        <time>2014-01-12T09:58:39.000Z</time>
      </trkpt>
      <trkpt lat="43.49089" lon="6.94229">
        <ele>101</ele>
        <time>2014-01-12T09:58:45.000Z</time>
      </trkpt>
      <trkpt lat="43.4908" lon="6.94215">
        <ele>102.40000152588</ele>
        <time>2014-01-12T09:58:49.000Z</time>
      </trkpt>
      <trkpt lat="43.4907" lon="6.94195">
        <ele>106</ele>
        <time>2014-01-12T09:58:55.000Z</time>
      </trkpt>
      <trkpt lat="43.4906" lon="6.94181">
        <ele>108.40000152588</ele>
        <time>2014-01-12T09:59:01.000Z</time>
      </trkpt>
      <trkpt lat="43.49057" lon="6.94177">
        <ele>109</ele>
        <time>2014-01-12T09:59:06.000Z</time>
      </trkpt>
      <trkpt lat="43.49054" lon="6.94174">
        <ele>109.59999847412</ele>
        <time>2014-01-12T09:59:12.000Z</time>
      </trkpt>
      <trkpt lat="43.49054" lon="6.94167">
        <ele>110.59999847412</ele>
        <time>2014-01-12T09:59:31.000Z</time>
      </trkpt>
      <trkpt lat="43.49054" lon="6.94164">
        <ele>110.59999847412</ele>
        <time>2014-01-12T09:59:32.000Z</time>
      </trkpt>
      <trkpt lat="43.49052" lon="6.94155">
        <ele>110.40000152588</ele>
        <time>2014-01-12T09:59:35.000Z</time>
      </trkpt>
      <trkpt lat="43.49052" lon="6.94152">
        <ele>110.40000152588</ele>
        <time>2014-01-12T09:59:37.000Z</time>
      </trkpt>
      <trkpt lat="43.49052" lon="6.94153">
        <ele>110.40000152588</ele>
        <time>2014-01-12T09:59:40.000Z</time>
      </trkpt>
      <trkpt lat="43.49052" lon="6.94146">
        <ele>110.19999694824</ele>
        <time>2014-01-12T10:06:26.000Z</time>
      </trkpt>
      <trkpt lat="43.49053" lon="6.94145">
        <ele>110.19999694824</ele>
        <time>2014-01-12T10:06:27.000Z</time>
      </trkpt>
      <trkpt lat="43.49058" lon="6.94139">
        <ele>110.19999694824</ele>
        <time>2014-01-12T10:06:30.000Z</time>
      </trkpt>
      <trkpt lat="43.49061" lon="6.94131">
        <ele>110.19999694824</ele>
        <time>2014-01-12T10:06:33.000Z</time>
      </trkpt>
      <trkpt lat="43.49071" lon="6.94113">
        <ele>110.40000152588</ele>
        <time>2014-01-12T10:06:39.000Z</time>
      </trkpt>
      <trkpt lat="43.4908" lon="6.94093">
        <ele>110.80000305176</ele>
        <time>2014-01-12T10:06:45.000Z</time>
      </trkpt>
      <trkpt lat="43.4909" lon="6.94068">
        <ele>112.80000305176</ele>
        <time>2014-01-12T10:06:52.000Z</time>
      </trkpt>
      <trkpt lat="43.49095" lon="6.94048">
        <ele>114</ele>
        <time>2014-01-12T10:06:58.000Z</time>
      </trkpt>
      <trkpt lat="43.491" lon="6.94013">
        <ele>114.40000152588</ele>
        <time>2014-01-12T10:07:08.000Z</time>
      </trkpt>
      <trkpt lat="43.49104" lon="6.93989">
        <ele>114.80000305176</ele>
        <time>2014-01-12T10:07:15.000Z</time>
      </trkpt>
      <trkpt lat="43.49109" lon="6.93961">
        <ele>114.59999847412</ele>
        <time>2014-01-12T10:07:23.000Z</time>
      </trkpt>
      <trkpt lat="43.49111" lon="6.93935">
        <ele>113.40000152588</ele>
        <time>2014-01-12T10:07:30.000Z</time>
      </trkpt>
      <trkpt lat="43.49113" lon="6.93904">
        <ele>111.59999847412</ele>
        <time>2014-01-12T10:07:38.000Z</time>
      </trkpt>
      <trkpt lat="43.49119" lon="6.9388">
        <ele>111.80000305176</ele>
        <time>2014-01-12T10:07:45.000Z</time>
      </trkpt>
      <trkpt lat="43.49127" lon="6.93866">
        <ele>113.59999847412</ele>
        <time>2014-01-12T10:07:51.000Z</time>
      </trkpt>
      <trkpt lat="43.49133" lon="6.93857">
        <ele>115.19999694824</ele>
        <time>2014-01-12T10:07:56.000Z</time>
      </trkpt>
      <trkpt lat="43.4914" lon="6.93848">
        <ele>116.59999847412</ele>
        <time>2014-01-12T10:08:01.000Z</time>
      </trkpt>
      <trkpt lat="43.49144" lon="6.93837">
        <ele>116.80000305176</ele>
        <time>2014-01-12T10:08:07.000Z</time>
      </trkpt>
      <trkpt lat="43.49145" lon="6.93835">
        <ele>117.19999694824</ele>
        <time>2014-01-12T10:08:08.000Z</time>
      </trkpt>
      <trkpt lat="43.49146" lon="6.93825">
        <ele>117.19999694824</ele>
        <time>2014-01-12T10:08:11.000Z</time>
      </trkpt>
      <trkpt lat="43.4915" lon="6.9381">
        <ele>118</ele>
        <time>2014-01-12T10:08:15.000Z</time>
      </trkpt>
      <trkpt lat="43.49151" lon="6.93807">
        <ele>118.40000152588</ele>
        <time>2014-01-12T10:08:16.000Z</time>
      </trkpt>
      <trkpt lat="43.49159" lon="6.93787">
        <ele>121</ele>
        <time>2014-01-12T10:08:22.000Z</time>
      </trkpt>
      <trkpt lat="43.49157" lon="6.93779">
        <ele>120</ele>
        <time>2014-01-12T10:08:24.000Z</time>
      </trkpt>
      <trkpt lat="43.49155" lon="6.93773">
        <ele>119</ele>
        <time>2014-01-12T10:08:26.000Z</time>
      </trkpt>
      <trkpt lat="43.49149" lon="6.93763">
        <ele>116.40000152588</ele>
        <time>2014-01-12T10:08:30.000Z</time>
      </trkpt>
      <trkpt lat="43.49146" lon="6.93758">
        <ele>115</ele>
        <time>2014-01-12T10:08:32.000Z</time>
      </trkpt>
      <trkpt lat="43.49135" lon="6.93731">
        <ele>110.59999847412</ele>
        <time>2014-01-12T10:08:41.000Z</time>
      </trkpt>
      <trkpt lat="43.49136" lon="6.93711">
        <ele>111.40000152588</ele>
        <time>2014-01-12T10:08:46.000Z</time>
      </trkpt>
      <trkpt lat="43.49141" lon="6.93685">
        <ele>114</ele>
        <time>2014-01-12T10:08:53.000Z</time>
      </trkpt>
      <trkpt lat="43.49147" lon="6.93659">
        <ele>115.80000305176</ele>
        <time>2014-01-12T10:09:01.000Z</time>
      </trkpt>
      <trkpt lat="43.49152" lon="6.93639">
        <ele>115.80000305176</ele>
        <time>2014-01-12T10:09:07.000Z</time>
      </trkpt>
      <trkpt lat="43.49161" lon="6.93623">
        <ele>117</ele>
        <time>2014-01-12T10:09:13.000Z</time>
      </trkpt>
      <trkpt lat="43.49169" lon="6.93612">
        <ele>118.40000152588</ele>
        <time>2014-01-12T10:09:19.000Z</time>
      </trkpt>
      <trkpt lat="43.49179" lon="6.936">
        <ele>121</ele>
        <time>2014-01-12T10:09:24.000Z</time>
      </trkpt>
      <trkpt lat="43.49188" lon="6.93585">
        <ele>122.40000152588</ele>
        <time>2014-01-12T10:09:30.000Z</time>
      </trkpt>
      <trkpt lat="43.49192" lon="6.93579">
        <ele>123.59999847412</ele>
        <time>2014-01-12T10:09:34.000Z</time>
      </trkpt>
      <trkpt lat="43.49193" lon="6.93575">
        <ele>123.80000305176</ele>
        <time>2014-01-12T10:09:35.000Z</time>
      </trkpt>
      <trkpt lat="43.49193" lon="6.93559">
        <ele>123.40000152588</ele>
        <time>2014-01-12T10:09:40.000Z</time>
      </trkpt>
      <trkpt lat="43.49192" lon="6.93545">
        <ele>122.59999847412</ele>
        <time>2014-01-12T10:09:45.000Z</time>
      </trkpt>
      <trkpt lat="43.49192" lon="6.93541">
        <ele>122.19999694824</ele>
        <time>2014-01-12T10:09:47.000Z</time>
      </trkpt>
      <trkpt lat="43.49189" lon="6.93534">
        <ele>120.80000305176</ele>
        <time>2014-01-12T10:09:51.000Z</time>
      </trkpt>
      <trkpt lat="43.49183" lon="6.93522">
        <ele>117.80000305176</ele>
        <time>2014-01-12T10:09:57.000Z</time>
      </trkpt>
      <trkpt lat="43.49182" lon="6.93499">
        <ele>116.40000152588</ele>
        <time>2014-01-12T10:10:04.000Z</time>
      </trkpt>
      <trkpt lat="43.49184" lon="6.93485">
        <ele>117</ele>
        <time>2014-01-12T10:10:09.000Z</time>
      </trkpt>
      <trkpt lat="43.49189" lon="6.93466">
        <ele>118.80000305176</ele>
        <time>2014-01-12T10:10:16.000Z</time>
      </trkpt>
      <trkpt lat="43.49195" lon="6.93445">
        <ele>121.40000152588</ele>
        <time>2014-01-12T10:10:23.000Z</time>
      </trkpt>
      <trkpt lat="43.49201" lon="6.93426">
        <ele>124</ele>
        <time>2014-01-12T10:10:29.000Z</time>
      </trkpt>
      <trkpt lat="43.49206" lon="6.93407">
        <ele>125.40000152588</ele>
        <time>2014-01-12T10:10:35.000Z</time>
      </trkpt>
      <trkpt lat="43.49212" lon="6.9339">
        <ele>127.59999847412</ele>
        <time>2014-01-12T10:10:41.000Z</time>
      </trkpt>
      <trkpt lat="43.49219" lon="6.93366">
        <ele>129.60000610352</ele>
        <time>2014-01-12T10:10:49.000Z</time>
      </trkpt>
      <trkpt lat="43.49223" lon="6.93349">
        <ele>130.39999389648</ele>
        <time>2014-01-12T10:10:55.000Z</time>
      </trkpt>
      <trkpt lat="43.49227" lon="6.93334">
        <ele>131.39999389648</ele>
        <time>2014-01-12T10:11:01.000Z</time>
      </trkpt>
      <trkpt lat="43.49232" lon="6.93314">
        <ele>131.60000610352</ele>
        <time>2014-01-12T10:11:08.000Z</time>
      </trkpt>
      <trkpt lat="43.49234" lon="6.93295">
        <ele>130.39999389648</ele>
        <time>2014-01-12T10:11:15.000Z</time>
      </trkpt>
      <trkpt lat="43.49233" lon="6.93281">
        <ele>128.60000610352</ele>
        <time>2014-01-12T10:11:20.000Z</time>
      </trkpt>
      <trkpt lat="43.49235" lon="6.93269">
        <ele>128.19999694824</ele>
        <time>2014-01-12T10:11:24.000Z</time>
      </trkpt>
      <trkpt lat="43.49237" lon="6.93261">
        <ele>127.80000305176</ele>
        <time>2014-01-12T10:11:26.000Z</time>
      </trkpt>
      <trkpt lat="43.49238" lon="6.93258">
        <ele>128</ele>
        <time>2014-01-12T10:11:27.000Z</time>
      </trkpt>
      <trkpt lat="43.49244" lon="6.93247">
        <ele>128.80000305176</ele>
        <time>2014-01-12T10:11:31.000Z</time>
      </trkpt>
      <trkpt lat="43.49252" lon="6.93232">
        <ele>128.80000305176</ele>
        <time>2014-01-12T10:11:37.000Z</time>
      </trkpt>
      <trkpt lat="43.4926" lon="6.93221">
        <ele>129</ele>
        <time>2014-01-12T10:11:42.000Z</time>
      </trkpt>
      <trkpt lat="43.49269" lon="6.93212">
        <ele>130.60000610352</ele>
        <time>2014-01-12T10:11:47.000Z</time>
      </trkpt>
      <trkpt lat="43.49278" lon="6.93201">
        <ele>131.60000610352</ele>
        <time>2014-01-12T10:11:52.000Z</time>
      </trkpt>
      <trkpt lat="43.49289" lon="6.93188">
        <ele>133.39999389648</ele>
        <time>2014-01-12T10:11:58.000Z</time>
      </trkpt>
      <trkpt lat="43.49299" lon="6.93174">
        <ele>134.39999389648</ele>
        <time>2014-01-12T10:12:04.000Z</time>
      </trkpt>
      <trkpt lat="43.49301" lon="6.93164">
        <ele>133.39999389648</ele>
        <time>2014-01-12T10:12:09.000Z</time>
      </trkpt>
      <trkpt lat="43.49301" lon="6.93152">
        <ele>131.19999694824</ele>
        <time>2014-01-12T10:12:13.000Z</time>
      </trkpt>
      <trkpt lat="43.49298" lon="6.93132">
        <ele>126</ele>
        <time>2014-01-12T10:12:19.000Z</time>
      </trkpt>
      <trkpt lat="43.49305" lon="6.93118">
        <ele>126.40000152588</ele>
        <time>2014-01-12T10:12:25.000Z</time>
      </trkpt>
      <trkpt lat="43.49315" lon="6.93108">
        <ele>128.80000305176</ele>
        <time>2014-01-12T10:12:30.000Z</time>
      </trkpt>
      <trkpt lat="43.49329" lon="6.93092">
        <ele>131.60000610352</ele>
        <time>2014-01-12T10:12:36.000Z</time>
      </trkpt>
      <trkpt lat="43.4934" lon="6.93072">
        <ele>132</ele>
        <time>2014-01-12T10:12:41.000Z</time>
      </trkpt>
      <trkpt lat="43.49356" lon="6.93045">
        <ele>131.80000305176</ele>
        <time>2014-01-12T10:12:48.000Z</time>
      </trkpt>
      <trkpt lat="43.49363" lon="6.93018">
        <ele>129.60000610352</ele>
        <time>2014-01-12T10:12:54.000Z</time>
      </trkpt>
      <trkpt lat="43.49361" lon="6.93007">
        <ele>126.80000305176</ele>
        <time>2014-01-12T10:12:56.000Z</time>
      </trkpt>
      <trkpt lat="43.49359" lon="6.93002">
        <ele>125.19999694824</ele>
        <time>2014-01-12T10:12:57.000Z</time>
      </trkpt>
      <trkpt lat="43.4936" lon="6.92986">
        <ele>123.40000152588</ele>
        <time>2014-01-12T10:13:01.000Z</time>
      </trkpt>
      <trkpt lat="43.49365" lon="6.92971">
        <ele>123</ele>
        <time>2014-01-12T10:13:05.000Z</time>
      </trkpt>
      <trkpt lat="43.49368" lon="6.92963">
        <ele>123</ele>
        <time>2014-01-12T10:13:07.000Z</time>
      </trkpt>
      <trkpt lat="43.4938" lon="6.92939">
        <ele>124</ele>
        <time>2014-01-12T10:13:13.000Z</time>
      </trkpt>
      <trkpt lat="43.49382" lon="6.92928">
        <ele>123.19999694824</ele>
        <time>2014-01-12T10:13:16.000Z</time>
      </trkpt>
      <trkpt lat="43.4938" lon="6.92924">
        <ele>122.19999694824</ele>
        <time>2014-01-12T10:13:17.000Z</time>
      </trkpt>
      <trkpt lat="43.49378" lon="6.92895">
        <ele>117.40000152588</ele>
        <time>2014-01-12T10:13:24.000Z</time>
      </trkpt>
      <trkpt lat="43.49382" lon="6.9286">
        <ele>114</ele>
        <time>2014-01-12T10:13:32.000Z</time>
      </trkpt>
      <trkpt lat="43.49392" lon="6.9284">
        <ele>114.40000152588</ele>
        <time>2014-01-12T10:13:38.000Z</time>
      </trkpt>
      <trkpt lat="43.49406" lon="6.92826">
        <ele>116.40000152588</ele>
        <time>2014-01-12T10:13:43.000Z</time>
      </trkpt>
      <trkpt lat="43.49425" lon="6.92815">
        <ele>118.19999694824</ele>
        <time>2014-01-12T10:13:49.000Z</time>
      </trkpt>
      <trkpt lat="43.49437" lon="6.92818">
        <ele>119.19999694824</ele>
        <time>2014-01-12T10:13:53.000Z</time>
      </trkpt>
      <trkpt lat="43.49449" lon="6.92819">
        <ele>120</ele>
        <time>2014-01-12T10:13:57.000Z</time>
      </trkpt>
      <trkpt lat="43.49451" lon="6.92816">
        <ele>119.80000305176</ele>
        <time>2014-01-12T10:13:58.000Z</time>
      </trkpt>
      <trkpt lat="43.49457" lon="6.92808">
        <ele>119.19999694824</ele>
        <time>2014-01-12T10:14:01.000Z</time>
      </trkpt>
      <trkpt lat="43.49474" lon="6.9279">
        <ele>119</ele>
        <time>2014-01-12T10:14:09.000Z</time>
      </trkpt>
      <trkpt lat="43.49481" lon="6.92784">
        <ele>119.19999694824</ele>
        <time>2014-01-12T10:14:14.000Z</time>
      </trkpt>
      <trkpt lat="43.49483" lon="6.92784">
        <ele>119.40000152588</ele>
        <time>2014-01-12T10:14:16.000Z</time>
      </trkpt>
      <trkpt lat="43.49483" lon="6.92783">
        <ele>119.19999694824</ele>
        <time>2014-01-12T10:14:18.000Z</time>
      </trkpt>
      <trkpt lat="43.49485" lon="6.92782">
        <ele>119.40000152588</ele>
        <time>2014-01-12T10:14:37.000Z</time>
      </trkpt>
      <trkpt lat="43.49484" lon="6.92784">
        <ele>119.59999847412</ele>
        <time>2014-01-12T10:14:38.000Z</time>
      </trkpt>
      <trkpt lat="43.49478" lon="6.92803">
        <ele>120.19999694824</ele>
        <time>2014-01-12T10:14:44.000Z</time>
      </trkpt>
      <trkpt lat="43.4947" lon="6.92819">
        <ele>121</ele>
        <time>2014-01-12T10:14:51.000Z</time>
      </trkpt>
      <trkpt lat="43.49458" lon="6.92839">
        <ele>123</ele>
        <time>2014-01-12T10:14:59.000Z</time>
      </trkpt>
      <trkpt lat="43.49449" lon="6.92843">
        <ele>123.19999694824</ele>
        <time>2014-01-12T10:15:03.000Z</time>
      </trkpt>
      <trkpt lat="43.49446" lon="6.92843">
        <ele>123.19999694824</ele>
        <time>2014-01-12T10:15:04.000Z</time>
      </trkpt>
      <trkpt lat="43.4944" lon="6.92844">
        <ele>123.19999694824</ele>
        <time>2014-01-12T10:15:07.000Z</time>
      </trkpt>
      <trkpt lat="43.49436" lon="6.92844">
        <ele>123.19999694824</ele>
        <time>2014-01-12T10:15:10.000Z</time>
      </trkpt>
      <trkpt lat="43.49425" lon="6.92847">
        <ele>123.40000152588</ele>
        <time>2014-01-12T10:15:18.000Z</time>
      </trkpt>
      <trkpt lat="43.49417" lon="6.92853">
        <ele>124</ele>
        <time>2014-01-12T10:15:24.000Z</time>
      </trkpt>
      <trkpt lat="43.49407" lon="6.92866">
        <ele>122.80000305176</ele>
        <time>2014-01-12T10:15:32.000Z</time>
      </trkpt>
      <trkpt lat="43.49402" lon="6.92882">
        <ele>123.80000305176</ele>
        <time>2014-01-12T10:15:40.000Z</time>
      </trkpt>
      <trkpt lat="43.49403" lon="6.929">
        <ele>126.80000305176</ele>
        <time>2014-01-12T10:15:48.000Z</time>
      </trkpt>
      <trkpt lat="43.49408" lon="6.92917">
        <ele>131</ele>
        <time>2014-01-12T10:15:57.000Z</time>
      </trkpt>
      <trkpt lat="43.49411" lon="6.92937">
        <ele>134.80000305176</ele>
        <time>2014-01-12T10:16:05.000Z</time>
      </trkpt>
      <trkpt lat="43.49408" lon="6.92954">
        <ele>135.80000305176</ele>
        <time>2014-01-12T10:16:12.000Z</time>
      </trkpt>
      <trkpt lat="43.494" lon="6.92972">
        <ele>135.60000610352</ele>
        <time>2014-01-12T10:16:21.000Z</time>
      </trkpt>
      <trkpt lat="43.494" lon="6.9299">
        <ele>137.80000305176</ele>
        <time>2014-01-12T10:16:29.000Z</time>
      </trkpt>
      <trkpt lat="43.49403" lon="6.93005">
        <ele>140.80000305176</ele>
        <time>2014-01-12T10:16:36.000Z</time>
      </trkpt>
      <trkpt lat="43.49401" lon="6.93023">
        <ele>142.80000305176</ele>
        <time>2014-01-12T10:16:43.000Z</time>
      </trkpt>
      <trkpt lat="43.49398" lon="6.93039">
        <ele>144.39999389648</ele>
        <time>2014-01-12T10:16:50.000Z</time>
      </trkpt>
      <trkpt lat="43.49394" lon="6.93052">
        <ele>145.39999389648</ele>
        <time>2014-01-12T10:16:56.000Z</time>
      </trkpt>
      <trkpt lat="43.49388" lon="6.93066">
        <ele>145.60000610352</ele>
        <time>2014-01-12T10:17:03.000Z</time>
      </trkpt>
      <trkpt lat="43.4938" lon="6.93075">
        <ele>144.80000305176</ele>
        <time>2014-01-12T10:17:09.000Z</time>
      </trkpt>
      <trkpt lat="43.4937" lon="6.93089">
        <ele>143.80000305176</ele>
        <time>2014-01-12T10:17:17.000Z</time>
      </trkpt>
      <trkpt lat="43.49359" lon="6.93109">
        <ele>143.60000610352</ele>
        <time>2014-01-12T10:17:27.000Z</time>
      </trkpt>
      <trkpt lat="43.49352" lon="6.93133">
        <ele>145.39999389648</ele>
        <time>2014-01-12T10:17:37.000Z</time>
      </trkpt>
      <trkpt lat="43.4935" lon="6.93151">
        <ele>148</ele>
        <time>2014-01-12T10:17:45.000Z</time>
      </trkpt>
      <trkpt lat="43.49355" lon="6.93171">
        <ele>152</ele>
        <time>2014-01-12T10:17:53.000Z</time>
      </trkpt>
      <trkpt lat="43.49361" lon="6.93185">
        <ele>154.80000305176</ele>
        <time>2014-01-12T10:18:00.000Z</time>
      </trkpt>
      <trkpt lat="43.49367" lon="6.93195">
        <ele>156.80000305176</ele>
        <time>2014-01-12T10:18:06.000Z</time>
      </trkpt>
      <trkpt lat="43.49369" lon="6.93195">
        <ele>157</ele>
        <time>2014-01-12T10:18:07.000Z</time>
      </trkpt>
      <trkpt lat="43.49369" lon="6.9319">
        <ele>156.60000610352</ele>
        <time>2014-01-12T10:18:12.000Z</time>
      </trkpt>
      <trkpt lat="43.49367" lon="6.93187">
        <ele>156</ele>
        <time>2014-01-12T10:18:14.000Z</time>
      </trkpt>
      <trkpt lat="43.49365" lon="6.93178">
        <ele>154.60000610352</ele>
        <time>2014-01-12T10:18:20.000Z</time>
      </trkpt>
      <trkpt lat="43.49371" lon="6.93161">
        <ele>154</ele>
        <time>2014-01-12T10:18:28.000Z</time>
      </trkpt>
      <trkpt lat="43.49381" lon="6.93145">
        <ele>154</ele>
        <time>2014-01-12T10:18:36.000Z</time>
      </trkpt>
      <trkpt lat="43.49393" lon="6.93133">
        <ele>155.39999389648</ele>
        <time>2014-01-12T10:18:44.000Z</time>
      </trkpt>
      <trkpt lat="43.49406" lon="6.93124">
        <ele>157.80000305176</ele>
        <time>2014-01-12T10:18:52.000Z</time>
      </trkpt>
      <trkpt lat="43.4942" lon="6.93116">
        <ele>159.19999694824</ele>
        <time>2014-01-12T10:19:00.000Z</time>
      </trkpt>
      <trkpt lat="43.49432" lon="6.93113">
        <ele>157</ele>
        <time>2014-01-12T10:19:07.000Z</time>
      </trkpt>
      <trkpt lat="43.49441" lon="6.93124">
        <ele>156</ele>
        <time>2014-01-12T10:19:13.000Z</time>
      </trkpt>
      <trkpt lat="43.49441" lon="6.93147">
        <ele>157.19999694824</ele>
        <time>2014-01-12T10:19:18.000Z</time>
      </trkpt>
      <trkpt lat="43.49436" lon="6.93176">
        <ele>159.39999389648</ele>
        <time>2014-01-12T10:19:24.000Z</time>
      </trkpt>
      <trkpt lat="43.49416" lon="6.9321">
        <ele>164</ele>
        <time>2014-01-12T10:19:32.000Z</time>
      </trkpt>
      <trkpt lat="43.49405" lon="6.93234">
        <ele>163.19999694824</ele>
        <time>2014-01-12T10:19:38.000Z</time>
      </trkpt>
      <trkpt lat="43.49401" lon="6.93251">
        <ele>163.39999389648</ele>
        <time>2014-01-12T10:19:43.000Z</time>
      </trkpt>
      <trkpt lat="43.49399" lon="6.93266">
        <ele>163.80000305176</ele>
        <time>2014-01-12T10:19:49.000Z</time>
      </trkpt>
      <trkpt lat="43.49399" lon="6.93283">
        <ele>164.39999389648</ele>
        <time>2014-01-12T10:19:55.000Z</time>
      </trkpt>
      <trkpt lat="43.49399" lon="6.93299">
        <ele>165</ele>
        <time>2014-01-12T10:20:03.000Z</time>
      </trkpt>
      <trkpt lat="43.49398" lon="6.93313">
        <ele>165.60000610352</ele>
        <time>2014-01-12T10:20:08.000Z</time>
      </trkpt>
      <trkpt lat="43.49394" lon="6.93323">
        <ele>166.19999694824</ele>
        <time>2014-01-12T10:20:13.000Z</time>
      </trkpt>
      <trkpt lat="43.49393" lon="6.93323">
        <ele>166.39999389648</ele>
        <time>2014-01-12T10:20:14.000Z</time>
      </trkpt>
      <trkpt lat="43.49385" lon="6.93317">
        <ele>166.80000305176</ele>
        <time>2014-01-12T10:20:18.000Z</time>
      </trkpt>
      <trkpt lat="43.49376" lon="6.9331">
        <ele>167.19999694824</ele>
        <time>2014-01-12T10:20:25.000Z</time>
      </trkpt>
      <trkpt lat="43.49365" lon="6.9331">
        <ele>168</ele>
        <time>2014-01-12T10:20:31.000Z</time>
      </trkpt>
      <trkpt lat="43.49353" lon="6.93311">
        <ele>169</ele>
        <time>2014-01-12T10:20:38.000Z</time>
      </trkpt>
      <trkpt lat="43.49343" lon="6.93321">
        <ele>171</ele>
        <time>2014-01-12T10:20:45.000Z</time>
      </trkpt>
      <trkpt lat="43.49339" lon="6.93338">
        <ele>173.60000610352</ele>
        <time>2014-01-12T10:20:53.000Z</time>
      </trkpt>
      <trkpt lat="43.49343" lon="6.93351">
        <ele>174</ele>
        <time>2014-01-12T10:20:59.000Z</time>
      </trkpt>
      <trkpt lat="43.49351" lon="6.93366">
        <ele>174</ele>
        <time>2014-01-12T10:21:04.000Z</time>
      </trkpt>
      <trkpt lat="43.49348" lon="6.93384">
        <ele>175.39999389648</ele>
        <time>2014-01-12T10:21:08.000Z</time>
      </trkpt>
      <trkpt lat="43.49344" lon="6.93403">
        <ele>177.19999694824</ele>
        <time>2014-01-12T10:21:14.000Z</time>
      </trkpt>
      <trkpt lat="43.49344" lon="6.93413">
        <ele>178</ele>
        <time>2014-01-12T10:21:20.000Z</time>
      </trkpt>
      <trkpt lat="43.49344" lon="6.93414">
        <ele>178</ele>
        <time>2014-01-12T10:21:21.000Z</time>
      </trkpt>
      <trkpt lat="43.49342" lon="6.93418">
        <ele>178.60000610352</ele>
        <time>2014-01-12T10:21:25.000Z</time>
      </trkpt>
      <trkpt lat="43.49343" lon="6.93423">
        <ele>178.19999694824</ele>
        <time>2014-01-12T10:21:28.000Z</time>
      </trkpt>
      <trkpt lat="43.49343" lon="6.93422">
        <ele>178.19999694824</ele>
        <time>2014-01-12T10:21:29.000Z</time>
      </trkpt>
      <trkpt lat="43.49344" lon="6.93421">
        <ele>178.19999694824</ele>
        <time>2014-01-12T10:21:34.000Z</time>
      </trkpt>
      <trkpt lat="43.49342" lon="6.93418">
        <ele>178.60000610352</ele>
        <time>2014-01-12T10:22:05.000Z</time>
      </trkpt>
      <trkpt lat="43.49342" lon="6.93418">
        <ele>178.39999389648</ele>
        <time>2014-01-12T10:22:12.000Z</time>
      </trkpt>
      <trkpt lat="43.49344" lon="6.93428">
        <ele>178</ele>
        <time>2014-01-12T10:24:51.000Z</time>
      </trkpt>
      <trkpt lat="43.49341" lon="6.93429">
        <ele>178.39999389648</ele>
        <time>2014-01-12T10:24:56.000Z</time>
      </trkpt>
      <trkpt lat="43.49332" lon="6.93417">
        <ele>179.39999389648</ele>
        <time>2014-01-12T10:25:00.000Z</time>
      </trkpt>
      <trkpt lat="43.49333" lon="6.93402">
        <ele>179</ele>
        <time>2014-01-12T10:25:03.000Z</time>
      </trkpt>
      <trkpt lat="43.49336" lon="6.93393">
        <ele>177.80000305176</ele>
        <time>2014-01-12T10:25:05.000Z</time>
      </trkpt>
      <trkpt lat="43.49335" lon="6.93391">
        <ele>177.80000305176</ele>
        <time>2014-01-12T10:25:06.000Z</time>
      </trkpt>
      <trkpt lat="43.49335" lon="6.9339">
        <ele>177.80000305176</ele>
        <time>2014-01-12T10:25:07.000Z</time>
      </trkpt>
      <trkpt lat="43.49334" lon="6.93389">
        <ele>177.80000305176</ele>
        <time>2014-01-12T10:25:13.000Z</time>
      </trkpt>
      <trkpt lat="43.4933" lon="6.93375">
        <ele>175.80000305176</ele>
        <time>2014-01-12T10:25:17.000Z</time>
      </trkpt>
      <trkpt lat="43.4933" lon="6.93352">
        <ele>174.19999694824</ele>
        <time>2014-01-12T10:25:21.000Z</time>
      </trkpt>
      <trkpt lat="43.49332" lon="6.93322">
        <ele>171.80000305176</ele>
        <time>2014-01-12T10:25:26.000Z</time>
      </trkpt>
      <trkpt lat="43.49336" lon="6.9331">
        <ele>170.19999694824</ele>
        <time>2014-01-12T10:25:29.000Z</time>
      </trkpt>
      <trkpt lat="43.49339" lon="6.93306">
        <ele>169.39999389648</ele>
        <time>2014-01-12T10:25:30.000Z</time>
      </trkpt>
      <trkpt lat="43.4935" lon="6.93293">
        <ele>167</ele>
        <time>2014-01-12T10:25:34.000Z</time>
      </trkpt>
      <trkpt lat="43.49354" lon="6.93283">
        <ele>165.60000610352</ele>
        <time>2014-01-12T10:25:38.000Z</time>
      </trkpt>
      <trkpt lat="43.49355" lon="6.93281">
        <ele>165.39999389648</ele>
        <time>2014-01-12T10:25:39.000Z</time>
      </trkpt>
      <trkpt lat="43.49355" lon="6.93279">
        <ele>165</ele>
        <time>2014-01-12T10:25:40.000Z</time>
      </trkpt>
      <trkpt lat="43.49357" lon="6.93274">
        <ele>164.60000610352</ele>
        <time>2014-01-12T10:25:42.000Z</time>
      </trkpt>
      <trkpt lat="43.49361" lon="6.93268">
        <ele>163.80000305176</ele>
        <time>2014-01-12T10:25:46.000Z</time>
      </trkpt>
      <trkpt lat="43.49364" lon="6.93265">
        <ele>163.60000610352</ele>
        <time>2014-01-12T10:25:47.000Z</time>
      </trkpt>
      <trkpt lat="43.49366" lon="6.93259">
        <ele>163</ele>
        <time>2014-01-12T10:25:49.000Z</time>
      </trkpt>
      <trkpt lat="43.49366" lon="6.93255">
        <ele>162.60000610352</ele>
        <time>2014-01-12T10:25:50.000Z</time>
      </trkpt>
      <trkpt lat="43.4936" lon="6.93243">
        <ele>161.19999694824</ele>
        <time>2014-01-12T10:25:55.000Z</time>
      </trkpt>
      <trkpt lat="43.49347" lon="6.93242">
        <ele>160.39999389648</ele>
        <time>2014-01-12T10:25:59.000Z</time>
      </trkpt>
      <trkpt lat="43.49333" lon="6.93246">
        <ele>160.19999694824</ele>
        <time>2014-01-12T10:26:03.000Z</time>
      </trkpt>
      <trkpt lat="43.49317" lon="6.93257">
        <ele>156.39999389648</ele>
        <time>2014-01-12T10:26:08.000Z</time>
      </trkpt>
      <trkpt lat="43.49315" lon="6.93256">
        <ele>155.39999389648</ele>
        <time>2014-01-12T10:26:09.000Z</time>
      </trkpt>
      <trkpt lat="43.49304" lon="6.93264">
        <ele>152.80000305176</ele>
        <time>2014-01-12T10:26:12.000Z</time>
      </trkpt>
      <trkpt lat="43.49297" lon="6.93265">
        <ele>150.80000305176</ele>
        <time>2014-01-12T10:26:15.000Z</time>
      </trkpt>
      <trkpt lat="43.49297" lon="6.93263">
        <ele>150.19999694824</ele>
        <time>2014-01-12T10:26:16.000Z</time>
      </trkpt>
      <trkpt lat="43.49297" lon="6.93252">
        <ele>148.80000305176</ele>
        <time>2014-01-12T10:26:20.000Z</time>
      </trkpt>
      <trkpt lat="43.4929" lon="6.93249">
        <ele>145.60000610352</ele>
        <time>2014-01-12T10:26:24.000Z</time>
      </trkpt>
      <trkpt lat="43.49282" lon="6.93256">
        <ele>144</ele>
        <time>2014-01-12T10:26:27.000Z</time>
      </trkpt>
      <trkpt lat="43.4928" lon="6.93259">
        <ele>143.60000610352</ele>
        <time>2014-01-12T10:26:28.000Z</time>
      </trkpt>
      <trkpt lat="43.49276" lon="6.93262">
        <ele>143</ele>
        <time>2014-01-12T10:26:30.000Z</time>
      </trkpt>
      <trkpt lat="43.49274" lon="6.93261">
        <ele>142.19999694824</ele>
        <time>2014-01-12T10:26:31.000Z</time>
      </trkpt>
      <trkpt lat="43.49265" lon="6.93264">
        <ele>139.19999694824</ele>
        <time>2014-01-12T10:26:35.000Z</time>
      </trkpt>
      <trkpt lat="43.49266" lon="6.93265">
        <ele>139.60000610352</ele>
        <time>2014-01-12T10:26:38.000Z</time>
      </trkpt>
      <trkpt lat="43.49265" lon="6.93266">
        <ele>139.39999389648</ele>
        <time>2014-01-12T10:26:43.000Z</time>
      </trkpt>
      <trkpt lat="43.49264" lon="6.93269">
        <ele>139.60000610352</ele>
        <time>2014-01-12T10:26:49.000Z</time>
      </trkpt>
      <trkpt lat="43.49265" lon="6.9327">
        <ele>139.80000305176</ele>
        <time>2014-01-12T10:26:50.000Z</time>
      </trkpt>
      <trkpt lat="43.49264" lon="6.93272">
        <ele>140</ele>
        <time>2014-01-12T10:26:51.000Z</time>
      </trkpt>
      <trkpt lat="43.4926" lon="6.93277">
        <ele>139.19999694824</ele>
        <time>2014-01-12T10:26:55.000Z</time>
      </trkpt>
      <trkpt lat="43.49259" lon="6.9327">
        <ele>137.80000305176</ele>
        <time>2014-01-12T10:26:59.000Z</time>
      </trkpt>
      <trkpt lat="43.49258" lon="6.93257">
        <ele>135.80000305176</ele>
        <time>2014-01-12T10:27:05.000Z</time>
      </trkpt>
      <trkpt lat="43.49257" lon="6.93257">
        <ele>135.60000610352</ele>
        <time>2014-01-12T10:27:06.000Z</time>
      </trkpt>
      <trkpt lat="43.49256" lon="6.93257">
        <ele>135</ele>
        <time>2014-01-12T10:27:07.000Z</time>
      </trkpt>
      <trkpt lat="43.49253" lon="6.93258">
        <ele>134.19999694824</ele>
        <time>2014-01-12T10:27:09.000Z</time>
      </trkpt>
      <trkpt lat="43.49249" lon="6.93262">
        <ele>133.19999694824</ele>
        <time>2014-01-12T10:27:14.000Z</time>
      </trkpt>
      <trkpt lat="43.49244" lon="6.93262">
        <ele>131</ele>
        <time>2014-01-12T10:27:19.000Z</time>
      </trkpt>
      <trkpt lat="43.49245" lon="6.9325">
        <ele>130</ele>
        <time>2014-01-12T10:27:23.000Z</time>
      </trkpt>
      <trkpt lat="43.49246" lon="6.93236">
        <ele>127.19999694824</ele>
        <time>2014-01-12T10:27:28.000Z</time>
      </trkpt>
      <trkpt lat="43.49242" lon="6.93233">
        <ele>124.80000305176</ele>
        <time>2014-01-12T10:27:32.000Z</time>
      </trkpt>
      <trkpt lat="43.49241" lon="6.93235">
        <ele>125.19999694824</ele>
        <time>2014-01-12T10:27:35.000Z</time>
      </trkpt>
      <trkpt lat="43.49242" lon="6.93235">
        <ele>125.40000152588</ele>
        <time>2014-01-12T10:27:36.000Z</time>
      </trkpt>
      <trkpt lat="43.49242" lon="6.93233">
        <ele>125</ele>
        <time>2014-01-12T10:27:46.000Z</time>
      </trkpt>
      <trkpt lat="43.49238" lon="6.93237">
        <ele>124.40000152588</ele>
        <time>2014-01-12T10:30:45.000Z</time>
      </trkpt>
      <trkpt lat="43.49235" lon="6.93236">
        <ele>123.19999694824</ele>
        <time>2014-01-12T10:30:47.000Z</time>
      </trkpt>
      <trkpt lat="43.49229" lon="6.9324">
        <ele>121.80000305176</ele>
        <time>2014-01-12T10:30:51.000Z</time>
      </trkpt>
      <trkpt lat="43.49229" lon="6.9324">
        <ele>121.80000305176</ele>
        <time>2014-01-12T10:30:52.000Z</time>
      </trkpt>
      <trkpt lat="43.49227" lon="6.9324">
        <ele>120.80000305176</ele>
        <time>2014-01-12T10:30:55.000Z</time>
      </trkpt>
      <trkpt lat="43.49224" lon="6.93241">
        <ele>119.59999847412</ele>
        <time>2014-01-12T10:30:57.000Z</time>
      </trkpt>
      <trkpt lat="43.49217" lon="6.93243">
        <ele>117.40000152588</ele>
        <time>2014-01-12T10:31:00.000Z</time>
      </trkpt>
      <trkpt lat="43.49215" lon="6.93242">
        <ele>116.40000152588</ele>
        <time>2014-01-12T10:31:01.000Z</time>
      </trkpt>
      <trkpt lat="43.49213" lon="6.93245">
        <ele>116</ele>
        <time>2014-01-12T10:31:03.000Z</time>
      </trkpt>
      <trkpt lat="43.49212" lon="6.9325">
        <ele>116.59999847412</ele>
        <time>2014-01-12T10:31:06.000Z</time>
      </trkpt>
      <trkpt lat="43.4921" lon="6.93254">
        <ele>115.80000305176</ele>
        <time>2014-01-12T10:31:08.000Z</time>
      </trkpt>
      <trkpt lat="43.49204" lon="6.93265">
        <ele>114.19999694824</ele>
        <time>2014-01-12T10:31:15.000Z</time>
      </trkpt>
      <trkpt lat="43.49202" lon="6.93269">
        <ele>113.80000305176</ele>
        <time>2014-01-12T10:31:24.000Z</time>
      </trkpt>
      <trkpt lat="43.49199" lon="6.93268">
        <ele>112.40000152588</ele>
        <time>2014-01-12T10:31:30.000Z</time>
      </trkpt>
      <trkpt lat="43.49198" lon="6.93266">
        <ele>111.80000305176</ele>
        <time>2014-01-12T10:31:33.000Z</time>
      </trkpt>
      <trkpt lat="43.49195" lon="6.93264">
        <ele>110.40000152588</ele>
        <time>2014-01-12T10:31:35.000Z</time>
      </trkpt>
      <trkpt lat="43.49191" lon="6.9326">
        <ele>108.40000152588</ele>
        <time>2014-01-12T10:31:38.000Z</time>
      </trkpt>
      <trkpt lat="43.4919" lon="6.9326">
        <ele>108.19999694824</ele>
        <time>2014-01-12T10:31:39.000Z</time>
      </trkpt>
      <trkpt lat="43.4919" lon="6.9326">
        <ele>108.19999694824</ele>
        <time>2014-01-12T10:31:45.000Z</time>
      </trkpt>
      <trkpt lat="43.4919" lon="6.93254">
        <ele>107.59999847412</ele>
        <time>2014-01-12T10:32:14.000Z</time>
      </trkpt>
      <trkpt lat="43.49186" lon="6.93249">
        <ele>105.80000305176</ele>
        <time>2014-01-12T10:32:17.000Z</time>
      </trkpt>
      <trkpt lat="43.49175" lon="6.93241">
        <ele>100.40000152588</ele>
        <time>2014-01-12T10:32:22.000Z</time>
      </trkpt>
      <trkpt lat="43.49172" lon="6.93236">
        <ele>99.199996948242</ele>
        <time>2014-01-12T10:32:24.000Z</time>
      </trkpt>
      <trkpt lat="43.49171" lon="6.93229">
        <ele>97.800003051758</ele>
        <time>2014-01-12T10:32:26.000Z</time>
      </trkpt>
      <trkpt lat="43.49166" lon="6.93216">
        <ele>95.199996948242</ele>
        <time>2014-01-12T10:32:30.000Z</time>
      </trkpt>
      <trkpt lat="43.49161" lon="6.93211">
        <ele>93.800003051758</ele>
        <time>2014-01-12T10:32:34.000Z</time>
      </trkpt>
      <trkpt lat="43.49157" lon="6.93202">
        <ele>92.400001525879</ele>
        <time>2014-01-12T10:32:38.000Z</time>
      </trkpt>
      <trkpt lat="43.49153" lon="6.93205">
        <ele>91.800003051758</ele>
        <time>2014-01-12T10:32:41.000Z</time>
      </trkpt>
      <trkpt lat="43.49147" lon="6.93197">
        <ele>90</ele>
        <time>2014-01-12T10:32:44.000Z</time>
      </trkpt>
      <trkpt lat="43.49144" lon="6.93186">
        <ele>89</ele>
        <time>2014-01-12T10:32:47.000Z</time>
      </trkpt>
      <trkpt lat="43.49143" lon="6.93183">
        <ele>88.599998474121</ele>
        <time>2014-01-12T10:32:48.000Z</time>
      </trkpt>
      <trkpt lat="43.49127" lon="6.9317">
        <ele>85.800003051758</ele>
        <time>2014-01-12T10:32:52.000Z</time>
      </trkpt>
      <trkpt lat="43.49114" lon="6.93164">
        <ele>83.199996948242</ele>
        <time>2014-01-12T10:32:56.000Z</time>
      </trkpt>
      <trkpt lat="43.49097" lon="6.93168">
        <ele>81</ele>
        <time>2014-01-12T10:33:00.000Z</time>
      </trkpt>
      <trkpt lat="43.49089" lon="6.93166">
        <ele>79.800003051758</ele>
        <time>2014-01-12T10:33:02.000Z</time>
      </trkpt>
      <trkpt lat="43.49082" lon="6.93162">
        <ele>78.199996948242</ele>
        <time>2014-01-12T10:33:04.000Z</time>
      </trkpt>
      <trkpt lat="43.49074" lon="6.93146">
        <ele>74.400001525879</ele>
        <time>2014-01-12T10:33:08.000Z</time>
      </trkpt>
      <trkpt lat="43.49061" lon="6.93137">
        <ele>71</ele>
        <time>2014-01-12T10:33:11.000Z</time>
      </trkpt>
      <trkpt lat="43.49059" lon="6.93134">
        <ele>70</ele>
        <time>2014-01-12T10:33:12.000Z</time>
      </trkpt>
      <trkpt lat="43.4905" lon="6.9314">
        <ele>69.400001525879</ele>
        <time>2014-01-12T10:33:15.000Z</time>
      </trkpt>
      <trkpt lat="43.49039" lon="6.93148">
        <ele>68.800003051758</ele>
        <time>2014-01-12T10:33:19.000Z</time>
      </trkpt>
      <trkpt lat="43.49038" lon="6.9315">
        <ele>69</ele>
        <time>2014-01-12T10:33:20.000Z</time>
      </trkpt>
      <trkpt lat="43.49034" lon="6.93148">
        <ele>67.800003051758</ele>
        <time>2014-01-12T10:33:23.000Z</time>
      </trkpt>
      <trkpt lat="43.49033" lon="6.93147">
        <ele>67.599998474121</ele>
        <time>2014-01-12T10:33:27.000Z</time>
      </trkpt>
      <trkpt lat="43.4903" lon="6.93148">
        <ele>67.199996948242</ele>
        <time>2014-01-12T10:33:31.000Z</time>
      </trkpt>
      <trkpt lat="43.49028" lon="6.93149">
        <ele>67</ele>
        <time>2014-01-12T10:33:35.000Z</time>
      </trkpt>
      <trkpt lat="43.49025" lon="6.9315">
        <ele>66.800003051758</ele>
        <time>2014-01-12T10:33:40.000Z</time>
      </trkpt>
      <trkpt lat="43.49023" lon="6.93153">
        <ele>66.800003051758</ele>
        <time>2014-01-12T10:33:46.000Z</time>
      </trkpt>
      <trkpt lat="43.49023" lon="6.93162">
        <ele>68</ele>
        <time>2014-01-12T10:35:23.000Z</time>
      </trkpt>
      <trkpt lat="43.49016" lon="6.93162">
        <ele>67</ele>
        <time>2014-01-12T10:35:27.000Z</time>
      </trkpt>
      <trkpt lat="43.49013" lon="6.9316">
        <ele>66.199996948242</ele>
        <time>2014-01-12T10:35:32.000Z</time>
      </trkpt>
      <trkpt lat="43.4901" lon="6.9316">
        <ele>65.599998474121</ele>
        <time>2014-01-12T10:35:36.000Z</time>
      </trkpt>
      <trkpt lat="43.49008" lon="6.93163">
        <ele>65.800003051758</ele>
        <time>2014-01-12T10:35:37.000Z</time>
      </trkpt>
      <trkpt lat="43.49006" lon="6.9317">
        <ele>65.800003051758</ele>
        <time>2014-01-12T10:35:39.000Z</time>
      </trkpt>
      <trkpt lat="43.49013" lon="6.9318">
        <ele>66.199996948242</ele>
        <time>2014-01-12T10:35:42.000Z</time>
      </trkpt>
      <trkpt lat="43.49016" lon="6.93184">
        <ele>66.400001525879</ele>
        <time>2014-01-12T10:35:43.000Z</time>
      </trkpt>
      <trkpt lat="43.49029" lon="6.9319">
        <ele>68</ele>
        <time>2014-01-12T10:35:46.000Z</time>
      </trkpt>
      <trkpt lat="43.49039" lon="6.93192">
        <ele>69.599998474121</ele>
        <time>2014-01-12T10:35:50.000Z</time>
      </trkpt>
      <trkpt lat="43.49043" lon="6.93197">
        <ele>70</ele>
        <time>2014-01-12T10:35:52.000Z</time>
      </trkpt>
      <trkpt lat="43.49046" lon="6.93206">
        <ele>69.599998474121</ele>
        <time>2014-01-12T10:35:54.000Z</time>
      </trkpt>
      <trkpt lat="43.49052" lon="6.93227">
        <ele>68.800003051758</ele>
        <time>2014-01-12T10:35:59.000Z</time>
      </trkpt>
      <trkpt lat="43.49046" lon="6.93228">
        <ele>68</ele>
        <time>2014-01-12T10:36:02.000Z</time>
      </trkpt>
      <trkpt lat="43.49041" lon="6.93222">
        <ele>67.599998474121</ele>
        <time>2014-01-12T10:36:04.000Z</time>
      </trkpt>
      <trkpt lat="43.49036" lon="6.93216">
        <ele>67.199996948242</ele>
        <time>2014-01-12T10:36:06.000Z</time>
      </trkpt>
      <trkpt lat="43.4903" lon="6.93211">
        <ele>66.599998474121</ele>
        <time>2014-01-12T10:36:09.000Z</time>
      </trkpt>
      <trkpt lat="43.49027" lon="6.93213">
        <ele>66</ele>
        <time>2014-01-12T10:36:10.000Z</time>
      </trkpt>
      <trkpt lat="43.4902" lon="6.93214">
        <ele>64.800003051758</ele>
        <time>2014-01-12T10:36:13.000Z</time>
      </trkpt>
      <trkpt lat="43.49016" lon="6.93215">
        <ele>64</ele>
        <time>2014-01-12T10:36:15.000Z</time>
      </trkpt>
      <trkpt lat="43.49004" lon="6.93215">
        <ele>62.200000762939</ele>
        <time>2014-01-12T10:36:20.000Z</time>
      </trkpt>
      <trkpt lat="43.48996" lon="6.93224">
        <ele>60.200000762939</ele>
        <time>2014-01-12T10:36:26.000Z</time>
      </trkpt>
      <trkpt lat="43.48996" lon="6.93225">
        <ele>60.200000762939</ele>
        <time>2014-01-12T10:36:27.000Z</time>
      </trkpt>
      <trkpt lat="43.49" lon="6.93228">
        <ele>60.599998474121</ele>
        <time>2014-01-12T10:36:30.000Z</time>
      </trkpt>
      <trkpt lat="43.49003" lon="6.93229">
        <ele>61</ele>
        <time>2014-01-12T10:36:32.000Z</time>
      </trkpt>
      <trkpt lat="43.49003" lon="6.93231">
        <ele>61</ele>
        <time>2014-01-12T10:36:33.000Z</time>
      </trkpt>
      <trkpt lat="43.49002" lon="6.93233">
        <ele>60.599998474121</ele>
        <time>2014-01-12T10:36:35.000Z</time>
      </trkpt>
      <trkpt lat="43.48993" lon="6.93239">
        <ele>58.799999237061</ele>
        <time>2014-01-12T10:36:39.000Z</time>
      </trkpt>
      <trkpt lat="43.48985" lon="6.93238">
        <ele>57.799999237061</ele>
        <time>2014-01-12T10:36:43.000Z</time>
      </trkpt>
      <trkpt lat="43.48981" lon="6.93235">
        <ele>57.400001525879</ele>
        <time>2014-01-12T10:36:45.000Z</time>
      </trkpt>
      <trkpt lat="43.48976" lon="6.93229">
        <ele>57</ele>
        <time>2014-01-12T10:36:48.000Z</time>
      </trkpt>
      <trkpt lat="43.48963" lon="6.93216">
        <ele>55.400001525879</ele>
        <time>2014-01-12T10:36:55.000Z</time>
      </trkpt>
      <trkpt lat="43.48961" lon="6.93212">
        <ele>55</ele>
        <time>2014-01-12T10:36:58.000Z</time>
      </trkpt>
      <trkpt lat="43.48959" lon="6.93209">
        <ele>54.799999237061</ele>
        <time>2014-01-12T10:37:00.000Z</time>
      </trkpt>
      <trkpt lat="43.48955" lon="6.93203">
        <ele>54.400001525879</ele>
        <time>2014-01-12T10:37:07.000Z</time>
      </trkpt>
      <trkpt lat="43.48949" lon="6.9319">
        <ele>53.200000762939</ele>
        <time>2014-01-12T10:38:18.000Z</time>
      </trkpt>
      <trkpt lat="43.48949" lon="6.93187">
        <ele>53.200000762939</ele>
        <time>2014-01-12T10:38:20.000Z</time>
      </trkpt>
      <trkpt lat="43.48953" lon="6.93182">
        <ele>54.200000762939</ele>
        <time>2014-01-12T10:38:26.000Z</time>
      </trkpt>
      <trkpt lat="43.48958" lon="6.93175">
        <ele>55.200000762939</ele>
        <time>2014-01-12T10:38:30.000Z</time>
      </trkpt>
      <trkpt lat="43.48964" lon="6.93167">
        <ele>56.799999237061</ele>
        <time>2014-01-12T10:38:35.000Z</time>
      </trkpt>
      <trkpt lat="43.48966" lon="6.93166">
        <ele>57.200000762939</ele>
        <time>2014-01-12T10:38:36.000Z</time>
      </trkpt>
      <trkpt lat="43.48974" lon="6.93156">
        <ele>57.799999237061</ele>
        <time>2014-01-12T10:38:41.000Z</time>
      </trkpt>
      <trkpt lat="43.48983" lon="6.93143">
        <ele>57.799999237061</ele>
        <time>2014-01-12T10:38:48.000Z</time>
      </trkpt>
      <trkpt lat="43.4899" lon="6.93122">
        <ele>56.400001525879</ele>
        <time>2014-01-12T10:38:56.000Z</time>
      </trkpt>
      <trkpt lat="43.48998" lon="6.93112">
        <ele>56.200000762939</ele>
        <time>2014-01-12T10:39:02.000Z</time>
      </trkpt>
      <trkpt lat="43.4901" lon="6.93104">
        <ele>57.200000762939</ele>
        <time>2014-01-12T10:39:08.000Z</time>
      </trkpt>
      <trkpt lat="43.49024" lon="6.93096">
        <ele>58.200000762939</ele>
        <time>2014-01-12T10:39:15.000Z</time>
      </trkpt>
      <trkpt lat="43.49039" lon="6.9309">
        <ele>60</ele>
        <time>2014-01-12T10:39:22.000Z</time>
      </trkpt>
      <trkpt lat="43.49053" lon="6.9308">
        <ele>61</ele>
        <time>2014-01-12T10:39:29.000Z</time>
      </trkpt>
      <trkpt lat="43.49066" lon="6.93073">
        <ele>62.200000762939</ele>
        <time>2014-01-12T10:39:36.000Z</time>
      </trkpt>
      <trkpt lat="43.49078" lon="6.93065">
        <ele>62.599998474121</ele>
        <time>2014-01-12T10:39:43.000Z</time>
      </trkpt>
      <trkpt lat="43.49087" lon="6.93068">
        <ele>64.400001525879</ele>
        <time>2014-01-12T10:39:48.000Z</time>
      </trkpt>
      <trkpt lat="43.49101" lon="6.9308">
        <ele>67.400001525879</ele>
        <time>2014-01-12T10:39:55.000Z</time>
      </trkpt>
      <trkpt lat="43.49114" lon="6.93089">
        <ele>69.800003051758</ele>
        <time>2014-01-12T10:40:01.000Z</time>
      </trkpt>
      <trkpt lat="43.49129" lon="6.93097">
        <ele>72.400001525879</ele>
        <time>2014-01-12T10:40:08.000Z</time>
      </trkpt>
      <trkpt lat="43.49139" lon="6.93103">
        <ele>74.400001525879</ele>
        <time>2014-01-12T10:40:14.000Z</time>
      </trkpt>
      <trkpt lat="43.49154" lon="6.93109">
        <ele>77</ele>
        <time>2014-01-12T10:40:22.000Z</time>
      </trkpt>
      <trkpt lat="43.49166" lon="6.93109">
        <ele>78.199996948242</ele>
        <time>2014-01-12T10:40:28.000Z</time>
      </trkpt>
      <trkpt lat="43.4918" lon="6.93114">
        <ele>83</ele>
        <time>2014-01-12T10:40:34.000Z</time>
      </trkpt>
      <trkpt lat="43.49194" lon="6.93118">
        <ele>87.800003051758</ele>
        <time>2014-01-12T10:40:41.000Z</time>
      </trkpt>
      <trkpt lat="43.49204" lon="6.93113">
        <ele>89.400001525879</ele>
        <time>2014-01-12T10:40:46.000Z</time>
      </trkpt>
      <trkpt lat="43.49215" lon="6.93104">
        <ele>90.400001525879</ele>
        <time>2014-01-12T10:40:53.000Z</time>
      </trkpt>
      <trkpt lat="43.49215" lon="6.93091">
        <ele>87.599998474121</ele>
        <time>2014-01-12T10:40:58.000Z</time>
      </trkpt>
      <trkpt lat="43.49212" lon="6.93071">
        <ele>82.800003051758</ele>
        <time>2014-01-12T10:41:05.000Z</time>
      </trkpt>
      <trkpt lat="43.49216" lon="6.93061">
        <ele>82.400001525879</ele>
        <time>2014-01-12T10:41:11.000Z</time>
      </trkpt>
      <trkpt lat="43.49225" lon="6.93048">
        <ele>82.599998474121</ele>
        <time>2014-01-12T10:41:17.000Z</time>
      </trkpt>
      <trkpt lat="43.49239" lon="6.93037">
        <ele>84.599998474121</ele>
        <time>2014-01-12T10:41:25.000Z</time>
      </trkpt>
      <trkpt lat="43.49255" lon="6.93031">
        <ele>88.599998474121</ele>
        <time>2014-01-12T10:41:32.000Z</time>
      </trkpt>
      <trkpt lat="43.49269" lon="6.93023">
        <ele>93.199996948242</ele>
        <time>2014-01-12T10:41:39.000Z</time>
      </trkpt>
      <trkpt lat="43.49279" lon="6.93009">
        <ele>94.800003051758</ele>
        <time>2014-01-12T10:41:46.000Z</time>
      </trkpt>
      <trkpt lat="43.49276" lon="6.92996">
        <ele>91.400001525879</ele>
        <time>2014-01-12T10:41:51.000Z</time>
      </trkpt>
      <trkpt lat="43.49274" lon="6.92976">
        <ele>88.199996948242</ele>
        <time>2014-01-12T10:41:58.000Z</time>
      </trkpt>
      <trkpt lat="43.4928" lon="6.92956">
        <ele>88</ele>
        <time>2014-01-12T10:42:05.000Z</time>
      </trkpt>
      <trkpt lat="43.49291" lon="6.92934">
        <ele>89.800003051758</ele>
        <time>2014-01-12T10:42:14.000Z</time>
      </trkpt>
      <trkpt lat="43.49302" lon="6.92926">
        <ele>93.599998474121</ele>
        <time>2014-01-12T10:42:21.000Z</time>
      </trkpt>
      <trkpt lat="43.49313" lon="6.92918">
        <ele>96.800003051758</ele>
        <time>2014-01-12T10:42:27.000Z</time>
      </trkpt>
      <trkpt lat="43.49322" lon="6.92909">
        <ele>99.800003051758</ele>
        <time>2014-01-12T10:42:34.000Z</time>
      </trkpt>
      <trkpt lat="43.49332" lon="6.92903">
        <ele>102.80000305176</ele>
        <time>2014-01-12T10:42:40.000Z</time>
      </trkpt>
      <trkpt lat="43.49337" lon="6.92893">
        <ele>103.59999847412</ele>
        <time>2014-01-12T10:42:46.000Z</time>
      </trkpt>
      <trkpt lat="43.49337" lon="6.92882">
        <ele>102.19999694824</ele>
        <time>2014-01-12T10:42:52.000Z</time>
      </trkpt>
      <trkpt lat="43.49339" lon="6.9286">
        <ele>100.19999694824</ele>
        <time>2014-01-12T10:43:01.000Z</time>
      </trkpt>
      <trkpt lat="43.49344" lon="6.92844">
        <ele>99.599998474121</ele>
        <time>2014-01-12T10:43:07.000Z</time>
      </trkpt>
      <trkpt lat="43.49352" lon="6.92825">
        <ele>100.19999694824</ele>
        <time>2014-01-12T10:43:14.000Z</time>
      </trkpt>
      <trkpt lat="43.49368" lon="6.92801">
        <ele>102.40000152588</ele>
        <time>2014-01-12T10:43:23.000Z</time>
      </trkpt>
      <trkpt lat="43.49382" lon="6.92791">
        <ele>104.80000305176</ele>
        <time>2014-01-12T10:43:31.000Z</time>
      </trkpt>
      <trkpt lat="43.49401" lon="6.92781">
        <ele>107.80000305176</ele>
        <time>2014-01-12T10:43:41.000Z</time>
      </trkpt>
      <trkpt lat="43.49415" lon="6.9278">
        <ele>110.80000305176</ele>
        <time>2014-01-12T10:43:48.000Z</time>
      </trkpt>
      <trkpt lat="43.49426" lon="6.92784">
        <ele>113.19999694824</ele>
        <time>2014-01-12T10:43:55.000Z</time>
      </trkpt>
      <trkpt lat="43.49441" lon="6.92792">
        <ele>115.80000305176</ele>
        <time>2014-01-12T10:44:03.000Z</time>
      </trkpt>
      <trkpt lat="43.49451" lon="6.92786">
        <ele>116.19999694824</ele>
        <time>2014-01-12T10:44:07.000Z</time>
      </trkpt>
      <trkpt lat="43.49453" lon="6.92785">
        <ele>116.19999694824</ele>
        <time>2014-01-12T10:44:08.000Z</time>
      </trkpt>
      <trkpt lat="43.4947" lon="6.92774">
        <ele>117.19999694824</ele>
        <time>2014-01-12T10:44:18.000Z</time>
      </trkpt>
      <trkpt lat="43.49482" lon="6.92772">
        <ele>118.40000152588</ele>
        <time>2014-01-12T10:44:25.000Z</time>
      </trkpt>
      <trkpt lat="43.49485" lon="6.92772">
        <ele>118.80000305176</ele>
        <time>2014-01-12T10:44:29.000Z</time>
      </trkpt>
      <trkpt lat="43.49485" lon="6.92769">
        <ele>118.59999847412</ele>
        <time>2014-01-12T10:44:31.000Z</time>
      </trkpt>
      <trkpt lat="43.49483" lon="6.92769">
        <ele>118.40000152588</ele>
        <time>2014-01-12T10:44:34.000Z</time>
      </trkpt>
      <trkpt lat="43.49483" lon="6.92769">
        <ele>118.40000152588</ele>
        <time>2014-01-12T10:44:36.000Z</time>
      </trkpt>
      <trkpt lat="43.49478" lon="6.92771">
        <ele>117.80000305176</ele>
        <time>2014-01-12T10:45:01.000Z</time>
      </trkpt>
      <trkpt lat="43.49479" lon="6.92768">
        <ele>117.80000305176</ele>
        <time>2014-01-12T10:45:03.000Z</time>
      </trkpt>
      <trkpt lat="43.4948" lon="6.9277">
        <ele>118</ele>
        <time>2014-01-12T10:45:06.000Z</time>
      </trkpt>
      <trkpt lat="43.49484" lon="6.92768">
        <ele>118.40000152588</ele>
        <time>2014-01-12T10:45:14.000Z</time>
      </trkpt>
      <trkpt lat="43.49486" lon="6.92767">
        <ele>118.59999847412</ele>
        <time>2014-01-12T10:48:14.000Z</time>
      </trkpt>
      <trkpt lat="43.49482" lon="6.92787">
        <ele>119.40000152588</ele>
        <time>2014-01-12T10:48:19.000Z</time>
      </trkpt>
      <trkpt lat="43.49472" lon="6.92808">
        <ele>120.19999694824</ele>
        <time>2014-01-12T10:48:24.000Z</time>
      </trkpt>
      <trkpt lat="43.4946" lon="6.92827">
        <ele>121.40000152588</ele>
        <time>2014-01-12T10:48:31.000Z</time>
      </trkpt>
      <trkpt lat="43.49452" lon="6.92838">
        <ele>122.59999847412</ele>
        <time>2014-01-12T10:48:38.000Z</time>
      </trkpt>
      <trkpt lat="43.49439" lon="6.9284">
        <ele>122.59999847412</ele>
        <time>2014-01-12T10:48:44.000Z</time>
      </trkpt>
      <trkpt lat="43.4942" lon="6.92845">
        <ele>122.80000305176</ele>
        <time>2014-01-12T10:48:51.000Z</time>
      </trkpt>
      <trkpt lat="43.49409" lon="6.92856">
        <ele>122</ele>
        <time>2014-01-12T10:48:57.000Z</time>
      </trkpt>
      <trkpt lat="43.49402" lon="6.92875">
        <ele>122.59999847412</ele>
        <time>2014-01-12T10:49:05.000Z</time>
      </trkpt>
      <trkpt lat="43.49402" lon="6.92894">
        <ele>125.40000152588</ele>
        <time>2014-01-12T10:49:13.000Z</time>
      </trkpt>
      <trkpt lat="43.49406" lon="6.9291">
        <ele>129.39999389648</ele>
        <time>2014-01-12T10:49:20.000Z</time>
      </trkpt>
      <trkpt lat="43.49411" lon="6.92931">
        <ele>134</ele>
        <time>2014-01-12T10:49:28.000Z</time>
      </trkpt>
      <trkpt lat="43.49408" lon="6.9295">
        <ele>135.39999389648</ele>
        <time>2014-01-12T10:49:35.000Z</time>
      </trkpt>
      <trkpt lat="43.49401" lon="6.92978">
        <ele>136.80000305176</ele>
        <time>2014-01-12T10:49:45.000Z</time>
      </trkpt>
      <trkpt lat="43.49404" lon="6.92996">
        <ele>140.19999694824</ele>
        <time>2014-01-12T10:49:52.000Z</time>
      </trkpt>
      <trkpt lat="43.49404" lon="6.93015">
        <ele>143</ele>
        <time>2014-01-12T10:49:59.000Z</time>
      </trkpt>
      <trkpt lat="43.49399" lon="6.93038">
        <ele>144.80000305176</ele>
        <time>2014-01-12T10:50:08.000Z</time>
      </trkpt>
      <trkpt lat="43.49392" lon="6.93058">
        <ele>145.60000610352</ele>
        <time>2014-01-12T10:50:16.000Z</time>
      </trkpt>
      <trkpt lat="43.49384" lon="6.93078">
        <ele>146.39999389648</ele>
        <time>2014-01-12T10:50:22.000Z</time>
      </trkpt>
      <trkpt lat="43.4937" lon="6.93106">
        <ele>146.19999694824</ele>
        <time>2014-01-12T10:50:27.000Z</time>
      </trkpt>
      <trkpt lat="43.4936" lon="6.93136">
        <ele>147.80000305176</ele>
        <time>2014-01-12T10:50:31.000Z</time>
      </trkpt>
      <trkpt lat="43.49356" lon="6.93156">
        <ele>149.80000305176</ele>
        <time>2014-01-12T10:50:34.000Z</time>
      </trkpt>
      <trkpt lat="43.49357" lon="6.93168">
        <ele>152</ele>
        <time>2014-01-12T10:50:36.000Z</time>
      </trkpt>
      <trkpt lat="43.49361" lon="6.93182">
        <ele>154.39999389648</ele>
        <time>2014-01-12T10:50:40.000Z</time>
      </trkpt>
      <trkpt lat="43.49363" lon="6.93186">
        <ele>155</ele>
        <time>2014-01-12T10:50:41.000Z</time>
      </trkpt>
      <trkpt lat="43.49364" lon="6.9319">
        <ele>155.60000610352</ele>
        <time>2014-01-12T10:50:42.000Z</time>
      </trkpt>
      <trkpt lat="43.49372" lon="6.93196">
        <ele>157.39999389648</ele>
        <time>2014-01-12T10:50:46.000Z</time>
      </trkpt>
      <trkpt lat="43.49369" lon="6.93183">
        <ele>155.80000305176</ele>
        <time>2014-01-12T10:50:49.000Z</time>
      </trkpt>
      <trkpt lat="43.49368" lon="6.93162">
        <ele>153.39999389648</ele>
        <time>2014-01-12T10:50:53.000Z</time>
      </trkpt>
      <trkpt lat="43.49379" lon="6.93141">
        <ele>153.19999694824</ele>
        <time>2014-01-12T10:50:58.000Z</time>
      </trkpt>
      <trkpt lat="43.49399" lon="6.93126">
        <ele>156.19999694824</ele>
        <time>2014-01-12T10:51:04.000Z</time>
      </trkpt>
      <trkpt lat="43.49422" lon="6.93113">
        <ele>158.60000610352</ele>
        <time>2014-01-12T10:51:11.000Z</time>
      </trkpt>
      <trkpt lat="43.49434" lon="6.93111">
        <ele>156.39999389648</ele>
        <time>2014-01-12T10:51:16.000Z</time>
      </trkpt>
      <trkpt lat="43.4944" lon="6.93114">
        <ele>155.80000305176</ele>
        <time>2014-01-12T10:51:21.000Z</time>
      </trkpt>
      <trkpt lat="43.4944" lon="6.93115">
        <ele>155.80000305176</ele>
        <time>2014-01-12T10:51:22.000Z</time>
      </trkpt>
      <trkpt lat="43.49442" lon="6.93129">
        <ele>156.19999694824</ele>
        <time>2014-01-12T10:51:31.000Z</time>
      </trkpt>
      <trkpt lat="43.49442" lon="6.93137">
        <ele>156.39999389648</ele>
        <time>2014-01-12T10:51:35.000Z</time>
      </trkpt>
      <trkpt lat="43.49442" lon="6.93139">
        <ele>156.60000610352</ele>
        <time>2014-01-12T10:51:36.000Z</time>
      </trkpt>
      <trkpt lat="43.49443" lon="6.93156">
        <ele>157.19999694824</ele>
        <time>2014-01-12T10:51:43.000Z</time>
      </trkpt>
      <trkpt lat="43.49438" lon="6.93169">
        <ele>159</ele>
        <time>2014-01-12T10:51:49.000Z</time>
      </trkpt>
      <trkpt lat="43.49427" lon="6.93191">
        <ele>161.19999694824</ele>
        <time>2014-01-12T10:51:56.000Z</time>
      </trkpt>
      <trkpt lat="43.49412" lon="6.93213">
        <ele>163.60000610352</ele>
        <time>2014-01-12T10:52:02.000Z</time>
      </trkpt>
      <trkpt lat="43.49403" lon="6.93232">
        <ele>163</ele>
        <time>2014-01-12T10:52:07.000Z</time>
      </trkpt>
      <trkpt lat="43.49398" lon="6.93256">
        <ele>163.60000610352</ele>
        <time>2014-01-12T10:52:13.000Z</time>
      </trkpt>
      <trkpt lat="43.49396" lon="6.93267">
        <ele>164</ele>
        <time>2014-01-12T10:52:16.000Z</time>
      </trkpt>
      <trkpt lat="43.49393" lon="6.93274">
        <ele>164.19999694824</ele>
        <time>2014-01-12T10:52:18.000Z</time>
      </trkpt>
      <trkpt lat="43.49383" lon="6.93294">
        <ele>165.60000610352</ele>
        <time>2014-01-12T10:52:24.000Z</time>
      </trkpt>
      <trkpt lat="43.49377" lon="6.93301">
        <ele>166.39999389648</ele>
        <time>2014-01-12T10:52:28.000Z</time>
      </trkpt>
      <trkpt lat="43.4937" lon="6.93306">
        <ele>167.19999694824</ele>
        <time>2014-01-12T10:52:32.000Z</time>
      </trkpt>
      <trkpt lat="43.49365" lon="6.93307">
        <ele>167.60000610352</ele>
        <time>2014-01-12T10:52:34.000Z</time>
      </trkpt>
      <trkpt lat="43.49349" lon="6.9331">
        <ele>169.19999694824</ele>
        <time>2014-01-12T10:52:40.000Z</time>
      </trkpt>
      <trkpt lat="43.4934" lon="6.93323">
        <ele>171.60000610352</ele>
        <time>2014-01-12T10:52:45.000Z</time>
      </trkpt>
      <trkpt lat="43.4934" lon="6.93344">
        <ele>174</ele>
        <time>2014-01-12T10:52:50.000Z</time>
      </trkpt>
      <trkpt lat="43.49349" lon="6.93356">
        <ele>173.60000610352</ele>
        <time>2014-01-12T10:52:55.000Z</time>
      </trkpt>
      <trkpt lat="43.49353" lon="6.93371">
        <ele>174</ele>
        <time>2014-01-12T10:53:00.000Z</time>
      </trkpt>
      <trkpt lat="43.4935" lon="6.9338">
        <ele>174.80000305176</ele>
        <time>2014-01-12T10:53:05.000Z</time>
      </trkpt>
      <trkpt lat="43.4935" lon="6.93384">
        <ele>175.19999694824</ele>
        <time>2014-01-12T10:53:07.000Z</time>
      </trkpt>
      <trkpt lat="43.49349" lon="6.93391">
        <ele>175.80000305176</ele>
        <time>2014-01-12T10:53:11.000Z</time>
      </trkpt>
      <trkpt lat="43.49345" lon="6.93405">
        <ele>177.19999694824</ele>
        <time>2014-01-12T10:53:18.000Z</time>
      </trkpt>
      <trkpt lat="43.49344" lon="6.9342">
        <ele>178.19999694824</ele>
        <time>2014-01-12T10:53:27.000Z</time>
      </trkpt>
      <trkpt lat="43.49343" lon="6.9344">
        <ele>177.80000305176</ele>
        <time>2014-01-12T10:53:35.000Z</time>
      </trkpt>
      <trkpt lat="43.49339" lon="6.93456">
        <ele>178</ele>
        <time>2014-01-12T10:53:42.000Z</time>
      </trkpt>
      <trkpt lat="43.49335" lon="6.93477">
        <ele>178.39999389648</ele>
        <time>2014-01-12T10:53:49.000Z</time>
      </trkpt>
      <trkpt lat="43.49336" lon="6.93504">
        <ele>177.39999389648</ele>
        <time>2014-01-12T10:53:53.000Z</time>
      </trkpt>
      <trkpt lat="43.49343" lon="6.9353">
        <ele>174.80000305176</ele>
        <time>2014-01-12T10:53:57.000Z</time>
      </trkpt>
      <trkpt lat="43.4935" lon="6.93567">
        <ele>171</ele>
        <time>2014-01-12T10:54:01.000Z</time>
      </trkpt>
      <trkpt lat="43.49349" lon="6.93577">
        <ele>170.60000610352</ele>
        <time>2014-01-12T10:54:02.000Z</time>
      </trkpt>
      <trkpt lat="43.49341" lon="6.93604">
        <ele>172.60000610352</ele>
        <time>2014-01-12T10:54:05.000Z</time>
      </trkpt>
      <trkpt lat="43.49332" lon="6.93628">
        <ele>174.80000305176</ele>
        <time>2014-01-12T10:54:09.000Z</time>
      </trkpt>
      <trkpt lat="43.49331" lon="6.93632">
        <ele>174.60000610352</ele>
        <time>2014-01-12T10:54:10.000Z</time>
      </trkpt>
      <trkpt lat="43.49325" lon="6.93655">
        <ele>174</ele>
        <time>2014-01-12T10:54:15.000Z</time>
      </trkpt>
      <trkpt lat="43.49321" lon="6.93685">
        <ele>173.39999389648</ele>
        <time>2014-01-12T10:54:22.000Z</time>
      </trkpt>
      <trkpt lat="43.49315" lon="6.93718">
        <ele>172.60000610352</ele>
        <time>2014-01-12T10:54:30.000Z</time>
      </trkpt>
      <trkpt lat="43.4931" lon="6.93742">
        <ele>172</ele>
        <time>2014-01-12T10:54:38.000Z</time>
      </trkpt>
      <trkpt lat="43.49309" lon="6.9375">
        <ele>172.19999694824</ele>
        <time>2014-01-12T10:54:45.000Z</time>
      </trkpt>
      <trkpt lat="43.4931" lon="6.93752">
        <ele>172.19999694824</ele>
        <time>2014-01-12T10:54:46.000Z</time>
      </trkpt>
      <trkpt lat="43.4931" lon="6.93757">
        <ele>172.39999389648</ele>
        <time>2014-01-12T10:54:49.000Z</time>
      </trkpt>
      <trkpt lat="43.4931" lon="6.93762">
        <ele>172.39999389648</ele>
        <time>2014-01-12T10:54:53.000Z</time>
      </trkpt>
      <trkpt lat="43.49311" lon="6.93766">
        <ele>172.60000610352</ele>
        <time>2014-01-12T10:54:56.000Z</time>
      </trkpt>
      <trkpt lat="43.49311" lon="6.93771">
        <ele>172.80000305176</ele>
        <time>2014-01-12T10:55:00.000Z</time>
      </trkpt>
      <trkpt lat="43.4931" lon="6.93781">
        <ele>172.80000305176</ele>
        <time>2014-01-12T10:55:08.000Z</time>
      </trkpt>
      <trkpt lat="43.49308" lon="6.9379">
        <ele>172.80000305176</ele>
        <time>2014-01-12T10:55:22.000Z</time>
      </trkpt>
      <trkpt lat="43.49307" lon="6.93791">
        <ele>172.80000305176</ele>
        <time>2014-01-12T10:55:23.000Z</time>
      </trkpt>
      <trkpt lat="43.49306" lon="6.93788">
        <ele>172.39999389648</ele>
        <time>2014-01-12T10:55:26.000Z</time>
      </trkpt>
      <trkpt lat="43.49306" lon="6.93787">
        <ele>172.39999389648</ele>
        <time>2014-01-12T10:55:27.000Z</time>
      </trkpt>
      <trkpt lat="43.49308" lon="6.93785">
        <ele>172.80000305176</ele>
        <time>2014-01-12T10:55:30.000Z</time>
      </trkpt>
      <trkpt lat="43.49308" lon="6.93783">
        <ele>172.60000610352</ele>
        <time>2014-01-12T10:55:31.000Z</time>
      </trkpt>
      <trkpt lat="43.49309" lon="6.9378">
        <ele>172.60000610352</ele>
        <time>2014-01-12T10:55:37.000Z</time>
      </trkpt>
      <trkpt lat="43.49308" lon="6.93773">
        <ele>172.39999389648</ele>
        <time>2014-01-12T11:02:02.000Z</time>
      </trkpt>
      <trkpt lat="43.49308" lon="6.93771">
        <ele>172.39999389648</ele>
        <time>2014-01-12T11:02:04.000Z</time>
      </trkpt>
      <trkpt lat="43.49307" lon="6.93762">
        <ele>172.19999694824</ele>
        <time>2014-01-12T11:02:11.000Z</time>
      </trkpt>
      <trkpt lat="43.49305" lon="6.93752">
        <ele>171.60000610352</ele>
        <time>2014-01-12T11:02:17.000Z</time>
      </trkpt>
      <trkpt lat="43.49298" lon="6.93732">
        <ele>170.19999694824</ele>
        <time>2014-01-12T11:02:22.000Z</time>
      </trkpt>
      <trkpt lat="43.49293" lon="6.93704">
        <ele>169</ele>
        <time>2014-01-12T11:02:27.000Z</time>
      </trkpt>
      <trkpt lat="43.49295" lon="6.93692">
        <ele>169</ele>
        <time>2014-01-12T11:02:29.000Z</time>
      </trkpt>
      <trkpt lat="43.49301" lon="6.93683">
        <ele>169.80000305176</ele>
        <time>2014-01-12T11:02:31.000Z</time>
      </trkpt>
      <trkpt lat="43.49318" lon="6.93665">
        <ele>172.80000305176</ele>
        <time>2014-01-12T11:02:35.000Z</time>
      </trkpt>
      <trkpt lat="43.49327" lon="6.93653">
        <ele>174.19999694824</ele>
        <time>2014-01-12T11:02:37.000Z</time>
      </trkpt>
      <trkpt lat="43.4933" lon="6.9364">
        <ele>174.60000610352</ele>
        <time>2014-01-12T11:02:39.000Z</time>
      </trkpt>
      <trkpt lat="43.49334" lon="6.9361">
        <ele>174.39999389648</ele>
        <time>2014-01-12T11:02:43.000Z</time>
      </trkpt>
      <trkpt lat="43.49338" lon="6.93596">
        <ele>173.19999694824</ele>
        <time>2014-01-12T11:02:45.000Z</time>
      </trkpt>
      <trkpt lat="43.49344" lon="6.93582">
        <ele>171.60000610352</ele>
        <time>2014-01-12T11:02:47.000Z</time>
      </trkpt>
      <trkpt lat="43.49348" lon="6.93574">
        <ele>171</ele>
        <time>2014-01-12T11:02:48.000Z</time>
      </trkpt>
      <trkpt lat="43.4936" lon="6.93554">
        <ele>169.60000610352</ele>
        <time>2014-01-12T11:02:52.000Z</time>
      </trkpt>
      <trkpt lat="43.49361" lon="6.93551">
        <ele>169.60000610352</ele>
        <time>2014-01-12T11:02:53.000Z</time>
      </trkpt>
      <trkpt lat="43.49366" lon="6.93545">
        <ele>169</ele>
        <time>2014-01-12T11:02:55.000Z</time>
      </trkpt>
      <trkpt lat="43.4937" lon="6.93542">
        <ele>168.60000610352</ele>
        <time>2014-01-12T11:02:56.000Z</time>
      </trkpt>
      <trkpt lat="43.49373" lon="6.93538">
        <ele>168.19999694824</ele>
        <time>2014-01-12T11:02:57.000Z</time>
      </trkpt>
      <trkpt lat="43.49381" lon="6.93522">
        <ele>168.19999694824</ele>
        <time>2014-01-12T11:03:00.000Z</time>
      </trkpt>
      <trkpt lat="43.49389" lon="6.93502">
        <ele>169.19999694824</ele>
        <time>2014-01-12T11:03:04.000Z</time>
      </trkpt>
      <trkpt lat="43.49393" lon="6.93495">
        <ele>168.80000305176</ele>
        <time>2014-01-12T11:03:07.000Z</time>
      </trkpt>
      <trkpt lat="43.49399" lon="6.93482">
        <ele>168</ele>
        <time>2014-01-12T11:03:11.000Z</time>
      </trkpt>
      <trkpt lat="43.49404" lon="6.93467">
        <ele>167.39999389648</ele>
        <time>2014-01-12T11:03:15.000Z</time>
      </trkpt>
      <trkpt lat="43.4941" lon="6.93449">
        <ele>166.80000305176</ele>
        <time>2014-01-12T11:03:19.000Z</time>
      </trkpt>
      <trkpt lat="43.49417" lon="6.93437">
        <ele>165.60000610352</ele>
        <time>2014-01-12T11:03:23.000Z</time>
      </trkpt>
      <trkpt lat="43.49428" lon="6.93429">
        <ele>161.19999694824</ele>
        <time>2014-01-12T11:03:28.000Z</time>
      </trkpt>
      <trkpt lat="43.49429" lon="6.93433">
        <ele>160.60000610352</ele>
        <time>2014-01-12T11:03:30.000Z</time>
      </trkpt>
      <trkpt lat="43.49429" lon="6.93436">
        <ele>160.60000610352</ele>
        <time>2014-01-12T11:03:31.000Z</time>
      </trkpt>
      <trkpt lat="43.49428" lon="6.93452">
        <ele>161</ele>
        <time>2014-01-12T11:03:36.000Z</time>
      </trkpt>
      <trkpt lat="43.49428" lon="6.93454">
        <ele>161</ele>
        <time>2014-01-12T11:03:37.000Z</time>
      </trkpt>
      <trkpt lat="43.49427" lon="6.9346">
        <ele>161</ele>
        <time>2014-01-12T11:03:40.000Z</time>
      </trkpt>
      <trkpt lat="43.49428" lon="6.93462">
        <ele>160.80000305176</ele>
        <time>2014-01-12T11:03:41.000Z</time>
      </trkpt>
      <trkpt lat="43.49433" lon="6.93471">
        <ele>158.80000305176</ele>
        <time>2014-01-12T11:03:45.000Z</time>
      </trkpt>
      <trkpt lat="43.49438" lon="6.93482">
        <ele>156.80000305176</ele>
        <time>2014-01-12T11:03:49.000Z</time>
      </trkpt>
      <trkpt lat="43.49438" lon="6.93485">
        <ele>156.39999389648</ele>
        <time>2014-01-12T11:03:50.000Z</time>
      </trkpt>
      <trkpt lat="43.49435" lon="6.93498">
        <ele>157.39999389648</ele>
        <time>2014-01-12T11:03:53.000Z</time>
      </trkpt>
      <trkpt lat="43.49433" lon="6.9351">
        <ele>157</ele>
        <time>2014-01-12T11:03:58.000Z</time>
      </trkpt>
      <trkpt lat="43.49434" lon="6.93515">
        <ele>155.80000305176</ele>
        <time>2014-01-12T11:04:00.000Z</time>
      </trkpt>
      <trkpt lat="43.49435" lon="6.93524">
        <ele>154</ele>
        <time>2014-01-12T11:04:02.000Z</time>
      </trkpt>
      <trkpt lat="43.49439" lon="6.93543">
        <ele>149.39999389648</ele>
        <time>2014-01-12T11:04:07.000Z</time>
      </trkpt>
      <trkpt lat="43.49448" lon="6.93555">
        <ele>143.80000305176</ele>
        <time>2014-01-12T11:04:12.000Z</time>
      </trkpt>
      <trkpt lat="43.49452" lon="6.93565">
        <ele>140.60000610352</ele>
        <time>2014-01-12T11:04:16.000Z</time>
      </trkpt>
      <trkpt lat="43.49455" lon="6.93576">
        <ele>137.80000305176</ele>
        <time>2014-01-12T11:04:19.000Z</time>
      </trkpt>
      <trkpt lat="43.49461" lon="6.93582">
        <ele>134.60000610352</ele>
        <time>2014-01-12T11:04:23.000Z</time>
      </trkpt>
      <trkpt lat="43.49464" lon="6.93592">
        <ele>132.60000610352</ele>
        <time>2014-01-12T11:04:27.000Z</time>
      </trkpt>
      <trkpt lat="43.49467" lon="6.93587">
        <ele>131.39999389648</ele>
        <time>2014-01-12T11:04:31.000Z</time>
      </trkpt>
      <trkpt lat="43.4947" lon="6.93589">
        <ele>130</ele>
        <time>2014-01-12T11:04:34.000Z</time>
      </trkpt>
      <trkpt lat="43.49474" lon="6.93601">
        <ele>127.59999847412</ele>
        <time>2014-01-12T11:04:38.000Z</time>
      </trkpt>
      <trkpt lat="43.49479" lon="6.93609">
        <ele>124.80000305176</ele>
        <time>2014-01-12T11:04:41.000Z</time>
      </trkpt>
      <trkpt lat="43.49481" lon="6.93609">
        <ele>123.80000305176</ele>
        <time>2014-01-12T11:04:42.000Z</time>
      </trkpt>
      <trkpt lat="43.49489" lon="6.93606">
        <ele>120.40000152588</ele>
        <time>2014-01-12T11:04:46.000Z</time>
      </trkpt>
      <trkpt lat="43.49496" lon="6.93601">
        <ele>118</ele>
        <time>2014-01-12T11:04:50.000Z</time>
      </trkpt>
      <trkpt lat="43.49498" lon="6.936">
        <ele>117.19999694824</ele>
        <time>2014-01-12T11:04:51.000Z</time>
      </trkpt>
      <trkpt lat="43.49501" lon="6.93609">
        <ele>114.80000305176</ele>
        <time>2014-01-12T11:04:54.000Z</time>
      </trkpt>
      <trkpt lat="43.49505" lon="6.93617">
        <ele>112.40000152588</ele>
        <time>2014-01-12T11:04:57.000Z</time>
      </trkpt>
      <trkpt lat="43.49507" lon="6.9362">
        <ele>111.59999847412</ele>
        <time>2014-01-12T11:04:58.000Z</time>
      </trkpt>
      <trkpt lat="43.49511" lon="6.93628">
        <ele>109.19999694824</ele>
        <time>2014-01-12T11:05:03.000Z</time>
      </trkpt>
      <trkpt lat="43.49519" lon="6.93625">
        <ele>106.59999847412</ele>
        <time>2014-01-12T11:05:07.000Z</time>
      </trkpt>
      <trkpt lat="43.49521" lon="6.93625">
        <ele>106</ele>
        <time>2014-01-12T11:05:08.000Z</time>
      </trkpt>
      <trkpt lat="43.49525" lon="6.93626">
        <ele>104.40000152588</ele>
        <time>2014-01-12T11:05:12.000Z</time>
      </trkpt>
      <trkpt lat="43.49526" lon="6.93639">
        <ele>102.40000152588</ele>
        <time>2014-01-12T11:05:15.000Z</time>
      </trkpt>
      <trkpt lat="43.49527" lon="6.93645">
        <ele>101.40000152588</ele>
        <time>2014-01-12T11:05:17.000Z</time>
      </trkpt>
      <trkpt lat="43.49528" lon="6.93648">
        <ele>100.59999847412</ele>
        <time>2014-01-12T11:05:18.000Z</time>
      </trkpt>
      <trkpt lat="43.49529" lon="6.93649">
        <ele>100.19999694824</ele>
        <time>2014-01-12T11:05:19.000Z</time>
      </trkpt>
      <trkpt lat="43.49536" lon="6.93646">
        <ele>97.800003051758</ele>
        <time>2014-01-12T11:05:23.000Z</time>
      </trkpt>
      <trkpt lat="43.49539" lon="6.93644">
        <ele>97.199996948242</ele>
        <time>2014-01-12T11:05:24.000Z</time>
      </trkpt>
      <trkpt lat="43.4954" lon="6.93637">
        <ele>97.400001525879</ele>
        <time>2014-01-12T11:05:26.000Z</time>
      </trkpt>
      <trkpt lat="43.49545" lon="6.93626">
        <ele>97.199996948242</ele>
        <time>2014-01-12T11:05:30.000Z</time>
      </trkpt>
      <trkpt lat="43.49546" lon="6.93616">
        <ele>98.199996948242</ele>
        <time>2014-01-12T11:05:33.000Z</time>
      </trkpt>
      <trkpt lat="43.49546" lon="6.93612">
        <ele>98.599998474121</ele>
        <time>2014-01-12T11:05:34.000Z</time>
      </trkpt>
      <trkpt lat="43.49549" lon="6.93601">
        <ele>99</ele>
        <time>2014-01-12T11:05:38.000Z</time>
      </trkpt>
      <trkpt lat="43.49552" lon="6.93599">
        <ele>98.400001525879</ele>
        <time>2014-01-12T11:05:40.000Z</time>
      </trkpt>
      <trkpt lat="43.49555" lon="6.936">
        <ele>97.199996948242</ele>
        <time>2014-01-12T11:05:42.000Z</time>
      </trkpt>
      <trkpt lat="43.49562" lon="6.93606">
        <ele>93.800003051758</ele>
        <time>2014-01-12T11:05:47.000Z</time>
      </trkpt>
      <trkpt lat="43.49572" lon="6.93617">
        <ele>89</ele>
        <time>2014-01-12T11:05:52.000Z</time>
      </trkpt>
      <trkpt lat="43.49576" lon="6.93629">
        <ele>85.599998474121</ele>
        <time>2014-01-12T11:05:55.000Z</time>
      </trkpt>
      <trkpt lat="43.4958" lon="6.93639">
        <ele>82.400001525879</ele>
        <time>2014-01-12T11:05:59.000Z</time>
      </trkpt>
      <trkpt lat="43.49581" lon="6.93646">
        <ele>81</ele>
        <time>2014-01-12T11:06:01.000Z</time>
      </trkpt>
      <trkpt lat="43.49584" lon="6.93647">
        <ele>80</ele>
        <time>2014-01-12T11:06:03.000Z</time>
      </trkpt>
      <trkpt lat="43.49587" lon="6.93644">
        <ele>80.199996948242</ele>
        <time>2014-01-12T11:06:05.000Z</time>
      </trkpt>
      <trkpt lat="43.49588" lon="6.93643">
        <ele>80.400001525879</ele>
        <time>2014-01-12T11:06:06.000Z</time>
      </trkpt>
      <trkpt lat="43.49595" lon="6.93639">
        <ele>80.199996948242</ele>
        <time>2014-01-12T11:06:09.000Z</time>
      </trkpt>
      <trkpt lat="43.49598" lon="6.93642">
        <ele>79.599998474121</ele>
        <time>2014-01-12T11:06:11.000Z</time>
      </trkpt>
      <trkpt lat="43.49597" lon="6.93653">
        <ele>78.400001525879</ele>
        <time>2014-01-12T11:06:14.000Z</time>
      </trkpt>
      <trkpt lat="43.49589" lon="6.93665">
        <ele>77.199996948242</ele>
        <time>2014-01-12T11:06:18.000Z</time>
      </trkpt>
      <trkpt lat="43.49589" lon="6.93667">
        <ele>77</ele>
        <time>2014-01-12T11:06:19.000Z</time>
      </trkpt>
      <trkpt lat="43.49592" lon="6.9367">
        <ele>77.400001525879</ele>
        <time>2014-01-12T11:06:23.000Z</time>
      </trkpt>
      <trkpt lat="43.49599" lon="6.93668">
        <ele>77</ele>
        <time>2014-01-12T11:06:26.000Z</time>
      </trkpt>
      <trkpt lat="43.49609" lon="6.93664">
        <ele>77.199996948242</ele>
        <time>2014-01-12T11:06:31.000Z</time>
      </trkpt>
      <trkpt lat="43.49611" lon="6.93664">
        <ele>77.199996948242</ele>
        <time>2014-01-12T11:06:33.000Z</time>
      </trkpt>
      <trkpt lat="43.49614" lon="6.93664">
        <ele>77.199996948242</ele>
        <time>2014-01-12T11:06:36.000Z</time>
      </trkpt>
      <trkpt lat="43.49614" lon="6.93676">
        <ele>78.400001525879</ele>
        <time>2014-01-12T11:09:37.000Z</time>
      </trkpt>
      <trkpt lat="43.49609" lon="6.93678">
        <ele>78.599998474121</ele>
        <time>2014-01-12T11:11:28.000Z</time>
      </trkpt>
      <trkpt lat="43.49604" lon="6.93673">
        <ele>77.800003051758</ele>
        <time>2014-01-12T11:11:31.000Z</time>
      </trkpt>
      <trkpt lat="43.49602" lon="6.93667">
        <ele>77</ele>
        <time>2014-01-12T11:11:33.000Z</time>
      </trkpt>
      <trkpt lat="43.49603" lon="6.93664">
        <ele>77.199996948242</ele>
        <time>2014-01-12T11:11:34.000Z</time>
      </trkpt>
      <trkpt lat="43.4961" lon="6.93648">
        <ele>78.199996948242</ele>
        <time>2014-01-12T11:11:40.000Z</time>
      </trkpt>
      <trkpt lat="43.49615" lon="6.93634">
        <ele>78.599998474121</ele>
        <time>2014-01-12T11:11:46.000Z</time>
      </trkpt>
      <trkpt lat="43.49619" lon="6.93619">
        <ele>78.599998474121</ele>
        <time>2014-01-12T11:11:53.000Z</time>
      </trkpt>
      <trkpt lat="43.49622" lon="6.9361">
        <ele>78.199996948242</ele>
        <time>2014-01-12T11:11:57.000Z</time>
      </trkpt>
      <trkpt lat="43.49623" lon="6.93606">
        <ele>78.199996948242</ele>
        <time>2014-01-12T11:11:59.000Z</time>
      </trkpt>
      <trkpt lat="43.49626" lon="6.93593">
        <ele>77.599998474121</ele>
        <time>2014-01-12T11:12:05.000Z</time>
      </trkpt>
      <trkpt lat="43.4963" lon="6.93579">
        <ele>77.199996948242</ele>
        <time>2014-01-12T11:12:12.000Z</time>
      </trkpt>
      <trkpt lat="43.49636" lon="6.9356">
        <ele>77.400001525879</ele>
        <time>2014-01-12T11:12:21.000Z</time>
      </trkpt>
      <trkpt lat="43.49643" lon="6.9354">
        <ele>76.599998474121</ele>
        <time>2014-01-12T11:12:29.000Z</time>
      </trkpt>
      <trkpt lat="43.49651" lon="6.93517">
        <ele>75.199996948242</ele>
        <time>2014-01-12T11:12:39.000Z</time>
      </trkpt>
      <trkpt lat="43.49658" lon="6.93499">
        <ele>73</ele>
        <time>2014-01-12T11:12:47.000Z</time>
      </trkpt>
      <trkpt lat="43.49662" lon="6.9348">
        <ele>71</ele>
        <time>2014-01-12T11:12:55.000Z</time>
      </trkpt>
      <trkpt lat="43.49661" lon="6.93466">
        <ele>71.199996948242</ele>
        <time>2014-01-12T11:13:01.000Z</time>
      </trkpt>
      <trkpt lat="43.49656" lon="6.9345">
        <ele>73</ele>
        <time>2014-01-12T11:13:08.000Z</time>
      </trkpt>
      <trkpt lat="43.49651" lon="6.93435">
        <ele>75.199996948242</ele>
        <time>2014-01-12T11:13:14.000Z</time>
      </trkpt>
      <trkpt lat="43.49645" lon="6.93422">
        <ele>77.400001525879</ele>
        <time>2014-01-12T11:13:20.000Z</time>
      </trkpt>
      <trkpt lat="43.49636" lon="6.93405">
        <ele>80.800003051758</ele>
        <time>2014-01-12T11:13:29.000Z</time>
      </trkpt>
      <trkpt lat="43.49624" lon="6.9339">
        <ele>85</ele>
        <time>2014-01-12T11:13:37.000Z</time>
      </trkpt>
      <trkpt lat="43.49611" lon="6.9338">
        <ele>89.599998474121</ele>
        <time>2014-01-12T11:13:45.000Z</time>
      </trkpt>
      <trkpt lat="43.49596" lon="6.93369">
        <ele>94.199996948242</ele>
        <time>2014-01-12T11:13:54.000Z</time>
      </trkpt>
      <trkpt lat="43.49583" lon="6.93366">
        <ele>98.800003051758</ele>
        <time>2014-01-12T11:14:02.000Z</time>
      </trkpt>
      <trkpt lat="43.49569" lon="6.93356">
        <ele>103.19999694824</ele>
        <time>2014-01-12T11:14:10.000Z</time>
      </trkpt>
      <trkpt lat="43.49568" lon="6.93353">
        <ele>103.59999847412</ele>
        <time>2014-01-12T11:14:11.000Z</time>
      </trkpt>
      <trkpt lat="43.49567" lon="6.93345">
        <ele>103.19999694824</ele>
        <time>2014-01-12T11:14:14.000Z</time>
      </trkpt>
      <trkpt lat="43.49568" lon="6.93343">
        <ele>102.80000305176</ele>
        <time>2014-01-12T11:14:15.000Z</time>
      </trkpt>
      <trkpt lat="43.49572" lon="6.93335">
        <ele>100.59999847412</ele>
        <time>2014-01-12T11:14:19.000Z</time>
      </trkpt>
      <trkpt lat="43.49583" lon="6.93324">
        <ele>97</ele>
        <time>2014-01-12T11:14:26.000Z</time>
      </trkpt>
      <trkpt lat="43.49599" lon="6.93315">
        <ele>92.599998474121</ele>
        <time>2014-01-12T11:14:34.000Z</time>
      </trkpt>
      <trkpt lat="43.49612" lon="6.93304">
        <ele>89.199996948242</ele>
        <time>2014-01-12T11:14:41.000Z</time>
      </trkpt>
      <trkpt lat="43.4962" lon="6.93283">
        <ele>88.400001525879</ele>
        <time>2014-01-12T11:14:49.000Z</time>
      </trkpt>
      <trkpt lat="43.49619" lon="6.93263">
        <ele>90.400001525879</ele>
        <time>2014-01-12T11:14:56.000Z</time>
      </trkpt>
      <trkpt lat="43.49615" lon="6.93251">
        <ele>92.599998474121</ele>
        <time>2014-01-12T11:15:01.000Z</time>
      </trkpt>
      <trkpt lat="43.49605" lon="6.93238">
        <ele>96.400001525879</ele>
        <time>2014-01-12T11:15:08.000Z</time>
      </trkpt>
      <trkpt lat="43.49593" lon="6.93226">
        <ele>100.80000305176</ele>
        <time>2014-01-12T11:15:15.000Z</time>
      </trkpt>
      <trkpt lat="43.49581" lon="6.93213">
        <ele>105.80000305176</ele>
        <time>2014-01-12T11:15:21.000Z</time>
      </trkpt>
      <trkpt lat="43.49574" lon="6.93199">
        <ele>109.40000152588</ele>
        <time>2014-01-12T11:15:25.000Z</time>
      </trkpt>
      <trkpt lat="43.49575" lon="6.93195">
        <ele>109.40000152588</ele>
        <time>2014-01-12T11:15:26.000Z</time>
      </trkpt>
      <trkpt lat="43.49582" lon="6.93179">
        <ele>106.80000305176</ele>
        <time>2014-01-12T11:15:32.000Z</time>
      </trkpt>
      <trkpt lat="43.49597" lon="6.93162">
        <ele>103</ele>
        <time>2014-01-12T11:15:40.000Z</time>
      </trkpt>
      <trkpt lat="43.49611" lon="6.93145">
        <ele>100.80000305176</ele>
        <time>2014-01-12T11:15:48.000Z</time>
      </trkpt>
      <trkpt lat="43.49623" lon="6.93122">
        <ele>100</ele>
        <time>2014-01-12T11:15:58.000Z</time>
      </trkpt>
      <trkpt lat="43.49629" lon="6.93095">
        <ele>101.80000305176</ele>
        <time>2014-01-12T11:16:08.000Z</time>
      </trkpt>
      <trkpt lat="43.49631" lon="6.93071">
        <ele>102.40000152588</ele>
        <time>2014-01-12T11:16:16.000Z</time>
      </trkpt>
      <trkpt lat="43.4963" lon="6.93058">
        <ele>102.59999847412</ele>
        <time>2014-01-12T11:16:21.000Z</time>
      </trkpt>
      <trkpt lat="43.49629" lon="6.93054">
        <ele>102.80000305176</ele>
        <time>2014-01-12T11:16:23.000Z</time>
      </trkpt>
      <trkpt lat="43.49626" lon="6.93048">
        <ele>103.80000305176</ele>
        <time>2014-01-12T11:16:26.000Z</time>
      </trkpt>
      <trkpt lat="43.49615" lon="6.93038">
        <ele>106.40000152588</ele>
        <time>2014-01-12T11:16:33.000Z</time>
      </trkpt>
      <trkpt lat="43.49598" lon="6.93027">
        <ele>110.80000305176</ele>
        <time>2014-01-12T11:16:43.000Z</time>
      </trkpt>
      <trkpt lat="43.49589" lon="6.93015">
        <ele>112.40000152588</ele>
        <time>2014-01-12T11:16:48.000Z</time>
      </trkpt>
      <trkpt lat="43.49587" lon="6.93001">
        <ele>112.19999694824</ele>
        <time>2014-01-12T11:16:53.000Z</time>
      </trkpt>
      <trkpt lat="43.49592" lon="6.92985">
        <ele>109.80000305176</ele>
        <time>2014-01-12T11:16:59.000Z</time>
      </trkpt>
      <trkpt lat="43.49587" lon="6.92971">
        <ele>110.19999694824</ele>
        <time>2014-01-12T11:17:05.000Z</time>
      </trkpt>
      <trkpt lat="43.49578" lon="6.92958">
        <ele>112</ele>
        <time>2014-01-12T11:17:12.000Z</time>
      </trkpt>
      <trkpt lat="43.49566" lon="6.92933">
        <ele>114</ele>
        <time>2014-01-12T11:17:22.000Z</time>
      </trkpt>
      <trkpt lat="43.49561" lon="6.92914">
        <ele>114.80000305176</ele>
        <time>2014-01-12T11:17:29.000Z</time>
      </trkpt>
      <trkpt lat="43.49546" lon="6.92892">
        <ele>117.59999847412</ele>
        <time>2014-01-12T11:17:39.000Z</time>
      </trkpt>
      <trkpt lat="43.49536" lon="6.92877">
        <ele>119</ele>
        <time>2014-01-12T11:17:46.000Z</time>
      </trkpt>
      <trkpt lat="43.49523" lon="6.92857">
        <ele>120.40000152588</ele>
        <time>2014-01-12T11:17:55.000Z</time>
      </trkpt>
      <trkpt lat="43.49507" lon="6.9284">
        <ele>122.19999694824</ele>
        <time>2014-01-12T11:18:04.000Z</time>
      </trkpt>
      <trkpt lat="43.49502" lon="6.92825">
        <ele>122.19999694824</ele>
        <time>2014-01-12T11:18:09.000Z</time>
      </trkpt>
      <trkpt lat="43.49497" lon="6.928">
        <ele>121.59999847412</ele>
        <time>2014-01-12T11:18:17.000Z</time>
      </trkpt>
      <trkpt lat="43.49489" lon="6.92785">
        <ele>120.19999694824</ele>
        <time>2014-01-12T11:18:24.000Z</time>
      </trkpt>
      <trkpt lat="43.49487" lon="6.92782">
        <ele>119.59999847412</ele>
        <time>2014-01-12T11:18:27.000Z</time>
      </trkpt>
      <trkpt lat="43.49486" lon="6.92783">
        <ele>119.59999847412</ele>
        <time>2014-01-12T11:18:29.000Z</time>
      </trkpt>
      <trkpt lat="43.49484" lon="6.92787">
        <ele>119.59999847412</ele>
        <time>2014-01-12T11:18:32.000Z</time>
      </trkpt>
      <trkpt lat="43.49481" lon="6.92793">
        <ele>119.80000305176</ele>
        <time>2014-01-12T11:18:36.000Z</time>
      </trkpt>
      <trkpt lat="43.49476" lon="6.92804">
        <ele>120.19999694824</ele>
        <time>2014-01-12T11:18:42.000Z</time>
      </trkpt>
      <trkpt lat="43.49467" lon="6.9282">
        <ele>121</ele>
        <time>2014-01-12T11:18:50.000Z</time>
      </trkpt>
      <trkpt lat="43.49455" lon="6.92839">
        <ele>122.80000305176</ele>
        <time>2014-01-12T11:18:59.000Z</time>
      </trkpt>
      <trkpt lat="43.49445" lon="6.92842">
        <ele>123</ele>
        <time>2014-01-12T11:19:04.000Z</time>
      </trkpt>
      <trkpt lat="43.49431" lon="6.9284">
        <ele>122.40000152588</ele>
        <time>2014-01-12T11:19:12.000Z</time>
      </trkpt>
      <trkpt lat="43.49416" lon="6.9285">
        <ele>123.40000152588</ele>
        <time>2014-01-12T11:19:20.000Z</time>
      </trkpt>
      <trkpt lat="43.49406" lon="6.92867">
        <ele>122.59999847412</ele>
        <time>2014-01-12T11:19:28.000Z</time>
      </trkpt>
      <trkpt lat="43.49403" lon="6.92887">
        <ele>124.59999847412</ele>
        <time>2014-01-12T11:19:35.000Z</time>
      </trkpt>
      <trkpt lat="43.49407" lon="6.92909">
        <ele>129.60000610352</ele>
        <time>2014-01-12T11:19:42.000Z</time>
      </trkpt>
      <trkpt lat="43.49412" lon="6.92938">
        <ele>135.19999694824</ele>
        <time>2014-01-12T11:19:51.000Z</time>
      </trkpt>
      <trkpt lat="43.49409" lon="6.92954">
        <ele>136.19999694824</ele>
        <time>2014-01-12T11:19:56.000Z</time>
      </trkpt>
      <trkpt lat="43.49402" lon="6.92978">
        <ele>137</ele>
        <time>2014-01-12T11:20:04.000Z</time>
      </trkpt>
      <trkpt lat="43.49404" lon="6.93">
        <ele>140.60000610352</ele>
        <time>2014-01-12T11:20:11.000Z</time>
      </trkpt>
      <trkpt lat="43.49404" lon="6.93012">
        <ele>142.39999389648</ele>
        <time>2014-01-12T11:20:16.000Z</time>
      </trkpt>
      <trkpt lat="43.49402" lon="6.93027">
        <ele>144</ele>
        <time>2014-01-12T11:20:21.000Z</time>
      </trkpt>
      <trkpt lat="43.49395" lon="6.93051">
        <ele>145.39999389648</ele>
        <time>2014-01-12T11:20:28.000Z</time>
      </trkpt>
      <trkpt lat="43.49387" lon="6.93072">
        <ele>146.39999389648</ele>
        <time>2014-01-12T11:20:36.000Z</time>
      </trkpt>
      <trkpt lat="43.49379" lon="6.93089">
        <ele>146.19999694824</ele>
        <time>2014-01-12T11:20:42.000Z</time>
      </trkpt>
      <trkpt lat="43.49369" lon="6.9311">
        <ele>146.39999389648</ele>
        <time>2014-01-12T11:20:49.000Z</time>
      </trkpt>
      <trkpt lat="43.49358" lon="6.93139">
        <ele>148</ele>
        <time>2014-01-12T11:20:58.000Z</time>
      </trkpt>
      <trkpt lat="43.49356" lon="6.93161">
        <ele>150.80000305176</ele>
        <time>2014-01-12T11:21:04.000Z</time>
      </trkpt>
      <trkpt lat="43.49364" lon="6.93189">
        <ele>155.60000610352</ele>
        <time>2014-01-12T11:21:13.000Z</time>
      </trkpt>
      <trkpt lat="43.4937" lon="6.93197">
        <ele>157.19999694824</ele>
        <time>2014-01-12T11:21:17.000Z</time>
      </trkpt>
      <trkpt lat="43.49371" lon="6.93195">
        <ele>157.39999389648</ele>
        <time>2014-01-12T11:21:18.000Z</time>
      </trkpt>
      <trkpt lat="43.4937" lon="6.93184">
        <ele>156</ele>
        <time>2014-01-12T11:21:22.000Z</time>
      </trkpt>
      <trkpt lat="43.49369" lon="6.93166">
        <ele>154.19999694824</ele>
        <time>2014-01-12T11:21:28.000Z</time>
      </trkpt>
      <trkpt lat="43.49374" lon="6.93149">
        <ele>153</ele>
        <time>2014-01-12T11:21:33.000Z</time>
      </trkpt>
      <trkpt lat="43.49387" lon="6.93133">
        <ele>154</ele>
        <time>2014-01-12T11:21:39.000Z</time>
      </trkpt>
      <trkpt lat="43.49404" lon="6.93123">
        <ele>157</ele>
        <time>2014-01-12T11:21:46.000Z</time>
      </trkpt>
      <trkpt lat="43.49418" lon="6.93115">
        <ele>159.39999389648</ele>
        <time>2014-01-12T11:21:52.000Z</time>
      </trkpt>
      <trkpt lat="43.49432" lon="6.9311">
        <ele>156.80000305176</ele>
        <time>2014-01-12T11:21:59.000Z</time>
      </trkpt>
      <trkpt lat="43.49434" lon="6.93111">
        <ele>156.60000610352</ele>
        <time>2014-01-12T11:22:00.000Z</time>
      </trkpt>
      <trkpt lat="43.49438" lon="6.93118">
        <ele>156.19999694824</ele>
        <time>2014-01-12T11:22:03.000Z</time>
      </trkpt>
      <trkpt lat="43.49442" lon="6.93136">
        <ele>156.39999389648</ele>
        <time>2014-01-12T11:22:08.000Z</time>
      </trkpt>
      <trkpt lat="43.49439" lon="6.93167">
        <ele>158.60000610352</ele>
        <time>2014-01-12T11:22:14.000Z</time>
      </trkpt>
      <trkpt lat="43.49428" lon="6.93191">
        <ele>161</ele>
        <time>2014-01-12T11:22:19.000Z</time>
      </trkpt>
      <trkpt lat="43.49411" lon="6.93219">
        <ele>163.39999389648</ele>
        <time>2014-01-12T11:22:25.000Z</time>
      </trkpt>
      <trkpt lat="43.49404" lon="6.93238">
        <ele>163.19999694824</ele>
        <time>2014-01-12T11:22:30.000Z</time>
      </trkpt>
      <trkpt lat="43.494" lon="6.93261">
        <ele>163.80000305176</ele>
        <time>2014-01-12T11:22:37.000Z</time>
      </trkpt>
      <trkpt lat="43.49399" lon="6.93283">
        <ele>164.39999389648</ele>
        <time>2014-01-12T11:22:44.000Z</time>
      </trkpt>
      <trkpt lat="43.494" lon="6.9331">
        <ele>165.19999694824</ele>
        <time>2014-01-12T11:22:52.000Z</time>
      </trkpt>
      <trkpt lat="43.49396" lon="6.93323">
        <ele>166.19999694824</ele>
        <time>2014-01-12T11:22:57.000Z</time>
      </trkpt>
      <trkpt lat="43.49388" lon="6.93317">
        <ele>166.60000610352</ele>
        <time>2014-01-12T11:23:01.000Z</time>
      </trkpt>
      <trkpt lat="43.49385" lon="6.93313">
        <ele>166.60000610352</ele>
        <time>2014-01-12T11:23:03.000Z</time>
      </trkpt>
      <trkpt lat="43.49375" lon="6.93305">
        <ele>166.80000305176</ele>
        <time>2014-01-12T11:23:08.000Z</time>
      </trkpt>
      <trkpt lat="43.4936" lon="6.93306">
        <ele>168</ele>
        <time>2014-01-12T11:23:14.000Z</time>
      </trkpt>
      <trkpt lat="43.49345" lon="6.93314">
        <ele>170</ele>
        <time>2014-01-12T11:23:21.000Z</time>
      </trkpt>
      <trkpt lat="43.49339" lon="6.93331">
        <ele>173</ele>
        <time>2014-01-12T11:23:27.000Z</time>
      </trkpt>
      <trkpt lat="43.49342" lon="6.93346">
        <ele>173.80000305176</ele>
        <time>2014-01-12T11:23:32.000Z</time>
      </trkpt>
      <trkpt lat="43.49352" lon="6.93358">
        <ele>173.39999389648</ele>
        <time>2014-01-12T11:23:38.000Z</time>
      </trkpt>
      <trkpt lat="43.49352" lon="6.93363">
        <ele>173.60000610352</ele>
        <time>2014-01-12T11:23:40.000Z</time>
      </trkpt>
      <trkpt lat="43.49351" lon="6.93369">
        <ele>174.19999694824</ele>
        <time>2014-01-12T11:23:42.000Z</time>
      </trkpt>
      <trkpt lat="43.4935" lon="6.93375">
        <ele>174.60000610352</ele>
        <time>2014-01-12T11:23:45.000Z</time>
      </trkpt>
      <trkpt lat="43.49349" lon="6.93381">
        <ele>175</ele>
        <time>2014-01-12T11:23:48.000Z</time>
      </trkpt>
      <trkpt lat="43.49345" lon="6.93398">
        <ele>177</ele>
        <time>2014-01-12T11:23:54.000Z</time>
      </trkpt>
      <trkpt lat="43.49342" lon="6.93427">
        <ele>178.39999389648</ele>
        <time>2014-01-12T11:24:00.000Z</time>
      </trkpt>
      <trkpt lat="43.4934" lon="6.93445">
        <ele>178.19999694824</ele>
        <time>2014-01-12T11:24:06.000Z</time>
      </trkpt>
      <trkpt lat="43.49334" lon="6.93469">
        <ele>178.60000610352</ele>
        <time>2014-01-12T11:24:14.000Z</time>
      </trkpt>
      <trkpt lat="43.49332" lon="6.93499">
        <ele>177.60000610352</ele>
        <time>2014-01-12T11:24:18.000Z</time>
      </trkpt>
      <trkpt lat="43.4934" lon="6.93528">
        <ele>175.39999389648</ele>
        <time>2014-01-12T11:24:21.000Z</time>
      </trkpt>
      <trkpt lat="43.49345" lon="6.93552">
        <ele>173</ele>
        <time>2014-01-12T11:24:23.000Z</time>
      </trkpt>
      <trkpt lat="43.49346" lon="6.93578">
        <ele>171</ele>
        <time>2014-01-12T11:24:25.000Z</time>
      </trkpt>
      <trkpt lat="43.49337" lon="6.9361">
        <ele>173.60000610352</ele>
        <time>2014-01-12T11:24:28.000Z</time>
      </trkpt>
      <trkpt lat="43.49328" lon="6.9364">
        <ele>174</ele>
        <time>2014-01-12T11:24:32.000Z</time>
      </trkpt>
      <trkpt lat="43.49322" lon="6.93665">
        <ele>173.60000610352</ele>
        <time>2014-01-12T11:24:37.000Z</time>
      </trkpt>
      <trkpt lat="43.49322" lon="6.93669">
        <ele>173.60000610352</ele>
        <time>2014-01-12T11:24:38.000Z</time>
      </trkpt>
      <trkpt lat="43.49318" lon="6.93689">
        <ele>173</ele>
        <time>2014-01-12T11:24:43.000Z</time>
      </trkpt>
      <trkpt lat="43.49311" lon="6.93715">
        <ele>172</ele>
        <time>2014-01-12T11:24:51.000Z</time>
      </trkpt>
      <trkpt lat="43.49307" lon="6.93738">
        <ele>171.60000610352</ele>
        <time>2014-01-12T11:24:58.000Z</time>
      </trkpt>
      <trkpt lat="43.49307" lon="6.93773">
        <ele>172.19999694824</ele>
        <time>2014-01-12T11:25:06.000Z</time>
      </trkpt>
      <trkpt lat="43.49303" lon="6.9381">
        <ele>172.39999389648</ele>
        <time>2014-01-12T11:25:13.000Z</time>
      </trkpt>
      <trkpt lat="43.49299" lon="6.93857">
        <ele>173</ele>
        <time>2014-01-12T11:25:22.000Z</time>
      </trkpt>
      <trkpt lat="43.49307" lon="6.93891">
        <ele>174.39999389648</ele>
        <time>2014-01-12T11:25:29.000Z</time>
      </trkpt>
      <trkpt lat="43.49317" lon="6.93935">
        <ele>175.39999389648</ele>
        <time>2014-01-12T11:25:37.000Z</time>
      </trkpt>
      <trkpt lat="43.49323" lon="6.93972">
        <ele>175.80000305176</ele>
        <time>2014-01-12T11:25:42.000Z</time>
      </trkpt>
      <trkpt lat="43.49328" lon="6.94">
        <ele>175.39999389648</ele>
        <time>2014-01-12T11:25:45.000Z</time>
      </trkpt>
      <trkpt lat="43.49331" lon="6.94019">
        <ele>174.80000305176</ele>
        <time>2014-01-12T11:25:47.000Z</time>
      </trkpt>
      <trkpt lat="43.49334" lon="6.94082">
        <ele>173</ele>
        <time>2014-01-12T11:25:53.000Z</time>
      </trkpt>
      <trkpt lat="43.4934" lon="6.94147">
        <ele>168.19999694824</ele>
        <time>2014-01-12T11:25:59.000Z</time>
      </trkpt>
      <trkpt lat="43.49344" lon="6.94206">
        <ele>162.19999694824</ele>
        <time>2014-01-12T11:26:04.000Z</time>
      </trkpt>
      <trkpt lat="43.49346" lon="6.94243">
        <ele>158.39999389648</ele>
        <time>2014-01-12T11:26:08.000Z</time>
      </trkpt>
      <trkpt lat="43.49348" lon="6.94249">
        <ele>157.80000305176</ele>
        <time>2014-01-12T11:26:09.000Z</time>
      </trkpt>
      <trkpt lat="43.49358" lon="6.94252">
        <ele>157</ele>
        <time>2014-01-12T11:26:11.000Z</time>
      </trkpt>
      <trkpt lat="43.49372" lon="6.9425">
        <ele>157</ele>
        <time>2014-01-12T11:26:13.000Z</time>
      </trkpt>
      <trkpt lat="43.49379" lon="6.94249">
        <ele>157</ele>
        <time>2014-01-12T11:26:14.000Z</time>
      </trkpt>
      <trkpt lat="43.49414" lon="6.94249">
        <ele>156</ele>
        <time>2014-01-12T11:26:19.000Z</time>
      </trkpt>
      <trkpt lat="43.4942" lon="6.94248">
        <ele>156</ele>
        <time>2014-01-12T11:26:20.000Z</time>
      </trkpt>
      <trkpt lat="43.49426" lon="6.94248">
        <ele>156</ele>
        <time>2014-01-12T11:26:21.000Z</time>
      </trkpt>
      <trkpt lat="43.49439" lon="6.94248">
        <ele>156</ele>
        <time>2014-01-12T11:26:24.000Z</time>
      </trkpt>
      <trkpt lat="43.49441" lon="6.94248">
        <ele>156</ele>
        <time>2014-01-12T11:26:25.000Z</time>
      </trkpt>
      <trkpt lat="43.49451" lon="6.94246">
        <ele>156</ele>
        <time>2014-01-12T11:26:29.000Z</time>
      </trkpt>
      <trkpt lat="43.49473" lon="6.94244">
        <ele>156</ele>
        <time>2014-01-12T11:26:38.000Z</time>
      </trkpt>
      <trkpt lat="43.49493" lon="6.94245">
        <ele>156.19999694824</ele>
        <time>2014-01-12T11:26:45.000Z</time>
      </trkpt>
      <trkpt lat="43.49513" lon="6.94243">
        <ele>156.60000610352</ele>
        <time>2014-01-12T11:26:51.000Z</time>
      </trkpt>
      <trkpt lat="43.49537" lon="6.94239">
        <ele>157.39999389648</ele>
        <time>2014-01-12T11:26:57.000Z</time>
      </trkpt>
      <trkpt lat="43.49543" lon="6.94243">
        <ele>158</ele>
        <time>2014-01-12T11:26:59.000Z</time>
      </trkpt>
      <trkpt lat="43.49545" lon="6.94251">
        <ele>159</ele>
        <time>2014-01-12T11:27:01.000Z</time>
      </trkpt>
      <trkpt lat="43.49556" lon="6.94264">
        <ele>158.60000610352</ele>
        <time>2014-01-12T11:27:05.000Z</time>
      </trkpt>
      <trkpt lat="43.49564" lon="6.94259">
        <ele>159.39999389648</ele>
        <time>2014-01-12T11:27:08.000Z</time>
      </trkpt>
      <trkpt lat="43.4957" lon="6.94251">
        <ele>160.39999389648</ele>
        <time>2014-01-12T11:27:11.000Z</time>
      </trkpt>
      <trkpt lat="43.49573" lon="6.94247">
        <ele>160</ele>
        <time>2014-01-12T11:27:13.000Z</time>
      </trkpt>
      <trkpt lat="43.49587" lon="6.94242">
        <ele>160.60000610352</ele>
        <time>2014-01-12T11:27:19.000Z</time>
      </trkpt>
      <trkpt lat="43.496" lon="6.94237">
        <ele>162.19999694824</ele>
        <time>2014-01-12T11:27:25.000Z</time>
      </trkpt>
      <trkpt lat="43.4962" lon="6.94227">
        <ele>164.80000305176</ele>
        <time>2014-01-12T11:27:33.000Z</time>
      </trkpt>
      <trkpt lat="43.49634" lon="6.94217">
        <ele>166.19999694824</ele>
        <time>2014-01-12T11:27:39.000Z</time>
      </trkpt>
      <trkpt lat="43.49655" lon="6.94199">
        <ele>168.60000610352</ele>
        <time>2014-01-12T11:27:48.000Z</time>
      </trkpt>
      <trkpt lat="43.49669" lon="6.94188">
        <ele>170.39999389648</ele>
        <time>2014-01-12T11:27:55.000Z</time>
      </trkpt>
      <trkpt lat="43.49686" lon="6.94169">
        <ele>171.19999694824</ele>
        <time>2014-01-12T11:28:04.000Z</time>
      </trkpt>
      <trkpt lat="43.49698" lon="6.94161">
        <ele>171.80000305176</ele>
        <time>2014-01-12T11:28:11.000Z</time>
      </trkpt>
      <trkpt lat="43.49714" lon="6.9416">
        <ele>174</ele>
        <time>2014-01-12T11:28:19.000Z</time>
      </trkpt>
      <trkpt lat="43.49722" lon="6.94162">
        <ele>175.60000610352</ele>
        <time>2014-01-12T11:28:24.000Z</time>
      </trkpt>
      <trkpt lat="43.49724" lon="6.94162">
        <ele>175.80000305176</ele>
        <time>2014-01-12T11:28:25.000Z</time>
      </trkpt>
      <trkpt lat="43.49729" lon="6.94161">
        <ele>176.39999389648</ele>
        <time>2014-01-12T11:28:29.000Z</time>
      </trkpt>
      <trkpt lat="43.49729" lon="6.94159">
        <ele>175.80000305176</ele>
        <time>2014-01-12T11:28:31.000Z</time>
      </trkpt>
      <trkpt lat="43.49728" lon="6.94159">
        <ele>175.80000305176</ele>
        <time>2014-01-12T11:28:36.000Z</time>
      </trkpt>
      <trkpt lat="43.49725" lon="6.94157">
        <ele>175</ele>
        <time>2014-01-12T11:37:52.000Z</time>
      </trkpt>
      <trkpt lat="43.49719" lon="6.94148">
        <ele>172</ele>
        <time>2014-01-12T11:37:56.000Z</time>
      </trkpt>
      <trkpt lat="43.4972" lon="6.94147">
        <ele>171.80000305176</ele>
        <time>2014-01-12T11:37:57.000Z</time>
      </trkpt>
      <trkpt lat="43.4972" lon="6.9414">
        <ele>170.19999694824</ele>
        <time>2014-01-12T11:38:01.000Z</time>
      </trkpt>
      <trkpt lat="43.49717" lon="6.94138">
        <ele>169.39999389648</ele>
        <time>2014-01-12T11:38:02.000Z</time>
      </trkpt>
      <trkpt lat="43.49708" lon="6.94131">
        <ele>167</ele>
        <time>2014-01-12T11:38:05.000Z</time>
      </trkpt>
      <trkpt lat="43.49701" lon="6.94117">
        <ele>163.60000610352</ele>
        <time>2014-01-12T11:38:10.000Z</time>
      </trkpt>
      <trkpt lat="43.49692" lon="6.94107">
        <ele>161</ele>
        <time>2014-01-12T11:38:14.000Z</time>
      </trkpt>
      <trkpt lat="43.4968" lon="6.94098">
        <ele>158.80000305176</ele>
        <time>2014-01-12T11:38:18.000Z</time>
      </trkpt>
      <trkpt lat="43.49672" lon="6.94082">
        <ele>156</ele>
        <time>2014-01-12T11:38:22.000Z</time>
      </trkpt>
      <trkpt lat="43.49671" lon="6.94077">
        <ele>155.39999389648</ele>
        <time>2014-01-12T11:38:23.000Z</time>
      </trkpt>
      <trkpt lat="43.49668" lon="6.94069">
        <ele>154.60000610352</ele>
        <time>2014-01-12T11:38:25.000Z</time>
      </trkpt>
      <trkpt lat="43.49668" lon="6.94059">
        <ele>153.60000610352</ele>
        <time>2014-01-12T11:38:27.000Z</time>
      </trkpt>
      <trkpt lat="43.49673" lon="6.94046">
        <ele>152</ele>
        <time>2014-01-12T11:38:30.000Z</time>
      </trkpt>
      <trkpt lat="43.49668" lon="6.94037">
        <ele>151.39999389648</ele>
        <time>2014-01-12T11:38:32.000Z</time>
      </trkpt>
      <trkpt lat="43.49668" lon="6.94032">
        <ele>151</ele>
        <time>2014-01-12T11:38:33.000Z</time>
      </trkpt>
      <trkpt lat="43.49674" lon="6.94023">
        <ele>149.39999389648</ele>
        <time>2014-01-12T11:38:36.000Z</time>
      </trkpt>
      <trkpt lat="43.49675" lon="6.9401">
        <ele>147.80000305176</ele>
        <time>2014-01-12T11:38:39.000Z</time>
      </trkpt>
      <trkpt lat="43.49673" lon="6.93991">
        <ele>145.80000305176</ele>
        <time>2014-01-12T11:38:44.000Z</time>
      </trkpt>
      <trkpt lat="43.49675" lon="6.93978">
        <ele>143.80000305176</ele>
        <time>2014-01-12T11:38:47.000Z</time>
      </trkpt>
      <trkpt lat="43.49674" lon="6.93974">
        <ele>143.39999389648</ele>
        <time>2014-01-12T11:38:48.000Z</time>
      </trkpt>
      <trkpt lat="43.49672" lon="6.93959">
        <ele>141.80000305176</ele>
        <time>2014-01-12T11:38:52.000Z</time>
      </trkpt>
      <trkpt lat="43.49664" lon="6.9395">
        <ele>140.80000305176</ele>
        <time>2014-01-12T11:38:57.000Z</time>
      </trkpt>
      <trkpt lat="43.49663" lon="6.93946">
        <ele>139.80000305176</ele>
        <time>2014-01-12T11:38:59.000Z</time>
      </trkpt>
      <trkpt lat="43.49662" lon="6.93944">
        <ele>139.39999389648</ele>
        <time>2014-01-12T11:39:00.000Z</time>
      </trkpt>
      <trkpt lat="43.49661" lon="6.93944">
        <ele>139.19999694824</ele>
        <time>2014-01-12T11:39:01.000Z</time>
      </trkpt>
      <trkpt lat="43.49654" lon="6.93943">
        <ele>137.39999389648</ele>
        <time>2014-01-12T11:39:05.000Z</time>
      </trkpt>
      <trkpt lat="43.49643" lon="6.9393">
        <ele>133.39999389648</ele>
        <time>2014-01-12T11:39:10.000Z</time>
      </trkpt>
      <trkpt lat="43.49641" lon="6.93915">
        <ele>131</ele>
        <time>2014-01-12T11:39:14.000Z</time>
      </trkpt>
      <trkpt lat="43.49641" lon="6.93914">
        <ele>130.60000610352</ele>
        <time>2014-01-12T11:39:15.000Z</time>
      </trkpt>
      <trkpt lat="43.49641" lon="6.93914">
        <ele>130.60000610352</ele>
        <time>2014-01-12T11:39:18.000Z</time>
      </trkpt>
      <trkpt lat="43.49641" lon="6.93906">
        <ele>129.19999694824</ele>
        <time>2014-01-12T11:39:49.000Z</time>
      </trkpt>
      <trkpt lat="43.49655" lon="6.93885">
        <ele>128.39999389648</ele>
        <time>2014-01-12T11:39:54.000Z</time>
      </trkpt>
      <trkpt lat="43.49662" lon="6.9387">
        <ele>127.59999847412</ele>
        <time>2014-01-12T11:39:57.000Z</time>
      </trkpt>
      <trkpt lat="43.49663" lon="6.93867">
        <ele>127.19999694824</ele>
        <time>2014-01-12T11:39:58.000Z</time>
      </trkpt>
      <trkpt lat="43.49667" lon="6.93848">
        <ele>124.59999847412</ele>
        <time>2014-01-12T11:40:02.000Z</time>
      </trkpt>
      <trkpt lat="43.49672" lon="6.93834">
        <ele>121.80000305176</ele>
        <time>2014-01-12T11:40:05.000Z</time>
      </trkpt>
      <trkpt lat="43.49681" lon="6.93812">
        <ele>116</ele>
        <time>2014-01-12T11:40:09.000Z</time>
      </trkpt>
      <trkpt lat="43.49689" lon="6.93802">
        <ele>113.19999694824</ele>
        <time>2014-01-12T11:40:12.000Z</time>
      </trkpt>
      <trkpt lat="43.49691" lon="6.93797">
        <ele>112</ele>
        <time>2014-01-12T11:40:13.000Z</time>
      </trkpt>
      <trkpt lat="43.49696" lon="6.93788">
        <ele>109.80000305176</ele>
        <time>2014-01-12T11:40:15.000Z</time>
      </trkpt>
      <trkpt lat="43.49701" lon="6.9378">
        <ele>107.80000305176</ele>
        <time>2014-01-12T11:40:17.000Z</time>
      </trkpt>
      <trkpt lat="43.49704" lon="6.93776">
        <ele>106.80000305176</ele>
        <time>2014-01-12T11:40:18.000Z</time>
      </trkpt>
      <trkpt lat="43.49714" lon="6.93765">
        <ele>104.19999694824</ele>
        <time>2014-01-12T11:40:22.000Z</time>
      </trkpt>
      <trkpt lat="43.49715" lon="6.93761">
        <ele>103.40000152588</ele>
        <time>2014-01-12T11:40:24.000Z</time>
      </trkpt>
      <trkpt lat="43.49716" lon="6.93756">
        <ele>102.40000152588</ele>
        <time>2014-01-12T11:40:26.000Z</time>
      </trkpt>
      <trkpt lat="43.49718" lon="6.93754">
        <ele>101.80000305176</ele>
        <time>2014-01-12T11:40:30.000Z</time>
      </trkpt>
      <trkpt lat="43.49725" lon="6.93753">
        <ele>101.59999847412</ele>
        <time>2014-01-12T11:40:47.000Z</time>
      </trkpt>
      <trkpt lat="43.49737" lon="6.93751">
        <ele>101.19999694824</ele>
        <time>2014-01-12T11:40:51.000Z</time>
      </trkpt>
      <trkpt lat="43.49753" lon="6.93753">
        <ele>100.59999847412</ele>
        <time>2014-01-12T11:40:56.000Z</time>
      </trkpt>
      <trkpt lat="43.49763" lon="6.93756">
        <ele>97.800003051758</ele>
        <time>2014-01-12T11:41:00.000Z</time>
      </trkpt>
      <trkpt lat="43.49768" lon="6.93755">
        <ele>96</ele>
        <time>2014-01-12T11:41:03.000Z</time>
      </trkpt>
      <trkpt lat="43.49769" lon="6.93753">
        <ele>95.400001525879</ele>
        <time>2014-01-12T11:41:04.000Z</time>
      </trkpt>
      <trkpt lat="43.49776" lon="6.93741">
        <ele>90.199996948242</ele>
        <time>2014-01-12T11:41:08.000Z</time>
      </trkpt>
      <trkpt lat="43.49781" lon="6.93735">
        <ele>86.800003051758</ele>
        <time>2014-01-12T11:41:13.000Z</time>
      </trkpt>
      <trkpt lat="43.49781" lon="6.93733">
        <ele>86.599998474121</ele>
        <time>2014-01-12T11:41:27.000Z</time>
      </trkpt>
      <trkpt lat="43.49782" lon="6.93733">
        <ele>85.800003051758</ele>
        <time>2014-01-12T11:42:29.000Z</time>
      </trkpt>
      <trkpt lat="43.49783" lon="6.93728">
        <ele>84.599998474121</ele>
        <time>2014-01-12T11:42:31.000Z</time>
      </trkpt>
      <trkpt lat="43.49784" lon="6.93719">
        <ele>82.400001525879</ele>
        <time>2014-01-12T11:42:34.000Z</time>
      </trkpt>
      <trkpt lat="43.49782" lon="6.93713">
        <ele>81.199996948242</ele>
        <time>2014-01-12T11:42:36.000Z</time>
      </trkpt>
      <trkpt lat="43.49783" lon="6.9371">
        <ele>80.400001525879</ele>
        <time>2014-01-12T11:42:37.000Z</time>
      </trkpt>
      <trkpt lat="43.49786" lon="6.93706">
        <ele>78.599998474121</ele>
        <time>2014-01-12T11:42:39.000Z</time>
      </trkpt>
      <trkpt lat="43.49786" lon="6.93701">
        <ele>77.199996948242</ele>
        <time>2014-01-12T11:42:42.000Z</time>
      </trkpt>
      <trkpt lat="43.49785" lon="6.93695">
        <ele>76</ele>
        <time>2014-01-12T11:42:46.000Z</time>
      </trkpt>
      <trkpt lat="43.49793" lon="6.93692">
        <ele>73</ele>
        <time>2014-01-12T11:42:50.000Z</time>
      </trkpt>
      <trkpt lat="43.49795" lon="6.93685">
        <ele>70.800003051758</ele>
        <time>2014-01-12T11:42:53.000Z</time>
      </trkpt>
      <trkpt lat="43.49795" lon="6.93682">
        <ele>70</ele>
        <time>2014-01-12T11:42:54.000Z</time>
      </trkpt>
      <trkpt lat="43.49792" lon="6.93673">
        <ele>68.800003051758</ele>
        <time>2014-01-12T11:42:57.000Z</time>
      </trkpt>
      <trkpt lat="43.49787" lon="6.93669">
        <ele>69.400001525879</ele>
        <time>2014-01-12T11:42:59.000Z</time>
      </trkpt>
      <trkpt lat="43.49783" lon="6.93667">
        <ele>69.800003051758</ele>
        <time>2014-01-12T11:43:01.000Z</time>
      </trkpt>
      <trkpt lat="43.49779" lon="6.93665">
        <ele>70.599998474121</ele>
        <time>2014-01-12T11:43:03.000Z</time>
      </trkpt>
      <trkpt lat="43.49772" lon="6.9366">
        <ele>71.599998474121</ele>
        <time>2014-01-12T11:43:06.000Z</time>
      </trkpt>
      <trkpt lat="43.49769" lon="6.93644">
        <ele>69</ele>
        <time>2014-01-12T11:43:10.000Z</time>
      </trkpt>
      <trkpt lat="43.49767" lon="6.93633">
        <ele>67.199996948242</ele>
        <time>2014-01-12T11:43:14.000Z</time>
      </trkpt>
      <trkpt lat="43.49771" lon="6.93624">
        <ele>64.400001525879</ele>
        <time>2014-01-12T11:43:18.000Z</time>
      </trkpt>
      <trkpt lat="43.49783" lon="6.93626">
        <ele>62.400001525879</ele>
        <time>2014-01-12T11:43:22.000Z</time>
      </trkpt>
      <trkpt lat="43.49788" lon="6.93626">
        <ele>61.400001525879</ele>
        <time>2014-01-12T11:43:23.000Z</time>
      </trkpt>
      <trkpt lat="43.49793" lon="6.93625">
        <ele>60</ele>
        <time>2014-01-12T11:43:25.000Z</time>
      </trkpt>
      <trkpt lat="43.49794" lon="6.93624">
        <ele>59.400001525879</ele>
        <time>2014-01-12T11:43:26.000Z</time>
      </trkpt>
      <trkpt lat="43.49804" lon="6.93611">
        <ele>55.599998474121</ele>
        <time>2014-01-12T11:43:33.000Z</time>
      </trkpt>
      <trkpt lat="43.49805" lon="6.93606">
        <ele>54.599998474121</ele>
        <time>2014-01-12T11:43:35.000Z</time>
      </trkpt>
      <trkpt lat="43.49809" lon="6.93599">
        <ele>52.799999237061</ele>
        <time>2014-01-12T11:43:38.000Z</time>
      </trkpt>
      <trkpt lat="43.49809" lon="6.93591">
        <ele>51.599998474121</ele>
        <time>2014-01-12T11:43:42.000Z</time>
      </trkpt>
      <trkpt lat="43.4981" lon="6.93588">
        <ele>51.200000762939</ele>
        <time>2014-01-12T11:43:43.000Z</time>
      </trkpt>
      <trkpt lat="43.4981" lon="6.93586">
        <ele>50.599998474121</ele>
        <time>2014-01-12T11:43:44.000Z</time>
      </trkpt>
      <trkpt lat="43.49812" lon="6.93585">
        <ele>50.400001525879</ele>
        <time>2014-01-12T11:43:45.000Z</time>
      </trkpt>
      <trkpt lat="43.49814" lon="6.93586">
        <ele>50.200000762939</ele>
        <time>2014-01-12T11:43:48.000Z</time>
      </trkpt>
      <trkpt lat="43.49817" lon="6.93592">
        <ele>50.400001525879</ele>
        <time>2014-01-12T11:43:51.000Z</time>
      </trkpt>
      <trkpt lat="43.4983" lon="6.93611">
        <ele>50.599998474121</ele>
        <time>2014-01-12T11:43:57.000Z</time>
      </trkpt>
      <trkpt lat="43.49847" lon="6.93625">
        <ele>50.799999237061</ele>
        <time>2014-01-12T11:44:01.000Z</time>
      </trkpt>
      <trkpt lat="43.49857" lon="6.93633">
        <ele>50.799999237061</ele>
        <time>2014-01-12T11:44:03.000Z</time>
      </trkpt>
      <trkpt lat="43.49862" lon="6.93633">
        <ele>50.599998474121</ele>
        <time>2014-01-12T11:44:04.000Z</time>
      </trkpt>
      <trkpt lat="43.49882" lon="6.93631">
        <ele>49.400001525879</ele>
        <time>2014-01-12T11:44:08.000Z</time>
      </trkpt>
      <trkpt lat="43.49885" lon="6.93631">
        <ele>49.200000762939</ele>
        <time>2014-01-12T11:44:09.000Z</time>
      </trkpt>
      <trkpt lat="43.49891" lon="6.93632">
        <ele>48.799999237061</ele>
        <time>2014-01-12T11:44:11.000Z</time>
      </trkpt>
      <trkpt lat="43.49903" lon="6.93634">
        <ele>48</ele>
        <time>2014-01-12T11:44:16.000Z</time>
      </trkpt>
      <trkpt lat="43.49922" lon="6.93633">
        <ele>47.200000762939</ele>
        <time>2014-01-12T11:44:20.000Z</time>
      </trkpt>
      <trkpt lat="43.49931" lon="6.9364">
        <ele>46.599998474121</ele>
        <time>2014-01-12T11:44:24.000Z</time>
      </trkpt>
      <trkpt lat="43.49945" lon="6.93653">
        <ele>45</ele>
        <time>2014-01-12T11:44:28.000Z</time>
      </trkpt>
      <trkpt lat="43.49964" lon="6.93665">
        <ele>42.200000762939</ele>
        <time>2014-01-12T11:44:32.000Z</time>
      </trkpt>
      <trkpt lat="43.49971" lon="6.93668">
        <ele>41.799999237061</ele>
        <time>2014-01-12T11:44:33.000Z</time>
      </trkpt>
      <trkpt lat="43.49983" lon="6.93675">
        <ele>42</ele>
        <time>2014-01-12T11:44:35.000Z</time>
      </trkpt>
      <trkpt lat="43.49989" lon="6.93678">
        <ele>42.200000762939</ele>
        <time>2014-01-12T11:44:36.000Z</time>
      </trkpt>
      <trkpt lat="43.5" lon="6.93684">
        <ele>42.400001525879</ele>
        <time>2014-01-12T11:44:38.000Z</time>
      </trkpt>
      <trkpt lat="43.50011" lon="6.93699">
        <ele>45.200000762939</ele>
        <time>2014-01-12T11:44:41.000Z</time>
      </trkpt>
      <trkpt lat="43.50013" lon="6.93701">
        <ele>45.599998474121</ele>
        <time>2014-01-12T11:44:42.000Z</time>
      </trkpt>
      <trkpt lat="43.50014" lon="6.93702">
        <ele>46</ele>
        <time>2014-01-12T11:44:43.000Z</time>
      </trkpt>
      <trkpt lat="43.50015" lon="6.93702">
        <ele>46</ele>
        <time>2014-01-12T11:44:44.000Z</time>
      </trkpt>
      <trkpt lat="43.50015" lon="6.93702">
        <ele>45.799999237061</ele>
        <time>2014-01-12T11:44:48.000Z</time>
      </trkpt>
      <trkpt lat="43.50026" lon="6.93701">
        <ele>45.799999237061</ele>
        <time>2014-01-12T11:48:29.000Z</time>
      </trkpt>
      <trkpt lat="43.50045" lon="6.937">
        <ele>45.799999237061</ele>
        <time>2014-01-12T11:48:34.000Z</time>
      </trkpt>
      <trkpt lat="43.50072" lon="6.93691">
        <ele>45.599998474121</ele>
        <time>2014-01-12T11:48:39.000Z</time>
      </trkpt>
      <trkpt lat="43.50087" lon="6.93692">
        <ele>46.200000762939</ele>
        <time>2014-01-12T11:48:42.000Z</time>
      </trkpt>
      <trkpt lat="43.50091" lon="6.93695">
        <ele>46.599998474121</ele>
        <time>2014-01-12T11:48:43.000Z</time>
      </trkpt>
      <trkpt lat="43.50111" lon="6.93703">
        <ele>48</ele>
        <time>2014-01-12T11:48:47.000Z</time>
      </trkpt>
      <trkpt lat="43.50117" lon="6.93704">
        <ele>48.400001525879</ele>
        <time>2014-01-12T11:48:48.000Z</time>
      </trkpt>
      <trkpt lat="43.50128" lon="6.93707">
        <ele>49</ele>
        <time>2014-01-12T11:48:50.000Z</time>
      </trkpt>
      <trkpt lat="43.50138" lon="6.9371">
        <ele>49.400001525879</ele>
        <time>2014-01-12T11:48:52.000Z</time>
      </trkpt>
      <trkpt lat="43.50156" lon="6.9371">
        <ele>50.400001525879</ele>
        <time>2014-01-12T11:48:57.000Z</time>
      </trkpt>
      <trkpt lat="43.50161" lon="6.9371">
        <ele>50.599998474121</ele>
        <time>2014-01-12T11:48:58.000Z</time>
      </trkpt>
      <trkpt lat="43.50173" lon="6.93709">
        <ele>50.799999237061</ele>
        <time>2014-01-12T11:49:01.000Z</time>
      </trkpt>
      <trkpt lat="43.5019" lon="6.93706">
        <ele>50.400001525879</ele>
        <time>2014-01-12T11:49:06.000Z</time>
      </trkpt>
      <trkpt lat="43.50205" lon="6.93709">
        <ele>49.599998474121</ele>
        <time>2014-01-12T11:49:11.000Z</time>
      </trkpt>
      <trkpt lat="43.50229" lon="6.93705">
        <ele>48.799999237061</ele>
        <time>2014-01-12T11:49:16.000Z</time>
      </trkpt>
      <trkpt lat="43.50249" lon="6.93702">
        <ele>48.200000762939</ele>
        <time>2014-01-12T11:49:21.000Z</time>
      </trkpt>
      <trkpt lat="43.50253" lon="6.93699">
        <ele>47.799999237061</ele>
        <time>2014-01-12T11:49:22.000Z</time>
      </trkpt>
      <trkpt lat="43.50255" lon="6.93696">
        <ele>47.599998474121</ele>
        <time>2014-01-12T11:49:23.000Z</time>
      </trkpt>
      <trkpt lat="43.50268" lon="6.93686">
        <ele>46.200000762939</ele>
        <time>2014-01-12T11:49:27.000Z</time>
      </trkpt>
      <trkpt lat="43.50283" lon="6.93685">
        <ele>44.400001525879</ele>
        <time>2014-01-12T11:49:32.000Z</time>
      </trkpt>
      <trkpt lat="43.50304" lon="6.93695">
        <ele>41.599998474121</ele>
        <time>2014-01-12T11:49:37.000Z</time>
      </trkpt>
      <trkpt lat="43.50313" lon="6.93704">
        <ele>40.400001525879</ele>
        <time>2014-01-12T11:49:40.000Z</time>
      </trkpt>
      <trkpt lat="43.50315" lon="6.93711">
        <ele>40.200000762939</ele>
        <time>2014-01-12T11:49:43.000Z</time>
      </trkpt>
      <trkpt lat="43.50316" lon="6.93712">
        <ele>40</ele>
        <time>2014-01-12T11:49:44.000Z</time>
      </trkpt>
      <trkpt lat="43.50328" lon="6.9372">
        <ele>38.599998474121</ele>
        <time>2014-01-12T11:49:48.000Z</time>
      </trkpt>
      <trkpt lat="43.50342" lon="6.93724">
        <ele>37.799999237061</ele>
        <time>2014-01-12T11:49:53.000Z</time>
      </trkpt>
      <trkpt lat="43.50346" lon="6.93721">
        <ele>37.799999237061</ele>
        <time>2014-01-12T11:49:55.000Z</time>
      </trkpt>
      <trkpt lat="43.50351" lon="6.9372">
        <ele>37.799999237061</ele>
        <time>2014-01-12T11:49:58.000Z</time>
      </trkpt>
      <trkpt lat="43.50356" lon="6.93724">
        <ele>37.400001525879</ele>
        <time>2014-01-12T11:50:01.000Z</time>
      </trkpt>
      <trkpt lat="43.50359" lon="6.93727">
        <ele>37</ele>
        <time>2014-01-12T11:50:03.000Z</time>
      </trkpt>
      <trkpt lat="43.50367" lon="6.9373">
        <ele>36.400001525879</ele>
        <time>2014-01-12T11:50:07.000Z</time>
      </trkpt>
      <trkpt lat="43.50374" lon="6.93733">
        <ele>35.799999237061</ele>
        <time>2014-01-12T11:50:10.000Z</time>
      </trkpt>
      <trkpt lat="43.50385" lon="6.9374">
        <ele>34</ele>
        <time>2014-01-12T11:50:17.000Z</time>
      </trkpt>
      <trkpt lat="43.50391" lon="6.93743">
        <ele>33</ele>
        <time>2014-01-12T11:50:22.000Z</time>
      </trkpt>
      <trkpt lat="43.50392" lon="6.93745">
        <ele>32.599998474121</ele>
        <time>2014-01-12T11:50:24.000Z</time>
      </trkpt>
      <trkpt lat="43.50394" lon="6.93747">
        <ele>31.799999237061</ele>
        <time>2014-01-12T11:50:27.000Z</time>
      </trkpt>
      <trkpt lat="43.50395" lon="6.93748">
        <ele>31.60000038147</ele>
        <time>2014-01-12T11:50:29.000Z</time>
      </trkpt>
      <trkpt lat="43.50394" lon="6.93744">
        <ele>32.400001525879</ele>
        <time>2014-01-12T11:53:55.000Z</time>
      </trkpt>
      <trkpt lat="43.50392" lon="6.93751">
        <ele>31.799999237061</ele>
        <time>2014-01-12T11:56:27.000Z</time>
      </trkpt>
      <trkpt lat="43.50399" lon="6.93753">
        <ele>31</ele>
        <time>2014-01-12T12:05:51.000Z</time>
      </trkpt>
      <trkpt lat="43.50407" lon="6.93764">
        <ele>30.200000762939</ele>
        <time>2014-01-12T12:05:57.000Z</time>
      </trkpt>
      <trkpt lat="43.50409" lon="6.93775">
        <ele>29.799999237061</ele>
        <time>2014-01-12T12:06:00.000Z</time>
      </trkpt>
      <trkpt lat="43.50409" lon="6.93783">
        <ele>29.799999237061</ele>
        <time>2014-01-12T12:06:01.000Z</time>
      </trkpt>
      <trkpt lat="43.50421" lon="6.93805">
        <ele>27.60000038147</ele>
        <time>2014-01-12T12:06:05.000Z</time>
      </trkpt>
      <trkpt lat="43.5044" lon="6.93835">
        <ele>25</ele>
        <time>2014-01-12T12:06:10.000Z</time>
      </trkpt>
      <trkpt lat="43.50444" lon="6.9384">
        <ele>25</ele>
        <time>2014-01-12T12:06:11.000Z</time>
      </trkpt>
      <trkpt lat="43.50464" lon="6.93849">
        <ele>23.39999961853</ele>
        <time>2014-01-12T12:06:14.000Z</time>
      </trkpt>
      <trkpt lat="43.50483" lon="6.93858">
        <ele>21</ele>
        <time>2014-01-12T12:06:17.000Z</time>
      </trkpt>
      <trkpt lat="43.50492" lon="6.93861">
        <ele>19.60000038147</ele>
        <time>2014-01-12T12:06:19.000Z</time>
      </trkpt>
      <trkpt lat="43.50496" lon="6.93866">
        <ele>19</ele>
        <time>2014-01-12T12:06:20.000Z</time>
      </trkpt>
      <trkpt lat="43.50519" lon="6.93884">
        <ele>17.60000038147</ele>
        <time>2014-01-12T12:06:24.000Z</time>
      </trkpt>
      <trkpt lat="43.50546" lon="6.93905">
        <ele>15.199999809265</ele>
        <time>2014-01-12T12:06:30.000Z</time>
      </trkpt>
      <trkpt lat="43.50554" lon="6.9391">
        <ele>14</ele>
        <time>2014-01-12T12:06:32.000Z</time>
      </trkpt>
      <trkpt lat="43.50569" lon="6.93928">
        <ele>12.39999961853</ele>
        <time>2014-01-12T12:06:36.000Z</time>
      </trkpt>
      <trkpt lat="43.50591" lon="6.93959">
        <ele>11.39999961853</ele>
        <time>2014-01-12T12:06:43.000Z</time>
      </trkpt>
      <trkpt lat="43.50605" lon="6.93981">
        <ele>11.39999961853</ele>
        <time>2014-01-12T12:06:49.000Z</time>
      </trkpt>
      <trkpt lat="43.5061" lon="6.94001">
        <ele>10.800000190735</ele>
        <time>2014-01-12T12:06:53.000Z</time>
      </trkpt>
      <trkpt lat="43.50622" lon="6.94004">
        <ele>10.800000190735</ele>
        <time>2014-01-12T12:06:56.000Z</time>
      </trkpt>
      <trkpt lat="43.5063" lon="6.94016">
        <ele>11.60000038147</ele>
        <time>2014-01-12T12:06:59.000Z</time>
      </trkpt>
      <trkpt lat="43.50633" lon="6.94021">
        <ele>11.800000190735</ele>
        <time>2014-01-12T12:07:00.000Z</time>
      </trkpt>
      <trkpt lat="43.50653" lon="6.94048">
        <ele>10.800000190735</ele>
        <time>2014-01-12T12:07:07.000Z</time>
      </trkpt>
      <trkpt lat="43.50677" lon="6.94085">
        <ele>8.3999996185303</ele>
        <time>2014-01-12T12:07:16.000Z</time>
      </trkpt>
      <trkpt lat="43.50694" lon="6.94111">
        <ele>8.8000001907349</ele>
        <time>2014-01-12T12:07:23.000Z</time>
      </trkpt>
      <trkpt lat="43.50715" lon="6.94145">
        <ele>7.8000001907349</ele>
        <time>2014-01-12T12:07:32.000Z</time>
      </trkpt>
      <trkpt lat="43.50727" lon="6.94164">
        <ele>6.4000000953674</ele>
        <time>2014-01-12T12:07:38.000Z</time>
      </trkpt>
      <trkpt lat="43.50736" lon="6.94172">
        <ele>5.5999999046326</ele>
        <time>2014-01-12T12:07:42.000Z</time>
      </trkpt>
      <trkpt lat="43.50738" lon="6.94171">
        <ele>5.4000000953674</ele>
        <time>2014-01-12T12:07:43.000Z</time>
      </trkpt>
      <trkpt lat="43.50748" lon="6.94161">
        <ele>5.5999999046326</ele>
        <time>2014-01-12T12:07:47.000Z</time>
      </trkpt>
      <trkpt lat="43.50751" lon="6.94154">
        <ele>6</ele>
        <time>2014-01-12T12:07:49.000Z</time>
      </trkpt>
      <trkpt lat="43.50757" lon="6.94135">
        <ele>7.4000000953674</ele>
        <time>2014-01-12T12:07:54.000Z</time>
      </trkpt>
      <trkpt lat="43.50766" lon="6.941">
        <ele>9.6000003814697</ele>
        <time>2014-01-12T12:08:02.000Z</time>
      </trkpt>
      <trkpt lat="43.50772" lon="6.94064">
        <ele>11.199999809265</ele>
        <time>2014-01-12T12:08:11.000Z</time>
      </trkpt>
      <trkpt lat="43.50776" lon="6.94044">
        <ele>11.39999961853</ele>
        <time>2014-01-12T12:08:16.000Z</time>
      </trkpt>
      <trkpt lat="43.50779" lon="6.94018">
        <ele>11.60000038147</ele>
        <time>2014-01-12T12:08:22.000Z</time>
      </trkpt>
      <trkpt lat="43.50784" lon="6.93977">
        <ele>13.39999961853</ele>
        <time>2014-01-12T12:08:32.000Z</time>
      </trkpt>
      <trkpt lat="43.50786" lon="6.93952">
        <ele>15.199999809265</ele>
        <time>2014-01-12T12:08:38.000Z</time>
      </trkpt>
      <trkpt lat="43.50789" lon="6.93913">
        <ele>17.799999237061</ele>
        <time>2014-01-12T12:08:47.000Z</time>
      </trkpt>
      <trkpt lat="43.50797" lon="6.93889">
        <ele>16.60000038147</ele>
        <time>2014-01-12T12:08:52.000Z</time>
      </trkpt>
      <trkpt lat="43.50807" lon="6.93856">
        <ele>15.199999809265</ele>
        <time>2014-01-12T12:08:58.000Z</time>
      </trkpt>
      <trkpt lat="43.50815" lon="6.93811">
        <ele>15</ele>
        <time>2014-01-12T12:09:05.000Z</time>
      </trkpt>
      <trkpt lat="43.50818" lon="6.93799">
        <ele>14.800000190735</ele>
        <time>2014-01-12T12:09:07.000Z</time>
      </trkpt>
      <trkpt lat="43.50828" lon="6.93783">
        <ele>13.60000038147</ele>
        <time>2014-01-12T12:09:10.000Z</time>
      </trkpt>
      <trkpt lat="43.50846" lon="6.93772">
        <ele>12.800000190735</ele>
        <time>2014-01-12T12:09:14.000Z</time>
      </trkpt>
      <trkpt lat="43.50885" lon="6.93748">
        <ele>12.800000190735</ele>
        <time>2014-01-12T12:09:23.000Z</time>
      </trkpt>
      <trkpt lat="43.50918" lon="6.93728">
        <ele>15.800000190735</ele>
        <time>2014-01-12T12:09:32.000Z</time>
      </trkpt>
      <trkpt lat="43.50923" lon="6.93727">
        <ele>15.60000038147</ele>
        <time>2014-01-12T12:09:33.000Z</time>
      </trkpt>
      <trkpt lat="43.50939" lon="6.93727">
        <ele>14.39999961853</ele>
        <time>2014-01-12T12:09:37.000Z</time>
      </trkpt>
      <trkpt lat="43.50959" lon="6.93726">
        <ele>13</ele>
        <time>2014-01-12T12:09:42.000Z</time>
      </trkpt>
      <trkpt lat="43.50967" lon="6.93723">
        <ele>13</ele>
        <time>2014-01-12T12:09:44.000Z</time>
      </trkpt>
      <trkpt lat="43.50971" lon="6.93721">
        <ele>13</ele>
        <time>2014-01-12T12:09:45.000Z</time>
      </trkpt>
      <trkpt lat="43.50989" lon="6.9371">
        <ele>14</ele>
        <time>2014-01-12T12:09:50.000Z</time>
      </trkpt>
      <trkpt lat="43.51008" lon="6.937">
        <ele>15.60000038147</ele>
        <time>2014-01-12T12:09:56.000Z</time>
      </trkpt>
      <trkpt lat="43.5104" lon="6.93684">
        <ele>20</ele>
        <time>2014-01-12T12:10:05.000Z</time>
      </trkpt>
      <trkpt lat="43.5106" lon="6.93684">
        <ele>20.60000038147</ele>
        <time>2014-01-12T12:10:10.000Z</time>
      </trkpt>
      <trkpt lat="43.51071" lon="6.93693">
        <ele>19.200000762939</ele>
        <time>2014-01-12T12:10:13.000Z</time>
      </trkpt>
      <trkpt lat="43.51074" lon="6.93696">
        <ele>18.60000038147</ele>
        <time>2014-01-12T12:10:14.000Z</time>
      </trkpt>
      <trkpt lat="43.51096" lon="6.9372">
        <ele>16.39999961853</ele>
        <time>2014-01-12T12:10:21.000Z</time>
      </trkpt>
      <trkpt lat="43.51099" lon="6.93722">
        <ele>16.200000762939</ele>
        <time>2014-01-12T12:10:22.000Z</time>
      </trkpt>
      <trkpt lat="43.51125" lon="6.93735">
        <ele>16.200000762939</ele>
        <time>2014-01-12T12:10:29.000Z</time>
      </trkpt>
      <trkpt lat="43.51151" lon="6.93743">
        <ele>16.60000038147</ele>
        <time>2014-01-12T12:10:37.000Z</time>
      </trkpt>
      <trkpt lat="43.51181" lon="6.93742">
        <ele>17.39999961853</ele>
        <time>2014-01-12T12:10:46.000Z</time>
      </trkpt>
      <trkpt lat="43.51211" lon="6.93739">
        <ele>17.200000762939</ele>
        <time>2014-01-12T12:10:55.000Z</time>
      </trkpt>
      <trkpt lat="43.51223" lon="6.93725">
        <ele>20.39999961853</ele>
        <time>2014-01-12T12:11:00.000Z</time>
      </trkpt>
      <trkpt lat="43.51245" lon="6.937">
        <ele>25.799999237061</ele>
        <time>2014-01-12T12:11:08.000Z</time>
      </trkpt>
      <trkpt lat="43.51266" lon="6.93702">
        <ele>25</ele>
        <time>2014-01-12T12:11:13.000Z</time>
      </trkpt>
      <trkpt lat="43.51313" lon="6.93713">
        <ele>21.799999237061</ele>
        <time>2014-01-12T12:11:24.000Z</time>
      </trkpt>
      <trkpt lat="43.51339" lon="6.93716">
        <ele>20.60000038147</ele>
        <time>2014-01-12T12:11:30.000Z</time>
      </trkpt>
      <trkpt lat="43.51346" lon="6.93715">
        <ele>20.799999237061</ele>
        <time>2014-01-12T12:11:32.000Z</time>
      </trkpt>
      <trkpt lat="43.51372" lon="6.93702">
        <ele>22.200000762939</ele>
        <time>2014-01-12T12:11:38.000Z</time>
      </trkpt>
      <trkpt lat="43.51381" lon="6.93698">
        <ele>22.60000038147</ele>
        <time>2014-01-12T12:11:40.000Z</time>
      </trkpt>
      <trkpt lat="43.51395" lon="6.93696">
        <ele>22</ele>
        <time>2014-01-12T12:11:43.000Z</time>
      </trkpt>
      <trkpt lat="43.51436" lon="6.93696">
        <ele>21.200000762939</ele>
        <time>2014-01-12T12:11:51.000Z</time>
      </trkpt>
      <trkpt lat="43.51486" lon="6.93702">
        <ele>22.60000038147</ele>
        <time>2014-01-12T12:12:01.000Z</time>
      </trkpt>
      <trkpt lat="43.51495" lon="6.93705">
        <ele>22.200000762939</ele>
        <time>2014-01-12T12:12:03.000Z</time>
      </trkpt>
      <trkpt lat="43.51504" lon="6.93717">
        <ele>21.39999961853</ele>
        <time>2014-01-12T12:12:06.000Z</time>
      </trkpt>
      <trkpt lat="43.51507" lon="6.93721">
        <ele>21</ele>
        <time>2014-01-12T12:12:07.000Z</time>
      </trkpt>
      <trkpt lat="43.51516" lon="6.93733">
        <ele>20.200000762939</ele>
        <time>2014-01-12T12:12:10.000Z</time>
      </trkpt>
      <trkpt lat="43.51527" lon="6.93742">
        <ele>20</ele>
        <time>2014-01-12T12:12:13.000Z</time>
      </trkpt>
      <trkpt lat="43.51561" lon="6.93764">
        <ele>20</ele>
        <time>2014-01-12T12:12:23.000Z</time>
      </trkpt>
      <trkpt lat="43.51594" lon="6.93783">
        <ele>18</ele>
        <time>2014-01-12T12:12:32.000Z</time>
      </trkpt>
      <trkpt lat="43.51612" lon="6.93779">
        <ele>16.60000038147</ele>
        <time>2014-01-12T12:12:37.000Z</time>
      </trkpt>
      <trkpt lat="43.51627" lon="6.93759">
        <ele>17.799999237061</ele>
        <time>2014-01-12T12:12:42.000Z</time>
      </trkpt>
      <trkpt lat="43.51646" lon="6.93725">
        <ele>20.799999237061</ele>
        <time>2014-01-12T12:12:49.000Z</time>
      </trkpt>
      <trkpt lat="43.51649" lon="6.93718">
        <ele>21.200000762939</ele>
        <time>2014-01-12T12:12:50.000Z</time>
      </trkpt>
      <trkpt lat="43.5166" lon="6.93697">
        <ele>22</ele>
        <time>2014-01-12T12:12:53.000Z</time>
      </trkpt>
      <trkpt lat="43.51671" lon="6.93658">
        <ele>24.39999961853</ele>
        <time>2014-01-12T12:12:57.000Z</time>
      </trkpt>
      <trkpt lat="43.51692" lon="6.93601">
        <ele>27.200000762939</ele>
        <time>2014-01-12T12:13:02.000Z</time>
      </trkpt>
      <trkpt lat="43.51721" lon="6.93545">
        <ele>24.60000038147</ele>
        <time>2014-01-12T12:13:07.000Z</time>
      </trkpt>
      <trkpt lat="43.51729" lon="6.93536">
        <ele>22.60000038147</ele>
        <time>2014-01-12T12:13:08.000Z</time>
      </trkpt>
      <trkpt lat="43.51757" lon="6.93528">
        <ele>18</ele>
        <time>2014-01-12T12:13:11.000Z</time>
      </trkpt>
      <trkpt lat="43.5178" lon="6.93542">
        <ele>26</ele>
        <time>2014-01-12T12:13:13.000Z</time>
      </trkpt>
      <trkpt lat="43.51787" lon="6.93566">
        <ele>27.60000038147</ele>
        <time>2014-01-12T12:13:15.000Z</time>
      </trkpt>
      <trkpt lat="43.51784" lon="6.93592">
        <ele>26</ele>
        <time>2014-01-12T12:13:17.000Z</time>
      </trkpt>
      <trkpt lat="43.51783" lon="6.93612">
        <ele>25.39999961853</ele>
        <time>2014-01-12T12:13:19.000Z</time>
      </trkpt>
      <trkpt lat="43.51782" lon="6.93628">
        <ele>25</ele>
        <time>2014-01-12T12:13:21.000Z</time>
      </trkpt>
      <trkpt lat="43.51778" lon="6.9366">
        <ele>23</ele>
        <time>2014-01-12T12:13:26.000Z</time>
      </trkpt>
      <trkpt lat="43.51777" lon="6.93671">
        <ele>22.39999961853</ele>
        <time>2014-01-12T12:13:28.000Z</time>
      </trkpt>
      <trkpt lat="43.51777" lon="6.93691">
        <ele>21.799999237061</ele>
        <time>2014-01-12T12:13:32.000Z</time>
      </trkpt>
      <trkpt lat="43.51785" lon="6.93727">
        <ele>24.799999237061</ele>
        <time>2014-01-12T12:13:40.000Z</time>
      </trkpt>
      <trkpt lat="43.5179" lon="6.93755">
        <ele>26</ele>
        <time>2014-01-12T12:13:46.000Z</time>
      </trkpt>
      <trkpt lat="43.51792" lon="6.93794">
        <ele>24.799999237061</ele>
        <time>2014-01-12T12:13:55.000Z</time>
      </trkpt>
      <trkpt lat="43.51795" lon="6.93828">
        <ele>24.60000038147</ele>
        <time>2014-01-12T12:14:04.000Z</time>
      </trkpt>
      <trkpt lat="43.51803" lon="6.93854">
        <ele>26.200000762939</ele>
        <time>2014-01-12T12:14:11.000Z</time>
      </trkpt>
      <trkpt lat="43.51817" lon="6.93881">
        <ele>29.200000762939</ele>
        <time>2014-01-12T12:14:19.000Z</time>
      </trkpt>
      <trkpt lat="43.51836" lon="6.93904">
        <ele>32.200000762939</ele>
        <time>2014-01-12T12:14:28.000Z</time>
      </trkpt>
      <trkpt lat="43.51846" lon="6.93923">
        <ele>32.400001525879</ele>
        <time>2014-01-12T12:14:34.000Z</time>
      </trkpt>
      <trkpt lat="43.51855" lon="6.93943">
        <ele>30.60000038147</ele>
        <time>2014-01-12T12:14:40.000Z</time>
      </trkpt>
      <trkpt lat="43.51872" lon="6.93962">
        <ele>30.799999237061</ele>
        <time>2014-01-12T12:14:48.000Z</time>
      </trkpt>
      <trkpt lat="43.51892" lon="6.93973">
        <ele>33.799999237061</ele>
        <time>2014-01-12T12:14:56.000Z</time>
      </trkpt>
      <trkpt lat="43.51914" lon="6.93984">
        <ele>37</ele>
        <time>2014-01-12T12:15:04.000Z</time>
      </trkpt>
      <trkpt lat="43.51934" lon="6.93995">
        <ele>36</ele>
        <time>2014-01-12T12:15:11.000Z</time>
      </trkpt>
      <trkpt lat="43.51954" lon="6.94009">
        <ele>33.599998474121</ele>
        <time>2014-01-12T12:15:17.000Z</time>
      </trkpt>
      <trkpt lat="43.51976" lon="6.94023">
        <ele>31.200000762939</ele>
        <time>2014-01-12T12:15:24.000Z</time>
      </trkpt>
      <trkpt lat="43.52" lon="6.94036">
        <ele>29.799999237061</ele>
        <time>2014-01-12T12:15:30.000Z</time>
      </trkpt>
      <trkpt lat="43.52027" lon="6.94045">
        <ele>27</ele>
        <time>2014-01-12T12:15:35.000Z</time>
      </trkpt>
      <trkpt lat="43.52066" lon="6.94055">
        <ele>23.60000038147</ele>
        <time>2014-01-12T12:15:42.000Z</time>
      </trkpt>
      <trkpt lat="43.52077" lon="6.94054">
        <ele>23.60000038147</ele>
        <time>2014-01-12T12:15:44.000Z</time>
      </trkpt>
      <trkpt lat="43.52094" lon="6.94043">
        <ele>24.799999237061</ele>
        <time>2014-01-12T12:15:47.000Z</time>
      </trkpt>
      <trkpt lat="43.52106" lon="6.94033">
        <ele>25.39999961853</ele>
        <time>2014-01-12T12:15:49.000Z</time>
      </trkpt>
      <trkpt lat="43.52126" lon="6.94017">
        <ele>25.200000762939</ele>
        <time>2014-01-12T12:15:52.000Z</time>
      </trkpt>
      <trkpt lat="43.52133" lon="6.94013">
        <ele>24.60000038147</ele>
        <time>2014-01-12T12:15:53.000Z</time>
      </trkpt>
      <trkpt lat="43.52158" lon="6.94009">
        <ele>20.60000038147</ele>
        <time>2014-01-12T12:15:56.000Z</time>
      </trkpt>
      <trkpt lat="43.52177" lon="6.94012">
        <ele>19.39999961853</ele>
        <time>2014-01-12T12:15:58.000Z</time>
      </trkpt>
      <trkpt lat="43.52186" lon="6.94016">
        <ele>19.60000038147</ele>
        <time>2014-01-12T12:15:59.000Z</time>
      </trkpt>
      <trkpt lat="43.52233" lon="6.94044">
        <ele>20</ele>
        <time>2014-01-12T12:16:04.000Z</time>
      </trkpt>
      <trkpt lat="43.5226" lon="6.94062">
        <ele>19.39999961853</ele>
        <time>2014-01-12T12:16:08.000Z</time>
      </trkpt>
      <trkpt lat="43.52277" lon="6.94076">
        <ele>17.799999237061</ele>
        <time>2014-01-12T12:16:13.000Z</time>
      </trkpt>
      <trkpt lat="43.52281" lon="6.94079">
        <ele>17.60000038147</ele>
        <time>2014-01-12T12:16:16.000Z</time>
      </trkpt>
      <trkpt lat="43.52281" lon="6.94079">
        <ele>17.60000038147</ele>
        <time>2014-01-12T12:16:17.000Z</time>
      </trkpt>
      <trkpt lat="43.52287" lon="6.94081">
        <ele>17.39999961853</ele>
        <time>2014-01-12T12:16:41.000Z</time>
      </trkpt>
      <trkpt lat="43.52296" lon="6.94089">
        <ele>16.60000038147</ele>
        <time>2014-01-12T12:16:46.000Z</time>
      </trkpt>
      <trkpt lat="43.52299" lon="6.94088">
        <ele>16.60000038147</ele>
        <time>2014-01-12T12:16:47.000Z</time>
      </trkpt>
      <trkpt lat="43.52309" lon="6.94081">
        <ele>17.200000762939</ele>
        <time>2014-01-12T12:16:50.000Z</time>
      </trkpt>
      <trkpt lat="43.52312" lon="6.94079">
        <ele>17.39999961853</ele>
        <time>2014-01-12T12:16:51.000Z</time>
      </trkpt>
      <trkpt lat="43.52335" lon="6.94068">
        <ele>18.799999237061</ele>
        <time>2014-01-12T12:16:57.000Z</time>
      </trkpt>
      <trkpt lat="43.52341" lon="6.94066">
        <ele>19.200000762939</ele>
        <time>2014-01-12T12:16:59.000Z</time>
      </trkpt>
      <trkpt lat="43.52349" lon="6.94071">
        <ele>18.60000038147</ele>
        <time>2014-01-12T12:17:01.000Z</time>
      </trkpt>
      <trkpt lat="43.52363" lon="6.94075">
        <ele>18</ele>
        <time>2014-01-12T12:17:05.000Z</time>
      </trkpt>
      <trkpt lat="43.52366" lon="6.94075">
        <ele>18.200000762939</ele>
        <time>2014-01-12T12:17:06.000Z</time>
      </trkpt>
      <trkpt lat="43.52368" lon="6.94069">
        <ele>19</ele>
        <time>2014-01-12T12:17:08.000Z</time>
      </trkpt>
      <trkpt lat="43.52369" lon="6.94067">
        <ele>19.39999961853</ele>
        <time>2014-01-12T12:17:13.000Z</time>
      </trkpt>
      <trkpt lat="43.52374" lon="6.94066">
        <ele>19.39999961853</ele>
        <time>2014-01-12T12:18:35.000Z</time>
      </trkpt>
      <trkpt lat="43.52379" lon="6.9407">
        <ele>19</ele>
        <time>2014-01-12T12:19:27.000Z</time>
      </trkpt>
      <trkpt lat="43.52379" lon="6.94072">
        <ele>18.60000038147</ele>
        <time>2014-01-12T12:19:35.000Z</time>
      </trkpt>
      <trkpt lat="43.52378" lon="6.94076">
        <ele>18</ele>
        <time>2014-01-12T12:19:43.000Z</time>
      </trkpt>
      <trkpt lat="43.52367" lon="6.94067">
        <ele>19.200000762939</ele>
        <time>2014-01-12T12:27:51.000Z</time>
      </trkpt>
      <trkpt lat="43.5237" lon="6.94089">
        <ele>16.799999237061</ele>
        <time>2014-01-12T12:34:30.000Z</time>
      </trkpt>
      <trkpt lat="43.52377" lon="6.94085">
        <ele>17</ele>
        <time>2014-01-12T12:34:38.000Z</time>
      </trkpt>
      <trkpt lat="43.52381" lon="6.94083">
        <ele>17</ele>
        <time>2014-01-12T12:34:43.000Z</time>
      </trkpt>
      <trkpt lat="43.52358" lon="6.94101">
        <ele>16.200000762939</ele>
        <time>2014-01-12T12:37:52.000Z</time>
      </trkpt>
      <trkpt lat="43.52361" lon="6.94099">
        <ele>16.200000762939</ele>
        <time>2014-01-12T12:37:57.000Z</time>
      </trkpt>
      <trkpt lat="43.52357" lon="6.94101">
        <ele>16</ele>
        <time>2014-01-12T12:39:08.000Z</time>
      </trkpt>
      <trkpt lat="43.52386" lon="6.94077">
        <ele>17.799999237061</ele>
        <time>2014-01-12T12:41:19.000Z</time>
      </trkpt>
      <trkpt lat="43.52388" lon="6.94076">
        <ele>18</ele>
        <time>2014-01-12T12:41:24.000Z</time>
      </trkpt>
      <trkpt lat="43.52389" lon="6.94074">
        <ele>18.39999961853</ele>
        <time>2014-01-12T12:41:32.000Z</time>
      </trkpt>
      <trkpt lat="43.52359" lon="6.94082">
        <ele>17.200000762939</ele>
        <time>2014-01-12T12:53:26.000Z</time>
      </trkpt>
      <trkpt lat="43.52357" lon="6.94082">
        <ele>17.200000762939</ele>
        <time>2014-01-12T12:53:27.000Z</time>
      </trkpt>
      <trkpt lat="43.52345" lon="6.94084">
        <ele>17</ele>
        <time>2014-01-12T12:53:33.000Z</time>
      </trkpt>
      <trkpt lat="43.52323" lon="6.94084">
        <ele>17</ele>
        <time>2014-01-12T12:53:41.000Z</time>
      </trkpt>
      <trkpt lat="43.52304" lon="6.94092">
        <ele>16.39999961853</ele>
        <time>2014-01-12T12:53:48.000Z</time>
      </trkpt>
      <trkpt lat="43.52295" lon="6.94099">
        <ele>16</ele>
        <time>2014-01-12T12:53:53.000Z</time>
      </trkpt>
      <trkpt lat="43.5229" lon="6.94112">
        <ele>15</ele>
        <time>2014-01-12T12:53:57.000Z</time>
      </trkpt>
      <trkpt lat="43.52294" lon="6.9412">
        <ele>14.39999961853</ele>
        <time>2014-01-12T12:53:59.000Z</time>
      </trkpt>
      <trkpt lat="43.52298" lon="6.9413">
        <ele>13.800000190735</ele>
        <time>2014-01-12T12:54:01.000Z</time>
      </trkpt>
      <trkpt lat="43.52313" lon="6.94147">
        <ele>13.199999809265</ele>
        <time>2014-01-12T12:54:06.000Z</time>
      </trkpt>
      <trkpt lat="43.5233" lon="6.9415">
        <ele>13.60000038147</ele>
        <time>2014-01-12T12:54:11.000Z</time>
      </trkpt>
      <trkpt lat="43.52357" lon="6.94154">
        <ele>13.39999961853</ele>
        <time>2014-01-12T12:54:17.000Z</time>
      </trkpt>
      <trkpt lat="43.52366" lon="6.94163">
        <ele>12.800000190735</ele>
        <time>2014-01-12T12:54:18.000Z</time>
      </trkpt>
      <trkpt lat="43.52376" lon="6.94167">
        <ele>12.39999961853</ele>
        <time>2014-01-12T12:54:20.000Z</time>
      </trkpt>
      <trkpt lat="43.5239" lon="6.94193">
        <ele>11.199999809265</ele>
        <time>2014-01-12T12:54:23.000Z</time>
      </trkpt>
      <trkpt lat="43.52395" lon="6.94203">
        <ele>10.800000190735</ele>
        <time>2014-01-12T12:54:24.000Z</time>
      </trkpt>
      <trkpt lat="43.52427" lon="6.94264">
        <ele>8</ele>
        <time>2014-01-12T12:54:31.000Z</time>
      </trkpt>
      <trkpt lat="43.52453" lon="6.94325">
        <ele>6</ele>
        <time>2014-01-12T12:54:38.000Z</time>
      </trkpt>
      <trkpt lat="43.52468" lon="6.94359">
        <ele>5.1999998092651</ele>
        <time>2014-01-12T12:54:43.000Z</time>
      </trkpt>
      <trkpt lat="43.52474" lon="6.94364">
        <ele>5.1999998092651</ele>
        <time>2014-01-12T12:54:44.000Z</time>
      </trkpt>
      <trkpt lat="43.52491" lon="6.9438">
        <ele>5.4000000953674</ele>
        <time>2014-01-12T12:54:47.000Z</time>
      </trkpt>
      <trkpt lat="43.52508" lon="6.94396">
        <ele>5.5999999046326</ele>
        <time>2014-01-12T12:54:50.000Z</time>
      </trkpt>
      <trkpt lat="43.52536" lon="6.94425">
        <ele>5</ele>
        <time>2014-01-12T12:54:56.000Z</time>
      </trkpt>
      <trkpt lat="43.52569" lon="6.94457">
        <ele>4.1999998092651</ele>
        <time>2014-01-12T12:55:03.000Z</time>
      </trkpt>
      <trkpt lat="43.52608" lon="6.94492">
        <ele>3.5999999046326</ele>
        <time>2014-01-12T12:55:12.000Z</time>
      </trkpt>
      <trkpt lat="43.52615" lon="6.945">
        <ele>3.4000000953674</ele>
        <time>2014-01-12T12:55:14.000Z</time>
      </trkpt>
      <trkpt lat="43.52629" lon="6.94513">
        <ele>3.4000000953674</ele>
        <time>2014-01-12T12:55:18.000Z</time>
      </trkpt>
      <trkpt lat="43.5265" lon="6.94526">
        <ele>3.4000000953674</ele>
        <time>2014-01-12T12:55:23.000Z</time>
      </trkpt>
      <trkpt lat="43.52658" lon="6.9453">
        <ele>3.5999999046326</ele>
        <time>2014-01-12T12:55:25.000Z</time>
      </trkpt>
      <trkpt lat="43.52681" lon="6.94538">
        <ele>3.5999999046326</ele>
        <time>2014-01-12T12:55:30.000Z</time>
      </trkpt>
      <trkpt lat="43.52691" lon="6.94544">
        <ele>3.4000000953674</ele>
        <time>2014-01-12T12:55:32.000Z</time>
      </trkpt>
      <trkpt lat="43.52718" lon="6.94565">
        <ele>3.2000000476837</ele>
        <time>2014-01-12T12:55:38.000Z</time>
      </trkpt>
      <trkpt lat="43.52739" lon="6.94585">
        <ele>3</ele>
        <time>2014-01-12T12:55:43.000Z</time>
      </trkpt>
      <trkpt lat="43.52747" lon="6.94595">
        <ele>3</ele>
        <time>2014-01-12T12:55:45.000Z</time>
      </trkpt>
      <trkpt lat="43.52761" lon="6.94612">
        <ele>3.2000000476837</ele>
        <time>2014-01-12T12:55:49.000Z</time>
      </trkpt>
      <trkpt lat="43.52767" lon="6.94619">
        <ele>3.4000000953674</ele>
        <time>2014-01-12T12:55:51.000Z</time>
      </trkpt>
      <trkpt lat="43.52775" lon="6.94625">
        <ele>3.5999999046326</ele>
        <time>2014-01-12T12:55:53.000Z</time>
      </trkpt>
      <trkpt lat="43.52793" lon="6.94637">
        <ele>4.1999998092651</ele>
        <time>2014-01-12T12:55:57.000Z</time>
      </trkpt>
      <trkpt lat="43.52829" lon="6.94662">
        <ele>5.8000001907349</ele>
        <time>2014-01-12T12:56:05.000Z</time>
      </trkpt>
      <trkpt lat="43.52831" lon="6.94669">
        <ele>6</ele>
        <time>2014-01-12T12:56:06.000Z</time>
      </trkpt>
      <trkpt lat="43.52852" lon="6.94678">
        <ele>6.1999998092651</ele>
        <time>2014-01-12T12:56:10.000Z</time>
      </trkpt>
      <trkpt lat="43.52885" lon="6.94695">
        <ele>6.4000000953674</ele>
        <time>2014-01-12T12:56:17.000Z</time>
      </trkpt>
      <trkpt lat="43.52894" lon="6.94699">
        <ele>6.4000000953674</ele>
        <time>2014-01-12T12:56:19.000Z</time>
      </trkpt>
      <trkpt lat="43.52903" lon="6.94705">
        <ele>6.5999999046326</ele>
        <time>2014-01-12T12:56:21.000Z</time>
      </trkpt>
      <trkpt lat="43.52909" lon="6.94707">
        <ele>6.5999999046326</ele>
        <time>2014-01-12T12:56:22.000Z</time>
      </trkpt>
      <trkpt lat="43.52933" lon="6.94719">
        <ele>6.5999999046326</ele>
        <time>2014-01-12T12:56:27.000Z</time>
      </trkpt>
      <trkpt lat="43.52938" lon="6.94721">
        <ele>6.5999999046326</ele>
        <time>2014-01-12T12:56:28.000Z</time>
      </trkpt>
      <trkpt lat="43.52969" lon="6.94733">
        <ele>6.5999999046326</ele>
        <time>2014-01-12T12:56:34.000Z</time>
      </trkpt>
      <trkpt lat="43.52975" lon="6.94733">
        <ele>6.5999999046326</ele>
        <time>2014-01-12T12:56:35.000Z</time>
      </trkpt>
      <trkpt lat="43.53012" lon="6.94739">
        <ele>6.1999998092651</ele>
        <time>2014-01-12T12:56:42.000Z</time>
      </trkpt>
      <trkpt lat="43.53047" lon="6.94752">
        <ele>4.8000001907349</ele>
        <time>2014-01-12T12:56:49.000Z</time>
      </trkpt>
      <trkpt lat="43.53095" lon="6.94774">
        <ele>3.4000000953674</ele>
        <time>2014-01-12T12:56:59.000Z</time>
      </trkpt>
      <trkpt lat="43.53144" lon="6.94796">
        <ele>4</ele>
        <time>2014-01-12T12:57:10.000Z</time>
      </trkpt>
      <trkpt lat="43.53161" lon="6.94812">
        <ele>4.4000000953674</ele>
        <time>2014-01-12T12:57:15.000Z</time>
      </trkpt>
      <trkpt lat="43.53164" lon="6.94815">
        <ele>4.5999999046326</ele>
        <time>2014-01-12T12:57:16.000Z</time>
      </trkpt>
      <trkpt lat="43.53166" lon="6.94818">
        <ele>4.5999999046326</ele>
        <time>2014-01-12T12:57:17.000Z</time>
      </trkpt>
      <trkpt lat="43.53167" lon="6.9483">
        <ele>5</ele>
        <time>2014-01-12T12:57:20.000Z</time>
      </trkpt>
      <trkpt lat="43.53166" lon="6.94843">
        <ele>4.8000001907349</ele>
        <time>2014-01-12T12:57:25.000Z</time>
      </trkpt>
      <trkpt lat="43.53164" lon="6.94841">
        <ele>4.8000001907349</ele>
        <time>2014-01-12T12:57:29.000Z</time>
      </trkpt>
      <trkpt lat="43.53168" lon="6.94856">
        <ele>4.4000000953674</ele>
        <time>2014-01-12T13:01:24.000Z</time>
      </trkpt>
      <trkpt lat="43.53177" lon="6.94858">
        <ele>4.8000001907349</ele>
        <time>2014-01-12T13:01:28.000Z</time>
      </trkpt>
      <trkpt lat="43.53194" lon="6.94878">
        <ele>4.8000001907349</ele>
        <time>2014-01-12T13:01:33.000Z</time>
      </trkpt>
      <trkpt lat="43.53222" lon="6.94904">
        <ele>4.8000001907349</ele>
        <time>2014-01-12T13:01:39.000Z</time>
      </trkpt>
      <trkpt lat="43.53262" lon="6.94938">
        <ele>4.5999999046326</ele>
        <time>2014-01-12T13:01:47.000Z</time>
      </trkpt>
      <trkpt lat="43.53297" lon="6.94969">
        <ele>4</ele>
        <time>2014-01-12T13:01:54.000Z</time>
      </trkpt>
      <trkpt lat="43.53341" lon="6.95011">
        <ele>3.2000000476837</ele>
        <time>2014-01-12T13:02:03.000Z</time>
      </trkpt>
      <trkpt lat="43.53372" lon="6.95041">
        <ele>3.5999999046326</ele>
        <time>2014-01-12T13:02:09.000Z</time>
      </trkpt>
      <trkpt lat="43.5341" lon="6.95078">
        <ele>3.2000000476837</ele>
        <time>2014-01-12T13:02:17.000Z</time>
      </trkpt>
      <trkpt lat="43.53452" lon="6.95123">
        <ele>2.4000000953674</ele>
        <time>2014-01-12T13:02:26.000Z</time>
      </trkpt>
      <trkpt lat="43.53497" lon="6.95171">
        <ele>3</ele>
        <time>2014-01-12T13:02:36.000Z</time>
      </trkpt>
      <trkpt lat="43.53531" lon="6.9521">
        <ele>4.4000000953674</ele>
        <time>2014-01-12T13:02:44.000Z</time>
      </trkpt>
      <trkpt lat="43.53564" lon="6.9525">
        <ele>4.1999998092651</ele>
        <time>2014-01-12T13:02:52.000Z</time>
      </trkpt>
      <trkpt lat="43.53598" lon="6.95292">
        <ele>3</ele>
        <time>2014-01-12T13:03:00.000Z</time>
      </trkpt>
      <trkpt lat="43.53631" lon="6.95332">
        <ele>2.5999999046326</ele>
        <time>2014-01-12T13:03:07.000Z</time>
      </trkpt>
      <trkpt lat="43.53668" lon="6.95376">
        <ele>3.5999999046326</ele>
        <time>2014-01-12T13:03:15.000Z</time>
      </trkpt>
      <trkpt lat="43.53706" lon="6.95422">
        <ele>5.5999999046326</ele>
        <time>2014-01-12T13:03:24.000Z</time>
      </trkpt>
      <trkpt lat="43.53742" lon="6.95466">
        <ele>7.8000001907349</ele>
        <time>2014-01-12T13:03:33.000Z</time>
      </trkpt>
      <trkpt lat="43.53777" lon="6.95514">
        <ele>10.800000190735</ele>
        <time>2014-01-12T13:03:42.000Z</time>
      </trkpt>
      <trkpt lat="43.53815" lon="6.95567">
        <ele>13.199999809265</ele>
        <time>2014-01-12T13:03:52.000Z</time>
      </trkpt>
      <trkpt lat="43.5385" lon="6.9562">
        <ele>12.39999961853</ele>
        <time>2014-01-12T13:04:02.000Z</time>
      </trkpt>
      <trkpt lat="43.53886" lon="6.95677">
        <ele>10.39999961853</ele>
        <time>2014-01-12T13:04:13.000Z</time>
      </trkpt>
      <trkpt lat="43.53917" lon="6.95728">
        <ele>9.3999996185303</ele>
        <time>2014-01-12T13:04:23.000Z</time>
      </trkpt>
      <trkpt lat="43.53948" lon="6.95779">
        <ele>7.5999999046326</ele>
        <time>2014-01-12T13:04:33.000Z</time>
      </trkpt>
      <trkpt lat="43.53973" lon="6.95824">
        <ele>7.1999998092651</ele>
        <time>2014-01-12T13:04:41.000Z</time>
      </trkpt>
      <trkpt lat="43.54003" lon="6.95879">
        <ele>9.1999998092651</ele>
        <time>2014-01-12T13:04:51.000Z</time>
      </trkpt>
      <trkpt lat="43.5403" lon="6.95927">
        <ele>11.39999961853</ele>
        <time>2014-01-12T13:05:00.000Z</time>
      </trkpt>
      <trkpt lat="43.54065" lon="6.9599">
        <ele>10.199999809265</ele>
        <time>2014-01-12T13:05:12.000Z</time>
      </trkpt>
      <trkpt lat="43.541" lon="6.96049">
        <ele>7.1999998092651</ele>
        <time>2014-01-12T13:05:23.000Z</time>
      </trkpt>
      <trkpt lat="43.54136" lon="6.96098">
        <ele>5.1999998092651</ele>
        <time>2014-01-12T13:05:33.000Z</time>
      </trkpt>
      <trkpt lat="43.54142" lon="6.96109">
        <ele>5.1999998092651</ele>
        <time>2014-01-12T13:05:35.000Z</time>
      </trkpt>
      <trkpt lat="43.54145" lon="6.96122">
        <ele>5.4000000953674</ele>
        <time>2014-01-12T13:05:37.000Z</time>
      </trkpt>
      <trkpt lat="43.5416" lon="6.9614">
        <ele>6</ele>
        <time>2014-01-12T13:05:41.000Z</time>
      </trkpt>
      <trkpt lat="43.54171" lon="6.96164">
        <ele>7.1999998092651</ele>
        <time>2014-01-12T13:05:45.000Z</time>
      </trkpt>
      <trkpt lat="43.54186" lon="6.96208">
        <ele>6.4000000953674</ele>
        <time>2014-01-12T13:05:52.000Z</time>
      </trkpt>
      <trkpt lat="43.54213" lon="6.96262">
        <ele>7</ele>
        <time>2014-01-12T13:06:01.000Z</time>
      </trkpt>
      <trkpt lat="43.54237" lon="6.96311">
        <ele>7.5999999046326</ele>
        <time>2014-01-12T13:06:09.000Z</time>
      </trkpt>
      <trkpt lat="43.54266" lon="6.96371">
        <ele>6.1999998092651</ele>
        <time>2014-01-12T13:06:19.000Z</time>
      </trkpt>
      <trkpt lat="43.54293" lon="6.96431">
        <ele>5.5999999046326</ele>
        <time>2014-01-12T13:06:29.000Z</time>
      </trkpt>
      <trkpt lat="43.54316" lon="6.96483">
        <ele>7</ele>
        <time>2014-01-12T13:06:38.000Z</time>
      </trkpt>
      <trkpt lat="43.54332" lon="6.96526">
        <ele>6</ele>
        <time>2014-01-12T13:06:46.000Z</time>
      </trkpt>
      <trkpt lat="43.54344" lon="6.96556">
        <ele>3.2000000476837</ele>
        <time>2014-01-12T13:06:51.000Z</time>
      </trkpt>
      <trkpt lat="43.5436" lon="6.96598">
        <ele>1.2000000476837</ele>
        <time>2014-01-12T13:06:58.000Z</time>
      </trkpt>
      <trkpt lat="43.54378" lon="6.96645">
        <ele>1.6000000238419</ele>
        <time>2014-01-12T13:07:06.000Z</time>
      </trkpt>
      <trkpt lat="43.54392" lon="6.96685">
        <ele>2.4000000953674</ele>
        <time>2014-01-12T13:07:12.000Z</time>
      </trkpt>
      <trkpt lat="43.54416" lon="6.96742">
        <ele>4</ele>
        <time>2014-01-12T13:07:21.000Z</time>
      </trkpt>
      <trkpt lat="43.5444" lon="6.96801">
        <ele>2.5999999046326</ele>
        <time>2014-01-12T13:07:30.000Z</time>
      </trkpt>
      <trkpt lat="43.54468" lon="6.96871">
        <ele>1.3999999761581</ele>
        <time>2014-01-12T13:07:41.000Z</time>
      </trkpt>
      <trkpt lat="43.54491" lon="6.9693">
        <ele>1</ele>
        <time>2014-01-12T13:07:50.000Z</time>
      </trkpt>
      <trkpt lat="43.54507" lon="6.96978">
        <ele>0.20000000298023</ele>
        <time>2014-01-12T13:07:57.000Z</time>
      </trkpt>
      <trkpt lat="43.54524" lon="6.97028">
        <ele>3</ele>
        <time>2014-01-12T13:08:05.000Z</time>
      </trkpt>
      <trkpt lat="43.5454" lon="6.97086">
        <ele>-0.20000000298023</ele>
        <time>2014-01-12T13:08:14.000Z</time>
      </trkpt>
      <trkpt lat="43.54559" lon="6.97152">
        <ele>1.9</ele>
        <time>2014-01-12T13:08:24.000Z</time>
      </trkpt>
      <trkpt lat="43.54569" lon="6.97193">
        <ele>-0.20000000298023</ele>
        <time>2014-01-12T13:08:30.000Z</time>
      </trkpt>
      <trkpt lat="43.54588" lon="6.97266">
        <ele>-1.2000000476837</ele>
        <time>2014-01-12T13:08:41.000Z</time>
      </trkpt>
      <trkpt lat="43.54604" lon="6.97325">
        <ele>-1.6000000238419</ele>
        <time>2014-01-12T13:08:50.000Z</time>
      </trkpt>
      <trkpt lat="43.54621" lon="6.97391">
        <ele>-0.80000001192093</ele>
        <time>2014-01-12T13:09:00.000Z</time>
      </trkpt>
      <trkpt lat="43.54641" lon="6.97462">
        <ele>2.5</ele>
        <time>2014-01-12T13:09:11.000Z</time>
      </trkpt>
      <trkpt lat="43.54647" lon="6.97481">
        <ele>2.3</ele>
        <time>2014-01-12T13:09:14.000Z</time>
      </trkpt>
      <trkpt lat="43.54661" lon="6.9754">
        <ele>-0.60000002384186</ele>
        <time>2014-01-12T13:09:23.000Z</time>
      </trkpt>
      <trkpt lat="43.54676" lon="6.97599">
        <ele>-0.60000002384186</ele>
        <time>2014-01-12T13:09:32.000Z</time>
      </trkpt>
      <trkpt lat="43.54689" lon="6.97658">
        <ele>3</ele>
        <time>2014-01-12T13:09:41.000Z</time>
      </trkpt>
      <trkpt lat="43.54702" lon="6.97725">
        <ele>1.7999999523163</ele>
        <time>2014-01-12T13:09:51.000Z</time>
      </trkpt>
      <trkpt lat="43.54714" lon="6.97788">
        <ele>3</ele>
        <time>2014-01-12T13:10:00.000Z</time>
      </trkpt>
      <trkpt lat="43.54723" lon="6.97851">
        <ele>3.7999999523163</ele>
        <time>2014-01-12T13:10:09.000Z</time>
      </trkpt>
      <trkpt lat="43.54731" lon="6.97911">
        <ele>4.8000001907349</ele>
        <time>2014-01-12T13:10:18.000Z</time>
      </trkpt>
      <trkpt lat="43.54739" lon="6.97968">
        <ele>4.8000001907349</ele>
        <time>2014-01-12T13:10:27.000Z</time>
      </trkpt>
      <trkpt lat="43.54741" lon="6.97989">
        <ele>4.8000001907349</ele>
        <time>2014-01-12T13:10:33.000Z</time>
      </trkpt>
      <trkpt lat="43.54744" lon="6.98009">
        <ele>4.8000001907349</ele>
        <time>2014-01-12T13:10:38.000Z</time>
      </trkpt>
      <trkpt lat="43.54747" lon="6.98037">
        <ele>5</ele>
        <time>2014-01-12T13:10:42.000Z</time>
      </trkpt>
      <trkpt lat="43.54756" lon="6.98111">
        <ele>5.1999998092651</ele>
        <time>2014-01-12T13:10:53.000Z</time>
      </trkpt>
      <trkpt lat="43.54767" lon="6.98189">
        <ele>6</ele>
        <time>2014-01-12T13:11:04.000Z</time>
      </trkpt>
      <trkpt lat="43.54774" lon="6.98243">
        <ele>6.8000001907349</ele>
        <time>2014-01-12T13:11:12.000Z</time>
      </trkpt>
      <trkpt lat="43.54785" lon="6.98318">
        <ele>6.1999998092651</ele>
        <time>2014-01-12T13:11:22.000Z</time>
      </trkpt>
      <trkpt lat="43.54799" lon="6.98394">
        <ele>6.4000000953674</ele>
        <time>2014-01-12T13:11:32.000Z</time>
      </trkpt>
      <trkpt lat="43.54802" lon="6.9841">
        <ele>6.5999999046326</ele>
        <time>2014-01-12T13:11:34.000Z</time>
      </trkpt>
      <trkpt lat="43.54815" lon="6.98478">
        <ele>8</ele>
        <time>2014-01-12T13:11:43.000Z</time>
      </trkpt>
      <trkpt lat="43.54829" lon="6.98555">
        <ele>7.8000001907349</ele>
        <time>2014-01-12T13:11:54.000Z</time>
      </trkpt>
      <trkpt lat="43.54836" lon="6.98588">
        <ele>6.8000001907349</ele>
        <time>2014-01-12T13:11:59.000Z</time>
      </trkpt>
      <trkpt lat="43.54837" lon="6.98595">
        <ele>6.4000000953674</ele>
        <time>2014-01-12T13:12:00.000Z</time>
      </trkpt>
      <trkpt lat="43.54847" lon="6.9865">
        <ele>3.4000000953674</ele>
        <time>2014-01-12T13:12:08.000Z</time>
      </trkpt>
      <trkpt lat="43.5486" lon="6.98714">
        <ele>5</ele>
        <time>2014-01-12T13:12:17.000Z</time>
      </trkpt>
      <trkpt lat="43.5487" lon="6.98779">
        <ele>5.1999998092651</ele>
        <time>2014-01-12T13:12:26.000Z</time>
      </trkpt>
      <trkpt lat="43.54878" lon="6.98839">
        <ele>3.5999999046326</ele>
        <time>2014-01-12T13:12:34.000Z</time>
      </trkpt>
      <trkpt lat="43.54885" lon="6.98895">
        <ele>3.7999999523163</ele>
        <time>2014-01-12T13:12:42.000Z</time>
      </trkpt>
      <trkpt lat="43.5489" lon="6.98973">
        <ele>2.5999999046326</ele>
        <time>2014-01-12T13:12:52.000Z</time>
      </trkpt>
      <trkpt lat="43.5489" lon="6.98988">
        <ele>2.2000000476837</ele>
        <time>2014-01-12T13:12:54.000Z</time>
      </trkpt>
      <trkpt lat="43.54896" lon="6.99064">
        <ele>3</ele>
        <time>2014-01-12T13:13:04.000Z</time>
      </trkpt>
      <trkpt lat="43.549" lon="6.99133">
        <ele>4.1999998092651</ele>
        <time>2014-01-12T13:13:13.000Z</time>
      </trkpt>
      <trkpt lat="43.54903" lon="6.99202">
        <ele>5.8000001907349</ele>
        <time>2014-01-12T13:13:22.000Z</time>
      </trkpt>
      <trkpt lat="43.54907" lon="6.99277">
        <ele>6.4000000953674</ele>
        <time>2014-01-12T13:13:32.000Z</time>
      </trkpt>
      <trkpt lat="43.54908" lon="6.99284">
        <ele>6.4000000953674</ele>
        <time>2014-01-12T13:13:33.000Z</time>
      </trkpt>
      <trkpt lat="43.54909" lon="6.9934">
        <ele>5</ele>
        <time>2014-01-12T13:13:42.000Z</time>
      </trkpt>
      <trkpt lat="43.5491" lon="6.99356">
        <ele>5.5999999046326</ele>
        <time>2014-01-12T13:13:46.000Z</time>
      </trkpt>
      <trkpt lat="43.5491" lon="6.99358">
        <ele>5.5999999046326</ele>
        <time>2014-01-12T13:13:47.000Z</time>
      </trkpt>
      <trkpt lat="43.54911" lon="6.99374">
        <ele>6.4000000953674</ele>
        <time>2014-01-12T13:13:53.000Z</time>
      </trkpt>
      <trkpt lat="43.54912" lon="6.99378">
        <ele>6.5999999046326</ele>
        <time>2014-01-12T13:13:54.000Z</time>
      </trkpt>
      <trkpt lat="43.54914" lon="6.99402">
        <ele>7.4000000953674</ele>
        <time>2014-01-12T13:13:58.000Z</time>
      </trkpt>
      <trkpt lat="43.54916" lon="6.99452">
        <ele>6.8000001907349</ele>
        <time>2014-01-12T13:14:04.000Z</time>
      </trkpt>
      <trkpt lat="43.54919" lon="6.99534">
        <ele>4.8000001907349</ele>
        <time>2014-01-12T13:14:13.000Z</time>
      </trkpt>
      <trkpt lat="43.54919" lon="6.99543">
        <ele>4.5999999046326</ele>
        <time>2014-01-12T13:14:14.000Z</time>
      </trkpt>
      <trkpt lat="43.54917" lon="6.99626">
        <ele>5</ele>
        <time>2014-01-12T13:14:23.000Z</time>
      </trkpt>
      <trkpt lat="43.54917" lon="6.99645">
        <ele>5.4000000953674</ele>
        <time>2014-01-12T13:14:25.000Z</time>
      </trkpt>
      <trkpt lat="43.54914" lon="6.99728">
        <ele>5.1999998092651</ele>
        <time>2014-01-12T13:14:34.000Z</time>
      </trkpt>
      <trkpt lat="43.54911" lon="6.99811">
        <ele>4.4000000953674</ele>
        <time>2014-01-12T13:14:43.000Z</time>
      </trkpt>
      <trkpt lat="43.54911" lon="6.99831">
        <ele>4.1999998092651</ele>
        <time>2014-01-12T13:14:45.000Z</time>
      </trkpt>
      <trkpt lat="43.54908" lon="6.99908">
        <ele>7</ele>
        <time>2014-01-12T13:14:53.000Z</time>
      </trkpt>
      <trkpt lat="43.54907" lon="6.99928">
        <ele>7.5999999046326</ele>
        <time>2014-01-12T13:14:55.000Z</time>
      </trkpt>
      <trkpt lat="43.54903" lon="7.00005">
        <ele>8.6000003814697</ele>
        <time>2014-01-12T13:15:03.000Z</time>
      </trkpt>
      <trkpt lat="43.54901" lon="7.00034">
        <ele>8.1999998092651</ele>
        <time>2014-01-12T13:15:06.000Z</time>
      </trkpt>
      <trkpt lat="43.54898" lon="7.00109">
        <ele>3.4000000953674</ele>
        <time>2014-01-12T13:15:14.000Z</time>
      </trkpt>
      <trkpt lat="43.54896" lon="7.00136">
        <ele>2.5999999046326</ele>
        <time>2014-01-12T13:15:17.000Z</time>
      </trkpt>
      <trkpt lat="43.54894" lon="7.00218">
        <ele>1.7999999523163</ele>
        <time>2014-01-12T13:15:26.000Z</time>
      </trkpt>
      <trkpt lat="43.54896" lon="7.00298">
        <ele>2.5999999046326</ele>
        <time>2014-01-12T13:15:35.000Z</time>
      </trkpt>
      <trkpt lat="43.54898" lon="7.00379">
        <ele>3</ele>
        <time>2014-01-12T13:15:44.000Z</time>
      </trkpt>
      <trkpt lat="43.54898" lon="7.00388">
        <ele>2.7999999523163</ele>
        <time>2014-01-12T13:15:45.000Z</time>
      </trkpt>
      <trkpt lat="43.54894" lon="7.00468">
        <ele>5</ele>
        <time>2014-01-12T13:15:54.000Z</time>
      </trkpt>
      <trkpt lat="43.54893" lon="7.00478">
        <ele>5.4000000953674</ele>
        <time>2014-01-12T13:15:55.000Z</time>
      </trkpt>
      <trkpt lat="43.54886" lon="7.0056">
        <ele>8.6000003814697</ele>
        <time>2014-01-12T13:16:04.000Z</time>
      </trkpt>
      <trkpt lat="43.54885" lon="7.0057">
        <ele>9</ele>
        <time>2014-01-12T13:16:05.000Z</time>
      </trkpt>
      <trkpt lat="43.54879" lon="7.00633">
        <ele>7.4000000953674</ele>
        <time>2014-01-12T13:16:12.000Z</time>
      </trkpt>
      <trkpt lat="43.54874" lon="7.007">
        <ele>7</ele>
        <time>2014-01-12T13:16:20.000Z</time>
      </trkpt>
      <trkpt lat="43.54874" lon="7.00722">
        <ele>7.5999999046326</ele>
        <time>2014-01-12T13:16:23.000Z</time>
      </trkpt>
      <trkpt lat="43.54874" lon="7.00735">
        <ele>8</ele>
        <time>2014-01-12T13:16:25.000Z</time>
      </trkpt>
      <trkpt lat="43.54873" lon="7.00744">
        <ele>8.1999998092651</ele>
        <time>2014-01-12T13:16:27.000Z</time>
      </trkpt>
      <trkpt lat="43.54871" lon="7.00754">
        <ele>8.3999996185303</ele>
        <time>2014-01-12T13:16:29.000Z</time>
      </trkpt>
      <trkpt lat="43.54867" lon="7.00784">
        <ele>9.3999996185303</ele>
        <time>2014-01-12T13:16:33.000Z</time>
      </trkpt>
      <trkpt lat="43.54861" lon="7.00807">
        <ele>9.6000003814697</ele>
        <time>2014-01-12T13:16:36.000Z</time>
      </trkpt>
      <trkpt lat="43.54856" lon="7.00834">
        <ele>10</ele>
        <time>2014-01-12T13:16:39.000Z</time>
      </trkpt>
      <trkpt lat="43.54841" lon="7.0091">
        <ele>9.8000001907349</ele>
        <time>2014-01-12T13:16:48.000Z</time>
      </trkpt>
      <trkpt lat="43.54839" lon="7.00918">
        <ele>9.8000001907349</ele>
        <time>2014-01-12T13:16:49.000Z</time>
      </trkpt>
      <trkpt lat="43.54822" lon="7.00994">
        <ele>10.199999809265</ele>
        <time>2014-01-12T13:16:58.000Z</time>
      </trkpt>
      <trkpt lat="43.54808" lon="7.01055">
        <ele>9</ele>
        <time>2014-01-12T13:17:05.000Z</time>
      </trkpt>
      <trkpt lat="43.54795" lon="7.01112">
        <ele>7</ele>
        <time>2014-01-12T13:17:12.000Z</time>
      </trkpt>
      <trkpt lat="43.5478" lon="7.01185">
        <ele>6.1999998092651</ele>
        <time>2014-01-12T13:17:20.000Z</time>
      </trkpt>
      <trkpt lat="43.54775" lon="7.01221">
        <ele>4.8000001907349</ele>
        <time>2014-01-12T13:17:24.000Z</time>
      </trkpt>
      <trkpt lat="43.54777" lon="7.01229">
        <ele>4.5999999046326</ele>
        <time>2014-01-12T13:17:25.000Z</time>
      </trkpt>
      <trkpt lat="43.54792" lon="7.01247">
        <ele>4.1999998092651</ele>
        <time>2014-01-12T13:17:28.000Z</time>
      </trkpt>
      <trkpt lat="43.54813" lon="7.01252">
        <ele>4</ele>
        <time>2014-01-12T13:17:31.000Z</time>
      </trkpt>
      <trkpt lat="43.5485" lon="7.01256">
        <ele>3.5999999046326</ele>
        <time>2014-01-12T13:17:36.000Z</time>
      </trkpt>
      <trkpt lat="43.54857" lon="7.01254">
        <ele>3.5999999046326</ele>
        <time>2014-01-12T13:17:37.000Z</time>
      </trkpt>
      <trkpt lat="43.54899" lon="7.01245">
        <ele>3.7999999523163</ele>
        <time>2014-01-12T13:17:43.000Z</time>
      </trkpt>
      <trkpt lat="43.54945" lon="7.01233">
        <ele>5.5999999046326</ele>
        <time>2014-01-12T13:17:50.000Z</time>
      </trkpt>
      <trkpt lat="43.54986" lon="7.01223">
        <ele>7</ele>
        <time>2014-01-12T13:17:56.000Z</time>
      </trkpt>
      <trkpt lat="43.55035" lon="7.0121">
        <ele>8.3999996185303</ele>
        <time>2014-01-12T13:18:03.000Z</time>
      </trkpt>
      <trkpt lat="43.55074" lon="7.01199">
        <ele>8.6000003814697</ele>
        <time>2014-01-12T13:18:10.000Z</time>
      </trkpt>
      <trkpt lat="43.55086" lon="7.01201">
        <ele>8.1999998092651</ele>
        <time>2014-01-12T13:18:13.000Z</time>
      </trkpt>
      <trkpt lat="43.55088" lon="7.01199">
        <ele>8.3999996185303</ele>
        <time>2014-01-12T13:18:14.000Z</time>
      </trkpt>
      <trkpt lat="43.55095" lon="7.01189">
        <ele>9.6000003814697</ele>
        <time>2014-01-12T13:18:17.000Z</time>
      </trkpt>
      <trkpt lat="43.55109" lon="7.01185">
        <ele>10.39999961853</ele>
        <time>2014-01-12T13:18:20.000Z</time>
      </trkpt>
      <trkpt lat="43.55113" lon="7.01186">
        <ele>10.39999961853</ele>
        <time>2014-01-12T13:18:21.000Z</time>
      </trkpt>
      <trkpt lat="43.55121" lon="7.01187">
        <ele>10.60000038147</ele>
        <time>2014-01-12T13:18:22.000Z</time>
      </trkpt>
      <trkpt lat="43.55133" lon="7.01187">
        <ele>11</ele>
        <time>2014-01-12T13:18:24.000Z</time>
      </trkpt>
      <trkpt lat="43.55148" lon="7.0118">
        <ele>12</ele>
        <time>2014-01-12T13:18:27.000Z</time>
      </trkpt>
      <trkpt lat="43.55152" lon="7.01177">
        <ele>12.199999809265</ele>
        <time>2014-01-12T13:18:28.000Z</time>
      </trkpt>
      <trkpt lat="43.55163" lon="7.01167">
        <ele>12.800000190735</ele>
        <time>2014-01-12T13:18:31.000Z</time>
      </trkpt>
      <trkpt lat="43.55171" lon="7.01162">
        <ele>13.39999961853</ele>
        <time>2014-01-12T13:18:33.000Z</time>
      </trkpt>
      <trkpt lat="43.55186" lon="7.01155">
        <ele>13.800000190735</ele>
        <time>2014-01-12T13:18:36.000Z</time>
      </trkpt>
      <trkpt lat="43.55194" lon="7.01146">
        <ele>14.39999961853</ele>
        <time>2014-01-12T13:18:38.000Z</time>
      </trkpt>
      <trkpt lat="43.55197" lon="7.01137">
        <ele>14.800000190735</ele>
        <time>2014-01-12T13:18:40.000Z</time>
      </trkpt>
      <trkpt lat="43.55197" lon="7.01132">
        <ele>15.199999809265</ele>
        <time>2014-01-12T13:18:41.000Z</time>
      </trkpt>
      <trkpt lat="43.55195" lon="7.01128">
        <ele>15.39999961853</ele>
        <time>2014-01-12T13:18:42.000Z</time>
      </trkpt>
      <trkpt lat="43.55191" lon="7.01113">
        <ele>16.200000762939</ele>
        <time>2014-01-12T13:18:47.000Z</time>
      </trkpt>
      <trkpt lat="43.55194" lon="7.01114">
        <ele>16</ele>
        <time>2014-01-12T13:18:51.000Z</time>
      </trkpt>
      <trkpt lat="43.55193" lon="7.01116">
        <ele>16</ele>
        <time>2014-01-12T13:18:52.000Z</time>
      </trkpt>
      <trkpt lat="43.55192" lon="7.01115">
        <ele>16</ele>
        <time>2014-01-12T13:18:54.000Z</time>
      </trkpt>
      <trkpt lat="43.55191" lon="7.01114">
        <ele>16</ele>
        <time>2014-01-12T13:18:57.000Z</time>
      </trkpt>
      <trkpt lat="43.552" lon="7.01126">
        <ele>15.39999961853</ele>
        <time>2014-01-12T13:19:03.000Z</time>
      </trkpt>
      <trkpt lat="43.55203" lon="7.01128">
        <ele>15.39999961853</ele>
        <time>2014-01-12T13:19:05.000Z</time>
      </trkpt>
      <trkpt lat="43.55214" lon="7.01148">
        <ele>14.39999961853</ele>
        <time>2014-01-12T13:19:10.000Z</time>
      </trkpt>
      <trkpt lat="43.55215" lon="7.01147">
        <ele>14.39999961853</ele>
        <time>2014-01-12T13:19:16.000Z</time>
      </trkpt>
      <trkpt lat="43.55213" lon="7.01145">
        <ele>14.60000038147</ele>
        <time>2014-01-12T13:19:21.000Z</time>
      </trkpt>
      <trkpt lat="43.55212" lon="7.01143">
        <ele>14.60000038147</ele>
        <time>2014-01-12T13:19:23.000Z</time>
      </trkpt>
      <trkpt lat="43.5521" lon="7.01141">
        <ele>14.800000190735</ele>
        <time>2014-01-12T13:19:31.000Z</time>
      </trkpt>
      <trkpt lat="43.55208" lon="7.01142">
        <ele>14.60000038147</ele>
        <time>2014-01-12T13:19:37.000Z</time>
      </trkpt>
      <trkpt lat="43.5521" lon="7.01144">
        <ele>14.60000038147</ele>
        <time>2014-01-12T13:19:39.000Z</time>
      </trkpt>
      <trkpt lat="43.55212" lon="7.01144">
        <ele>14.60000038147</ele>
        <time>2014-01-12T13:19:41.000Z</time>
      </trkpt>
      <trkpt lat="43.55213" lon="7.01143">
        <ele>14.60000038147</ele>
        <time>2014-01-12T13:19:42.000Z</time>
      </trkpt>
    </trkseg>
  </trk>
</gpx>